<?xml version="1.0" encoding="UTF-8" standalone="no" ?>
<gpx xmlns="http://www.topografix.com/GPX/1/1" xmlns:xsi="http://www.w3.org/2001/XMLSchema-instance" xsi:schemaLocation="http://www.topografix.com/GPX/1/1 http://www.topografix.com/GPX/1/1/gpx.xsd" version="1.1" creator="VisuGPX - https://www.visugpx.com">
  <metadata>
    <name>Gouarec-Abbaye bon Repos-Gouarec</name>
    <desc><![CDATA[Rando avec de bons dénivelés,points de sur Abbaye 
et canal Nantes à Brest.
Visite de l\'abbaye de bon Repos et retour le long du canal.
Dans ce sens 1° partie accidentée et 2° partie plane.]]></desc>
  </metadata>
  <trk>
    <name><![CDATA[Gouarec 3]]></name>
    <trkseg>
      <trkpt lat="48.22583" lon="-3.17546">
        <ele>103.48</ele>
        <time>2011-09-21T08:26:24Z</time>
      </trkpt>
      <trkpt lat="48.22583" lon="-3.17546">
        <ele>103.48</ele>
        <time>2011-09-21T08:26:25Z</time>
      </trkpt>
      <trkpt lat="48.22586" lon="-3.17542">
        <ele>102.52</ele>
        <time>2011-09-21T08:26:32Z</time>
      </trkpt>
      <trkpt lat="48.22588" lon="-3.17538">
        <ele>101.56</ele>
        <time>2011-09-21T08:26:40Z</time>
      </trkpt>
      <trkpt lat="48.22589" lon="-3.17537">
        <ele>103</ele>
        <time>2011-09-21T08:26:41Z</time>
      </trkpt>
      <trkpt lat="48.22599" lon="-3.1753">
        <ele>105.88</ele>
        <time>2011-09-21T08:26:50Z</time>
      </trkpt>
      <trkpt lat="48.22602" lon="-3.17528">
        <ele>109.25</ele>
        <time>2011-09-21T08:26:53Z</time>
      </trkpt>
      <trkpt lat="48.22605" lon="-3.17525">
        <ele>112.61</ele>
        <time>2011-09-21T08:26:57Z</time>
      </trkpt>
      <trkpt lat="48.22607" lon="-3.1752">
        <ele>115.98</ele>
        <time>2011-09-21T08:27:02Z</time>
      </trkpt>
      <trkpt lat="48.22608" lon="-3.17518">
        <ele>116.94</ele>
        <time>2011-09-21T08:27:03Z</time>
      </trkpt>
      <trkpt lat="48.2261" lon="-3.17505">
        <ele>121.26</ele>
        <time>2011-09-21T08:27:10Z</time>
      </trkpt>
      <trkpt lat="48.22612" lon="-3.17492">
        <ele>124.15</ele>
        <time>2011-09-21T08:27:18Z</time>
      </trkpt>
      <trkpt lat="48.22609" lon="-3.17482">
        <ele>127.03</ele>
        <time>2011-09-21T08:27:27Z</time>
      </trkpt>
      <trkpt lat="48.2262" lon="-3.17465">
        <ele>130.88</ele>
        <time>2011-09-21T08:27:39Z</time>
      </trkpt>
      <trkpt lat="48.22622" lon="-3.17431">
        <ele>132.8</ele>
        <time>2011-09-21T08:27:59Z</time>
      </trkpt>
      <trkpt lat="48.22619" lon="-3.17411">
        <ele>133.28</ele>
        <time>2011-09-21T08:28:13Z</time>
      </trkpt>
      <trkpt lat="48.22619" lon="-3.1741">
        <ele>133.76</ele>
        <time>2011-09-21T08:28:14Z</time>
      </trkpt>
      <trkpt lat="48.22612" lon="-3.17385">
        <ele>135.2</ele>
        <time>2011-09-21T08:28:32Z</time>
      </trkpt>
      <trkpt lat="48.2261" lon="-3.17359">
        <ele>136.16</ele>
        <time>2011-09-21T08:28:48Z</time>
      </trkpt>
      <trkpt lat="48.22608" lon="-3.17355">
        <ele>136.16</ele>
        <time>2011-09-21T08:28:51Z</time>
      </trkpt>
      <trkpt lat="48.22605" lon="-3.17348">
        <ele>136.64</ele>
        <time>2011-09-21T08:28:59Z</time>
      </trkpt>
      <trkpt lat="48.22601" lon="-3.17328">
        <ele>137.13</ele>
        <time>2011-09-21T08:29:13Z</time>
      </trkpt>
      <trkpt lat="48.22598" lon="-3.17313">
        <ele>137.61</ele>
        <time>2011-09-21T08:29:24Z</time>
      </trkpt>
      <trkpt lat="48.22595" lon="-3.17297">
        <ele>137.13</ele>
        <time>2011-09-21T08:29:35Z</time>
      </trkpt>
      <trkpt lat="48.22593" lon="-3.17278">
        <ele>137.61</ele>
        <time>2011-09-21T08:29:49Z</time>
      </trkpt>
      <trkpt lat="48.22597" lon="-3.17261">
        <ele>138.09</ele>
        <time>2011-09-21T08:30:03Z</time>
      </trkpt>
      <trkpt lat="48.22599" lon="-3.17242">
        <ele>138.57</ele>
        <time>2011-09-21T08:30:18Z</time>
      </trkpt>
      <trkpt lat="48.22599" lon="-3.17224">
        <ele>140.01</ele>
        <time>2011-09-21T08:30:34Z</time>
      </trkpt>
      <trkpt lat="48.22597" lon="-3.17196">
        <ele>142.41</ele>
        <time>2011-09-21T08:30:52Z</time>
      </trkpt>
      <trkpt lat="48.22594" lon="-3.17171">
        <ele>143.37</ele>
        <time>2011-09-21T08:31:08Z</time>
      </trkpt>
      <trkpt lat="48.22593" lon="-3.17151">
        <ele>144.82</ele>
        <time>2011-09-21T08:31:20Z</time>
      </trkpt>
      <trkpt lat="48.22591" lon="-3.17133">
        <ele>146.26</ele>
        <time>2011-09-21T08:31:35Z</time>
      </trkpt>
      <trkpt lat="48.22587" lon="-3.17117">
        <ele>147.7</ele>
        <time>2011-09-21T08:31:51Z</time>
      </trkpt>
      <trkpt lat="48.22582" lon="-3.17103">
        <ele>148.66</ele>
        <time>2011-09-21T08:32:02Z</time>
      </trkpt>
      <trkpt lat="48.22579" lon="-3.17086">
        <ele>150.1</ele>
        <time>2011-09-21T08:32:15Z</time>
      </trkpt>
      <trkpt lat="48.22572" lon="-3.1707">
        <ele>151.54</ele>
        <time>2011-09-21T08:32:29Z</time>
      </trkpt>
      <trkpt lat="48.22568" lon="-3.17056">
        <ele>152.99</ele>
        <time>2011-09-21T08:32:42Z</time>
      </trkpt>
      <trkpt lat="48.22563" lon="-3.17045">
        <ele>153.95</ele>
        <time>2011-09-21T08:32:54Z</time>
      </trkpt>
      <trkpt lat="48.22558" lon="-3.17033">
        <ele>155.87</ele>
        <time>2011-09-21T08:33:08Z</time>
      </trkpt>
      <trkpt lat="48.22555" lon="-3.1702">
        <ele>157.31</ele>
        <time>2011-09-21T08:33:23Z</time>
      </trkpt>
      <trkpt lat="48.22553" lon="-3.17014">
        <ele>158.27</ele>
        <time>2011-09-21T08:33:37Z</time>
      </trkpt>
      <trkpt lat="48.22553" lon="-3.17014">
        <ele>158.27</ele>
        <time>2011-09-21T08:34:01Z</time>
      </trkpt>
      <trkpt lat="48.22553" lon="-3.17014">
        <ele>158.27</ele>
        <time>2011-09-21T08:34:20Z</time>
      </trkpt>
      <trkpt lat="48.22553" lon="-3.17014">
        <ele>158.27</ele>
        <time>2011-09-21T08:34:43Z</time>
      </trkpt>
      <trkpt lat="48.2255" lon="-3.17014">
        <ele>159.24</ele>
        <time>2011-09-21T08:34:57Z</time>
      </trkpt>
      <trkpt lat="48.2255" lon="-3.17014">
        <ele>157.31</ele>
        <time>2011-09-21T08:35:11Z</time>
      </trkpt>
      <trkpt lat="48.2255" lon="-3.17014">
        <ele>155.39</ele>
        <time>2011-09-21T08:35:23Z</time>
      </trkpt>
      <trkpt lat="48.22549" lon="-3.17015">
        <ele>154.43</ele>
        <time>2011-09-21T08:35:38Z</time>
      </trkpt>
      <trkpt lat="48.22542" lon="-3.17024">
        <ele>152.03</ele>
        <time>2011-09-21T08:35:48Z</time>
      </trkpt>
      <trkpt lat="48.22538" lon="-3.1703">
        <ele>150.58</ele>
        <time>2011-09-21T08:36:01Z</time>
      </trkpt>
      <trkpt lat="48.22535" lon="-3.17039">
        <ele>147.7</ele>
        <time>2011-09-21T08:36:17Z</time>
      </trkpt>
      <trkpt lat="48.22531" lon="-3.17055">
        <ele>145.78</ele>
        <time>2011-09-21T08:36:31Z</time>
      </trkpt>
      <trkpt lat="48.22528" lon="-3.17066">
        <ele>143.37</ele>
        <time>2011-09-21T08:36:47Z</time>
      </trkpt>
      <trkpt lat="48.2252" lon="-3.17094">
        <ele>141.45</ele>
        <time>2011-09-21T08:37:04Z</time>
      </trkpt>
      <trkpt lat="48.22509" lon="-3.17129">
        <ele>140.49</ele>
        <time>2011-09-21T08:37:19Z</time>
      </trkpt>
      <trkpt lat="48.22508" lon="-3.17132">
        <ele>140.01</ele>
        <time>2011-09-21T08:37:20Z</time>
      </trkpt>
      <trkpt lat="48.22503" lon="-3.17138">
        <ele>139.53</ele>
        <time>2011-09-21T08:37:26Z</time>
      </trkpt>
      <trkpt lat="48.22495" lon="-3.17134">
        <ele>140.49</ele>
        <time>2011-09-21T08:37:38Z</time>
      </trkpt>
      <trkpt lat="48.22483" lon="-3.17128">
        <ele>141.45</ele>
        <time>2011-09-21T08:37:52Z</time>
      </trkpt>
      <trkpt lat="48.22474" lon="-3.17121">
        <ele>142.41</ele>
        <time>2011-09-21T08:38:04Z</time>
      </trkpt>
      <trkpt lat="48.22466" lon="-3.17116">
        <ele>143.85</ele>
        <time>2011-09-21T08:38:14Z</time>
      </trkpt>
      <trkpt lat="48.22458" lon="-3.17108">
        <ele>144.82</ele>
        <time>2011-09-21T08:38:25Z</time>
      </trkpt>
      <trkpt lat="48.22455" lon="-3.17104">
        <ele>145.78</ele>
        <time>2011-09-21T08:38:36Z</time>
      </trkpt>
      <trkpt lat="48.22447" lon="-3.17094">
        <ele>146.74</ele>
        <time>2011-09-21T08:38:49Z</time>
      </trkpt>
      <trkpt lat="48.22442" lon="-3.17087">
        <ele>148.18</ele>
        <time>2011-09-21T08:39:03Z</time>
      </trkpt>
      <trkpt lat="48.2243" lon="-3.17077">
        <ele>150.1</ele>
        <time>2011-09-21T08:39:17Z</time>
      </trkpt>
      <trkpt lat="48.22423" lon="-3.17071">
        <ele>151.06</ele>
        <time>2011-09-21T08:39:28Z</time>
      </trkpt>
      <trkpt lat="48.22401" lon="-3.17063">
        <ele>151.54</ele>
        <time>2011-09-21T08:39:46Z</time>
      </trkpt>
      <trkpt lat="48.22393" lon="-3.17058">
        <ele>151.54</ele>
        <time>2011-09-21T08:40:00Z</time>
      </trkpt>
      <trkpt lat="48.22383" lon="-3.17055">
        <ele>152.51</ele>
        <time>2011-09-21T08:40:12Z</time>
      </trkpt>
      <trkpt lat="48.22378" lon="-3.17054">
        <ele>153.47</ele>
        <time>2011-09-21T08:40:27Z</time>
      </trkpt>
      <trkpt lat="48.22374" lon="-3.1705">
        <ele>155.39</ele>
        <time>2011-09-21T08:40:43Z</time>
      </trkpt>
      <trkpt lat="48.2236" lon="-3.17047">
        <ele>156.35</ele>
        <time>2011-09-21T08:40:57Z</time>
      </trkpt>
      <trkpt lat="48.22345" lon="-3.1704">
        <ele>157.31</ele>
        <time>2011-09-21T08:41:08Z</time>
      </trkpt>
      <trkpt lat="48.22343" lon="-3.17037">
        <ele>159.24</ele>
        <time>2011-09-21T08:41:23Z</time>
      </trkpt>
      <trkpt lat="48.2234" lon="-3.17034">
        <ele>161.16</ele>
        <time>2011-09-21T08:41:36Z</time>
      </trkpt>
      <trkpt lat="48.2234" lon="-3.17032">
        <ele>162.6</ele>
        <time>2011-09-21T08:41:51Z</time>
      </trkpt>
      <trkpt lat="48.22338" lon="-3.17022">
        <ele>163.56</ele>
        <time>2011-09-21T08:42:08Z</time>
      </trkpt>
      <trkpt lat="48.22338" lon="-3.17016">
        <ele>165</ele>
        <time>2011-09-21T08:42:21Z</time>
      </trkpt>
      <trkpt lat="48.22336" lon="-3.17012">
        <ele>166.93</ele>
        <time>2011-09-21T08:42:33Z</time>
      </trkpt>
      <trkpt lat="48.22331" lon="-3.17005">
        <ele>168.37</ele>
        <time>2011-09-21T08:42:46Z</time>
      </trkpt>
      <trkpt lat="48.22327" lon="-3.16999">
        <ele>169.33</ele>
        <time>2011-09-21T08:42:58Z</time>
      </trkpt>
      <trkpt lat="48.22326" lon="-3.16995">
        <ele>171.25</ele>
        <time>2011-09-21T08:43:08Z</time>
      </trkpt>
      <trkpt lat="48.22321" lon="-3.1699">
        <ele>172.21</ele>
        <time>2011-09-21T08:43:17Z</time>
      </trkpt>
      <trkpt lat="48.2232" lon="-3.16987">
        <ele>172.69</ele>
        <time>2011-09-21T08:43:29Z</time>
      </trkpt>
      <trkpt lat="48.22318" lon="-3.1698">
        <ele>174.14</ele>
        <time>2011-09-21T08:43:40Z</time>
      </trkpt>
      <trkpt lat="48.22309" lon="-3.16963">
        <ele>175.1</ele>
        <time>2011-09-21T08:43:52Z</time>
      </trkpt>
      <trkpt lat="48.22305" lon="-3.16956">
        <ele>176.06</ele>
        <time>2011-09-21T08:44:05Z</time>
      </trkpt>
      <trkpt lat="48.22301" lon="-3.16947">
        <ele>177.5</ele>
        <time>2011-09-21T08:44:17Z</time>
      </trkpt>
      <trkpt lat="48.223" lon="-3.16941">
        <ele>178.46</ele>
        <time>2011-09-21T08:44:27Z</time>
      </trkpt>
      <trkpt lat="48.22296" lon="-3.16933">
        <ele>179.9</ele>
        <time>2011-09-21T08:44:38Z</time>
      </trkpt>
      <trkpt lat="48.22297" lon="-3.16925">
        <ele>181.35</ele>
        <time>2011-09-21T08:44:51Z</time>
      </trkpt>
      <trkpt lat="48.22297" lon="-3.16918">
        <ele>182.31</ele>
        <time>2011-09-21T08:45:06Z</time>
      </trkpt>
      <trkpt lat="48.22297" lon="-3.16918">
        <ele>181.83</ele>
        <time>2011-09-21T08:45:13Z</time>
      </trkpt>
      <trkpt lat="48.22296" lon="-3.16901">
        <ele>182.79</ele>
        <time>2011-09-21T08:45:23Z</time>
      </trkpt>
      <trkpt lat="48.22293" lon="-3.16881">
        <ele>183.27</ele>
        <time>2011-09-21T08:45:33Z</time>
      </trkpt>
      <trkpt lat="48.2229" lon="-3.16874">
        <ele>183.75</ele>
        <time>2011-09-21T08:45:38Z</time>
      </trkpt>
      <trkpt lat="48.22285" lon="-3.16861">
        <ele>184.23</ele>
        <time>2011-09-21T08:45:48Z</time>
      </trkpt>
      <trkpt lat="48.22284" lon="-3.16853">
        <ele>183.75</ele>
        <time>2011-09-21T08:45:53Z</time>
      </trkpt>
      <trkpt lat="48.22278" lon="-3.16841">
        <ele>184.23</ele>
        <time>2011-09-21T08:46:03Z</time>
      </trkpt>
      <trkpt lat="48.22274" lon="-3.16831">
        <ele>185.19</ele>
        <time>2011-09-21T08:46:12Z</time>
      </trkpt>
      <trkpt lat="48.22272" lon="-3.16819">
        <ele>185.67</ele>
        <time>2011-09-21T08:46:23Z</time>
      </trkpt>
      <trkpt lat="48.22269" lon="-3.16809">
        <ele>185.19</ele>
        <time>2011-09-21T08:46:30Z</time>
      </trkpt>
      <trkpt lat="48.22264" lon="-3.16793">
        <ele>185.67</ele>
        <time>2011-09-21T08:46:41Z</time>
      </trkpt>
      <trkpt lat="48.22263" lon="-3.16777">
        <ele>186.15</ele>
        <time>2011-09-21T08:46:53Z</time>
      </trkpt>
      <trkpt lat="48.22264" lon="-3.16769">
        <ele>186.63</ele>
        <time>2011-09-21T08:46:59Z</time>
      </trkpt>
      <trkpt lat="48.22264" lon="-3.16757">
        <ele>187.11</ele>
        <time>2011-09-21T08:47:09Z</time>
      </trkpt>
      <trkpt lat="48.22264" lon="-3.16749">
        <ele>187.59</ele>
        <time>2011-09-21T08:47:15Z</time>
      </trkpt>
      <trkpt lat="48.22262" lon="-3.16733">
        <ele>188.56</ele>
        <time>2011-09-21T08:47:26Z</time>
      </trkpt>
      <trkpt lat="48.22257" lon="-3.16724">
        <ele>189.04</ele>
        <time>2011-09-21T08:47:38Z</time>
      </trkpt>
      <trkpt lat="48.22256" lon="-3.16721">
        <ele>189.52</ele>
        <time>2011-09-21T08:47:40Z</time>
      </trkpt>
      <trkpt lat="48.22256" lon="-3.16703">
        <ele>190</ele>
        <time>2011-09-21T08:47:52Z</time>
      </trkpt>
      <trkpt lat="48.22258" lon="-3.16688">
        <ele>190.48</ele>
        <time>2011-09-21T08:48:04Z</time>
      </trkpt>
      <trkpt lat="48.22259" lon="-3.16675">
        <ele>190.48</ele>
        <time>2011-09-21T08:48:12Z</time>
      </trkpt>
      <trkpt lat="48.2226" lon="-3.16661">
        <ele>190.96</ele>
        <time>2011-09-21T08:48:22Z</time>
      </trkpt>
      <trkpt lat="48.22262" lon="-3.16656">
        <ele>190.48</ele>
        <time>2011-09-21T08:48:28Z</time>
      </trkpt>
      <trkpt lat="48.22262" lon="-3.16638">
        <ele>190.96</ele>
        <time>2011-09-21T08:48:38Z</time>
      </trkpt>
      <trkpt lat="48.22263" lon="-3.16633">
        <ele>190.96</ele>
        <time>2011-09-21T08:48:41Z</time>
      </trkpt>
      <trkpt lat="48.22265" lon="-3.1663">
        <ele>190.48</ele>
        <time>2011-09-21T08:48:43Z</time>
      </trkpt>
      <trkpt lat="48.22269" lon="-3.16618">
        <ele>190.96</ele>
        <time>2011-09-21T08:48:54Z</time>
      </trkpt>
      <trkpt lat="48.22276" lon="-3.166">
        <ele>190.96</ele>
        <time>2011-09-21T08:49:06Z</time>
      </trkpt>
      <trkpt lat="48.22283" lon="-3.16584">
        <ele>190.96</ele>
        <time>2011-09-21T08:49:19Z</time>
      </trkpt>
      <trkpt lat="48.2229" lon="-3.16569">
        <ele>190.96</ele>
        <time>2011-09-21T08:49:31Z</time>
      </trkpt>
      <trkpt lat="48.22305" lon="-3.16548">
        <ele>191.44</ele>
        <time>2011-09-21T08:49:44Z</time>
      </trkpt>
      <trkpt lat="48.22309" lon="-3.16543">
        <ele>191.44</ele>
        <time>2011-09-21T08:49:55Z</time>
      </trkpt>
      <trkpt lat="48.22315" lon="-3.16536">
        <ele>191.92</ele>
        <time>2011-09-21T08:50:04Z</time>
      </trkpt>
      <trkpt lat="48.22322" lon="-3.16527">
        <ele>191.92</ele>
        <time>2011-09-21T08:50:14Z</time>
      </trkpt>
      <trkpt lat="48.2233" lon="-3.16519">
        <ele>192.4</ele>
        <time>2011-09-21T08:50:21Z</time>
      </trkpt>
      <trkpt lat="48.22338" lon="-3.16515">
        <ele>192.4</ele>
        <time>2011-09-21T08:50:27Z</time>
      </trkpt>
      <trkpt lat="48.2235" lon="-3.16504">
        <ele>192.4</ele>
        <time>2011-09-21T08:50:40Z</time>
      </trkpt>
      <trkpt lat="48.2236" lon="-3.16492">
        <ele>193.36</ele>
        <time>2011-09-21T08:50:48Z</time>
      </trkpt>
      <trkpt lat="48.22371" lon="-3.16475">
        <ele>193.84</ele>
        <time>2011-09-21T08:51:00Z</time>
      </trkpt>
      <trkpt lat="48.22377" lon="-3.16462">
        <ele>193.84</ele>
        <time>2011-09-21T08:51:10Z</time>
      </trkpt>
      <trkpt lat="48.22377" lon="-3.16458">
        <ele>193.84</ele>
        <time>2011-09-21T08:51:12Z</time>
      </trkpt>
      <trkpt lat="48.22382" lon="-3.16444">
        <ele>194.32</ele>
        <time>2011-09-21T08:51:22Z</time>
      </trkpt>
      <trkpt lat="48.22382" lon="-3.16442">
        <ele>194.32</ele>
        <time>2011-09-21T08:51:23Z</time>
      </trkpt>
      <trkpt lat="48.22383" lon="-3.16439">
        <ele>194.32</ele>
        <time>2011-09-21T08:51:25Z</time>
      </trkpt>
      <trkpt lat="48.22385" lon="-3.16424">
        <ele>194.32</ele>
        <time>2011-09-21T08:51:36Z</time>
      </trkpt>
      <trkpt lat="48.22388" lon="-3.16413">
        <ele>194.32</ele>
        <time>2011-09-21T08:51:46Z</time>
      </trkpt>
      <trkpt lat="48.22398" lon="-3.16405">
        <ele>193.36</ele>
        <time>2011-09-21T08:51:57Z</time>
      </trkpt>
      <trkpt lat="48.22408" lon="-3.16401">
        <ele>191.92</ele>
        <time>2011-09-21T08:52:09Z</time>
      </trkpt>
      <trkpt lat="48.22411" lon="-3.16399">
        <ele>191.44</ele>
        <time>2011-09-21T08:52:19Z</time>
      </trkpt>
      <trkpt lat="48.22421" lon="-3.16395">
        <ele>191.44</ele>
        <time>2011-09-21T08:52:29Z</time>
      </trkpt>
      <trkpt lat="48.22427" lon="-3.16378">
        <ele>191.92</ele>
        <time>2011-09-21T08:52:42Z</time>
      </trkpt>
      <trkpt lat="48.22428" lon="-3.16368">
        <ele>191.92</ele>
        <time>2011-09-21T08:52:50Z</time>
      </trkpt>
      <trkpt lat="48.22426" lon="-3.16353">
        <ele>192.4</ele>
        <time>2011-09-21T08:53:01Z</time>
      </trkpt>
      <trkpt lat="48.22425" lon="-3.16336">
        <ele>192.88</ele>
        <time>2011-09-21T08:53:14Z</time>
      </trkpt>
      <trkpt lat="48.22424" lon="-3.16324">
        <ele>193.36</ele>
        <time>2011-09-21T08:53:22Z</time>
      </trkpt>
      <trkpt lat="48.22423" lon="-3.16304">
        <ele>193.84</ele>
        <time>2011-09-21T08:53:33Z</time>
      </trkpt>
      <trkpt lat="48.22421" lon="-3.16293">
        <ele>193.36</ele>
        <time>2011-09-21T08:53:41Z</time>
      </trkpt>
      <trkpt lat="48.22419" lon="-3.16277">
        <ele>193.84</ele>
        <time>2011-09-21T08:53:53Z</time>
      </trkpt>
      <trkpt lat="48.22415" lon="-3.1626">
        <ele>194.32</ele>
        <time>2011-09-21T08:54:05Z</time>
      </trkpt>
      <trkpt lat="48.22411" lon="-3.16246">
        <ele>194.32</ele>
        <time>2011-09-21T08:54:15Z</time>
      </trkpt>
      <trkpt lat="48.22408" lon="-3.16235">
        <ele>194.32</ele>
        <time>2011-09-21T08:54:22Z</time>
      </trkpt>
      <trkpt lat="48.22407" lon="-3.1623">
        <ele>194.8</ele>
        <time>2011-09-21T08:54:25Z</time>
      </trkpt>
      <trkpt lat="48.22405" lon="-3.16225">
        <ele>194.8</ele>
        <time>2011-09-21T08:54:28Z</time>
      </trkpt>
      <trkpt lat="48.22405" lon="-3.1622">
        <ele>194.8</ele>
        <time>2011-09-21T08:54:31Z</time>
      </trkpt>
      <trkpt lat="48.22409" lon="-3.16189">
        <ele>195.28</ele>
        <time>2011-09-21T08:54:40Z</time>
      </trkpt>
      <trkpt lat="48.22405" lon="-3.16174">
        <ele>195.28</ele>
        <time>2011-09-21T08:54:52Z</time>
      </trkpt>
      <trkpt lat="48.22403" lon="-3.16163">
        <ele>195.28</ele>
        <time>2011-09-21T08:55:00Z</time>
      </trkpt>
      <trkpt lat="48.22398" lon="-3.16148">
        <ele>194.32</ele>
        <time>2011-09-21T08:55:10Z</time>
      </trkpt>
      <trkpt lat="48.22397" lon="-3.16143">
        <ele>194.32</ele>
        <time>2011-09-21T08:55:13Z</time>
      </trkpt>
      <trkpt lat="48.22393" lon="-3.16131">
        <ele>193.84</ele>
        <time>2011-09-21T08:55:21Z</time>
      </trkpt>
      <trkpt lat="48.22391" lon="-3.16123">
        <ele>193.36</ele>
        <time>2011-09-21T08:55:25Z</time>
      </trkpt>
      <trkpt lat="48.22387" lon="-3.16108">
        <ele>193.36</ele>
        <time>2011-09-21T08:55:37Z</time>
      </trkpt>
      <trkpt lat="48.22383" lon="-3.16091">
        <ele>192.4</ele>
        <time>2011-09-21T08:55:48Z</time>
      </trkpt>
      <trkpt lat="48.22378" lon="-3.16073">
        <ele>191.44</ele>
        <time>2011-09-21T08:56:01Z</time>
      </trkpt>
      <trkpt lat="48.22377" lon="-3.16067">
        <ele>191.44</ele>
        <time>2011-09-21T08:56:12Z</time>
      </trkpt>
      <trkpt lat="48.22376" lon="-3.16063">
        <ele>191.44</ele>
        <time>2011-09-21T08:56:16Z</time>
      </trkpt>
      <trkpt lat="48.22371" lon="-3.16047">
        <ele>191.44</ele>
        <time>2011-09-21T08:56:28Z</time>
      </trkpt>
      <trkpt lat="48.22363" lon="-3.16029">
        <ele>190</ele>
        <time>2011-09-21T08:56:39Z</time>
      </trkpt>
      <trkpt lat="48.22359" lon="-3.16024">
        <ele>189.52</ele>
        <time>2011-09-21T08:56:50Z</time>
      </trkpt>
      <trkpt lat="48.22355" lon="-3.16022">
        <ele>190</ele>
        <time>2011-09-21T08:56:53Z</time>
      </trkpt>
      <trkpt lat="48.22352" lon="-3.16021">
        <ele>189.52</ele>
        <time>2011-09-21T08:56:56Z</time>
      </trkpt>
      <trkpt lat="48.2234" lon="-3.16005">
        <ele>188.08</ele>
        <time>2011-09-21T08:57:09Z</time>
      </trkpt>
      <trkpt lat="48.2233" lon="-3.15993">
        <ele>187.11</ele>
        <time>2011-09-21T08:57:20Z</time>
      </trkpt>
      <trkpt lat="48.22327" lon="-3.15991">
        <ele>187.11</ele>
        <time>2011-09-21T08:57:24Z</time>
      </trkpt>
      <trkpt lat="48.22322" lon="-3.15985">
        <ele>186.63</ele>
        <time>2011-09-21T08:57:32Z</time>
      </trkpt>
      <trkpt lat="48.2232" lon="-3.15981">
        <ele>185.67</ele>
        <time>2011-09-21T08:57:35Z</time>
      </trkpt>
      <trkpt lat="48.22309" lon="-3.15969">
        <ele>184.71</ele>
        <time>2011-09-21T08:57:47Z</time>
      </trkpt>
      <trkpt lat="48.22301" lon="-3.15958">
        <ele>183.75</ele>
        <time>2011-09-21T08:57:58Z</time>
      </trkpt>
      <trkpt lat="48.22297" lon="-3.15954">
        <ele>183.27</ele>
        <time>2011-09-21T08:58:03Z</time>
      </trkpt>
      <trkpt lat="48.22294" lon="-3.15949">
        <ele>182.79</ele>
        <time>2011-09-21T08:58:08Z</time>
      </trkpt>
      <trkpt lat="48.22288" lon="-3.15941">
        <ele>181.83</ele>
        <time>2011-09-21T08:58:15Z</time>
      </trkpt>
      <trkpt lat="48.22277" lon="-3.15928">
        <ele>180.38</ele>
        <time>2011-09-21T08:58:29Z</time>
      </trkpt>
      <trkpt lat="48.22265" lon="-3.15914">
        <ele>179.42</ele>
        <time>2011-09-21T08:58:42Z</time>
      </trkpt>
      <trkpt lat="48.22257" lon="-3.15903">
        <ele>178.46</ele>
        <time>2011-09-21T08:58:52Z</time>
      </trkpt>
      <trkpt lat="48.22245" lon="-3.15889">
        <ele>176.54</ele>
        <time>2011-09-21T08:59:05Z</time>
      </trkpt>
      <trkpt lat="48.22234" lon="-3.15877">
        <ele>174.62</ele>
        <time>2011-09-21T08:59:17Z</time>
      </trkpt>
      <trkpt lat="48.22227" lon="-3.15867">
        <ele>173.66</ele>
        <time>2011-09-21T08:59:26Z</time>
      </trkpt>
      <trkpt lat="48.22224" lon="-3.15863">
        <ele>173.17</ele>
        <time>2011-09-21T08:59:29Z</time>
      </trkpt>
      <trkpt lat="48.22218" lon="-3.15858">
        <ele>172.21</ele>
        <time>2011-09-21T08:59:35Z</time>
      </trkpt>
      <trkpt lat="48.22207" lon="-3.15845">
        <ele>170.77</ele>
        <time>2011-09-21T08:59:49Z</time>
      </trkpt>
      <trkpt lat="48.22199" lon="-3.15835">
        <ele>168.85</ele>
        <time>2011-09-21T09:00:01Z</time>
      </trkpt>
      <trkpt lat="48.22191" lon="-3.15824">
        <ele>167.41</ele>
        <time>2011-09-21T09:00:12Z</time>
      </trkpt>
      <trkpt lat="48.22183" lon="-3.15811">
        <ele>165.48</ele>
        <time>2011-09-21T09:00:24Z</time>
      </trkpt>
      <trkpt lat="48.22176" lon="-3.15799">
        <ele>164.52</ele>
        <time>2011-09-21T09:00:34Z</time>
      </trkpt>
      <trkpt lat="48.22167" lon="-3.1578">
        <ele>162.12</ele>
        <time>2011-09-21T09:00:46Z</time>
      </trkpt>
      <trkpt lat="48.22165" lon="-3.15775">
        <ele>161.64</ele>
        <time>2011-09-21T09:00:51Z</time>
      </trkpt>
      <trkpt lat="48.2216" lon="-3.15763">
        <ele>160.2</ele>
        <time>2011-09-21T09:01:03Z</time>
      </trkpt>
      <trkpt lat="48.22154" lon="-3.15744">
        <ele>158.75</ele>
        <time>2011-09-21T09:01:16Z</time>
      </trkpt>
      <trkpt lat="48.2215" lon="-3.15736">
        <ele>157.31</ele>
        <time>2011-09-21T09:01:27Z</time>
      </trkpt>
      <trkpt lat="48.22143" lon="-3.15724">
        <ele>154.91</ele>
        <time>2011-09-21T09:01:40Z</time>
      </trkpt>
      <trkpt lat="48.22134" lon="-3.15716">
        <ele>152.03</ele>
        <time>2011-09-21T09:01:55Z</time>
      </trkpt>
      <trkpt lat="48.22128" lon="-3.15698">
        <ele>149.62</ele>
        <time>2011-09-21T09:02:09Z</time>
      </trkpt>
      <trkpt lat="48.22124" lon="-3.15679">
        <ele>147.7</ele>
        <time>2011-09-21T09:02:22Z</time>
      </trkpt>
      <trkpt lat="48.22118" lon="-3.15663">
        <ele>145.78</ele>
        <time>2011-09-21T09:02:35Z</time>
      </trkpt>
      <trkpt lat="48.22115" lon="-3.15645">
        <ele>144.34</ele>
        <time>2011-09-21T09:02:49Z</time>
      </trkpt>
      <trkpt lat="48.22117" lon="-3.15634">
        <ele>142.41</ele>
        <time>2011-09-21T09:03:02Z</time>
      </trkpt>
      <trkpt lat="48.22119" lon="-3.15617">
        <ele>141.45</ele>
        <time>2011-09-21T09:03:15Z</time>
      </trkpt>
      <trkpt lat="48.22119" lon="-3.15613">
        <ele>141.45</ele>
        <time>2011-09-21T09:03:27Z</time>
      </trkpt>
      <trkpt lat="48.22124" lon="-3.15597">
        <ele>141.45</ele>
        <time>2011-09-21T09:03:38Z</time>
      </trkpt>
      <trkpt lat="48.22121" lon="-3.15587">
        <ele>140.97</ele>
        <time>2011-09-21T09:03:50Z</time>
      </trkpt>
      <trkpt lat="48.22121" lon="-3.15586">
        <ele>141.45</ele>
        <time>2011-09-21T09:04:05Z</time>
      </trkpt>
      <trkpt lat="48.22111" lon="-3.15569">
        <ele>142.41</ele>
        <time>2011-09-21T09:04:18Z</time>
      </trkpt>
      <trkpt lat="48.22106" lon="-3.15564">
        <ele>143.85</ele>
        <time>2011-09-21T09:04:29Z</time>
      </trkpt>
      <trkpt lat="48.22093" lon="-3.15565">
        <ele>145.78</ele>
        <time>2011-09-21T09:04:39Z</time>
      </trkpt>
      <trkpt lat="48.22078" lon="-3.15568">
        <ele>146.74</ele>
        <time>2011-09-21T09:04:51Z</time>
      </trkpt>
      <trkpt lat="48.22073" lon="-3.15575">
        <ele>145.3</ele>
        <time>2011-09-21T09:05:02Z</time>
      </trkpt>
      <trkpt lat="48.22068" lon="-3.15588">
        <ele>143.85</ele>
        <time>2011-09-21T09:05:16Z</time>
      </trkpt>
      <trkpt lat="48.22064" lon="-3.15596">
        <ele>143.37</ele>
        <time>2011-09-21T09:05:28Z</time>
      </trkpt>
      <trkpt lat="48.22061" lon="-3.15615">
        <ele>142.89</ele>
        <time>2011-09-21T09:05:40Z</time>
      </trkpt>
      <trkpt lat="48.2206" lon="-3.15633">
        <ele>142.41</ele>
        <time>2011-09-21T09:05:50Z</time>
      </trkpt>
      <trkpt lat="48.22058" lon="-3.15649">
        <ele>142.41</ele>
        <time>2011-09-21T09:06:03Z</time>
      </trkpt>
      <trkpt lat="48.22051" lon="-3.1568">
        <ele>141.45</ele>
        <time>2011-09-21T09:06:15Z</time>
      </trkpt>
      <trkpt lat="48.22045" lon="-3.15697">
        <ele>141.93</ele>
        <time>2011-09-21T09:06:24Z</time>
      </trkpt>
      <trkpt lat="48.22041" lon="-3.15706">
        <ele>140.97</ele>
        <time>2011-09-21T09:06:33Z</time>
      </trkpt>
      <trkpt lat="48.22036" lon="-3.1572">
        <ele>140.49</ele>
        <time>2011-09-21T09:06:44Z</time>
      </trkpt>
      <trkpt lat="48.22032" lon="-3.15734">
        <ele>139.53</ele>
        <time>2011-09-21T09:06:55Z</time>
      </trkpt>
      <trkpt lat="48.22027" lon="-3.15746">
        <ele>139.53</ele>
        <time>2011-09-21T09:07:08Z</time>
      </trkpt>
      <trkpt lat="48.22027" lon="-3.15746">
        <ele>139.05</ele>
        <time>2011-09-21T09:07:25Z</time>
      </trkpt>
      <trkpt lat="48.22021" lon="-3.15761">
        <ele>138.57</ele>
        <time>2011-09-21T09:07:38Z</time>
      </trkpt>
      <trkpt lat="48.22017" lon="-3.1579">
        <ele>136.64</ele>
        <time>2011-09-21T09:07:55Z</time>
      </trkpt>
      <trkpt lat="48.22018" lon="-3.15808">
        <ele>135.2</ele>
        <time>2011-09-21T09:08:10Z</time>
      </trkpt>
      <trkpt lat="48.22012" lon="-3.1583">
        <ele>133.28</ele>
        <time>2011-09-21T09:08:28Z</time>
      </trkpt>
      <trkpt lat="48.22002" lon="-3.15854">
        <ele>131.36</ele>
        <time>2011-09-21T09:08:42Z</time>
      </trkpt>
      <trkpt lat="48.21997" lon="-3.15873">
        <ele>129.92</ele>
        <time>2011-09-21T09:08:55Z</time>
      </trkpt>
      <trkpt lat="48.21992" lon="-3.15896">
        <ele>127.99</ele>
        <time>2011-09-21T09:09:09Z</time>
      </trkpt>
      <trkpt lat="48.21989" lon="-3.15913">
        <ele>126.55</ele>
        <time>2011-09-21T09:09:21Z</time>
      </trkpt>
      <trkpt lat="48.21984" lon="-3.15935">
        <ele>125.59</ele>
        <time>2011-09-21T09:09:32Z</time>
      </trkpt>
      <trkpt lat="48.2198" lon="-3.15935">
        <ele>127.51</ele>
        <time>2011-09-21T09:09:46Z</time>
      </trkpt>
      <trkpt lat="48.21975" lon="-3.1593">
        <ele>128.47</ele>
        <time>2011-09-21T09:09:57Z</time>
      </trkpt>
      <trkpt lat="48.21974" lon="-3.15928">
        <ele>130.88</ele>
        <time>2011-09-21T09:10:06Z</time>
      </trkpt>
      <trkpt lat="48.21973" lon="-3.15921">
        <ele>132.32</ele>
        <time>2011-09-21T09:10:15Z</time>
      </trkpt>
      <trkpt lat="48.21974" lon="-3.15911">
        <ele>133.76</ele>
        <time>2011-09-21T09:10:23Z</time>
      </trkpt>
      <trkpt lat="48.21972" lon="-3.15901">
        <ele>134.72</ele>
        <time>2011-09-21T09:10:35Z</time>
      </trkpt>
      <trkpt lat="48.21968" lon="-3.15894">
        <ele>136.16</ele>
        <time>2011-09-21T09:10:45Z</time>
      </trkpt>
      <trkpt lat="48.21966" lon="-3.15881">
        <ele>137.61</ele>
        <time>2011-09-21T09:10:54Z</time>
      </trkpt>
      <trkpt lat="48.21965" lon="-3.15872">
        <ele>138.57</ele>
        <time>2011-09-21T09:11:03Z</time>
      </trkpt>
      <trkpt lat="48.2196" lon="-3.15858">
        <ele>140.01</ele>
        <time>2011-09-21T09:11:12Z</time>
      </trkpt>
      <trkpt lat="48.21955" lon="-3.1585">
        <ele>141.93</ele>
        <time>2011-09-21T09:11:20Z</time>
      </trkpt>
      <trkpt lat="48.21948" lon="-3.15839">
        <ele>143.37</ele>
        <time>2011-09-21T09:11:31Z</time>
      </trkpt>
      <trkpt lat="48.21947" lon="-3.15836">
        <ele>143.85</ele>
        <time>2011-09-21T09:11:34Z</time>
      </trkpt>
      <trkpt lat="48.2194" lon="-3.15829">
        <ele>145.3</ele>
        <time>2011-09-21T09:11:45Z</time>
      </trkpt>
      <trkpt lat="48.21933" lon="-3.15823">
        <ele>147.22</ele>
        <time>2011-09-21T09:11:56Z</time>
      </trkpt>
      <trkpt lat="48.21927" lon="-3.15818">
        <ele>149.14</ele>
        <time>2011-09-21T09:12:07Z</time>
      </trkpt>
      <trkpt lat="48.21922" lon="-3.15814">
        <ele>150.58</ele>
        <time>2011-09-21T09:12:17Z</time>
      </trkpt>
      <trkpt lat="48.21914" lon="-3.15807">
        <ele>152.03</ele>
        <time>2011-09-21T09:12:28Z</time>
      </trkpt>
      <trkpt lat="48.21908" lon="-3.15802">
        <ele>152.99</ele>
        <time>2011-09-21T09:12:37Z</time>
      </trkpt>
      <trkpt lat="48.21904" lon="-3.15796">
        <ele>154.43</ele>
        <time>2011-09-21T09:12:46Z</time>
      </trkpt>
      <trkpt lat="48.21898" lon="-3.15792">
        <ele>156.83</ele>
        <time>2011-09-21T09:12:56Z</time>
      </trkpt>
      <trkpt lat="48.21894" lon="-3.15788">
        <ele>157.79</ele>
        <time>2011-09-21T09:13:06Z</time>
      </trkpt>
      <trkpt lat="48.21886" lon="-3.15784">
        <ele>159.24</ele>
        <time>2011-09-21T09:13:17Z</time>
      </trkpt>
      <trkpt lat="48.2188" lon="-3.1578">
        <ele>161.16</ele>
        <time>2011-09-21T09:13:28Z</time>
      </trkpt>
      <trkpt lat="48.21875" lon="-3.15778">
        <ele>163.08</ele>
        <time>2011-09-21T09:13:38Z</time>
      </trkpt>
      <trkpt lat="48.2187" lon="-3.15775">
        <ele>165</ele>
        <time>2011-09-21T09:13:47Z</time>
      </trkpt>
      <trkpt lat="48.21867" lon="-3.15773">
        <ele>165.96</ele>
        <time>2011-09-21T09:13:57Z</time>
      </trkpt>
      <trkpt lat="48.21864" lon="-3.15769">
        <ele>168.37</ele>
        <time>2011-09-21T09:14:08Z</time>
      </trkpt>
      <trkpt lat="48.2186" lon="-3.15764">
        <ele>170.29</ele>
        <time>2011-09-21T09:14:21Z</time>
      </trkpt>
      <trkpt lat="48.21856" lon="-3.1576">
        <ele>171.73</ele>
        <time>2011-09-21T09:14:32Z</time>
      </trkpt>
      <trkpt lat="48.21851" lon="-3.15752">
        <ele>173.66</ele>
        <time>2011-09-21T09:14:49Z</time>
      </trkpt>
      <trkpt lat="48.21849" lon="-3.1575">
        <ele>174.62</ele>
        <time>2011-09-21T09:15:02Z</time>
      </trkpt>
      <trkpt lat="48.21846" lon="-3.15744">
        <ele>176.54</ele>
        <time>2011-09-21T09:15:12Z</time>
      </trkpt>
      <trkpt lat="48.21843" lon="-3.15743">
        <ele>177.98</ele>
        <time>2011-09-21T09:15:21Z</time>
      </trkpt>
      <trkpt lat="48.21839" lon="-3.15741">
        <ele>178.94</ele>
        <time>2011-09-21T09:15:30Z</time>
      </trkpt>
      <trkpt lat="48.21832" lon="-3.15738">
        <ele>179.9</ele>
        <time>2011-09-21T09:15:39Z</time>
      </trkpt>
      <trkpt lat="48.21824" lon="-3.15737">
        <ele>181.83</ele>
        <time>2011-09-21T09:15:49Z</time>
      </trkpt>
      <trkpt lat="48.21816" lon="-3.15735">
        <ele>182.79</ele>
        <time>2011-09-21T09:15:59Z</time>
      </trkpt>
      <trkpt lat="48.2181" lon="-3.15732">
        <ele>184.23</ele>
        <time>2011-09-21T09:16:08Z</time>
      </trkpt>
      <trkpt lat="48.21803" lon="-3.15732">
        <ele>185.67</ele>
        <time>2011-09-21T09:16:17Z</time>
      </trkpt>
      <trkpt lat="48.21797" lon="-3.15732">
        <ele>187.59</ele>
        <time>2011-09-21T09:16:26Z</time>
      </trkpt>
      <trkpt lat="48.2179" lon="-3.15735">
        <ele>188.08</ele>
        <time>2011-09-21T09:16:36Z</time>
      </trkpt>
      <trkpt lat="48.21784" lon="-3.15738">
        <ele>190</ele>
        <time>2011-09-21T09:16:45Z</time>
      </trkpt>
      <trkpt lat="48.21775" lon="-3.15743">
        <ele>191.44</ele>
        <time>2011-09-21T09:16:57Z</time>
      </trkpt>
      <trkpt lat="48.21767" lon="-3.15746">
        <ele>192.88</ele>
        <time>2011-09-21T09:17:08Z</time>
      </trkpt>
      <trkpt lat="48.21758" lon="-3.15747">
        <ele>194.32</ele>
        <time>2011-09-21T09:17:18Z</time>
      </trkpt>
      <trkpt lat="48.21755" lon="-3.15748">
        <ele>194.32</ele>
        <time>2011-09-21T09:17:22Z</time>
      </trkpt>
      <trkpt lat="48.21753" lon="-3.15749">
        <ele>194.32</ele>
        <time>2011-09-21T09:17:24Z</time>
      </trkpt>
      <trkpt lat="48.21743" lon="-3.15749">
        <ele>194.8</ele>
        <time>2011-09-21T09:17:35Z</time>
      </trkpt>
      <trkpt lat="48.21731" lon="-3.15752">
        <ele>195.28</ele>
        <time>2011-09-21T09:17:46Z</time>
      </trkpt>
      <trkpt lat="48.21726" lon="-3.15755">
        <ele>195.77</ele>
        <time>2011-09-21T09:17:51Z</time>
      </trkpt>
      <trkpt lat="48.2172" lon="-3.15759">
        <ele>194.8</ele>
        <time>2011-09-21T09:17:58Z</time>
      </trkpt>
      <trkpt lat="48.21718" lon="-3.15761">
        <ele>194.8</ele>
        <time>2011-09-21T09:18:00Z</time>
      </trkpt>
      <trkpt lat="48.2171" lon="-3.1577">
        <ele>192.88</ele>
        <time>2011-09-21T09:18:11Z</time>
      </trkpt>
      <trkpt lat="48.21705" lon="-3.15777">
        <ele>192.4</ele>
        <time>2011-09-21T09:18:21Z</time>
      </trkpt>
      <trkpt lat="48.21705" lon="-3.15777">
        <ele>193.36</ele>
        <time>2011-09-21T09:18:39Z</time>
      </trkpt>
      <trkpt lat="48.21705" lon="-3.15777">
        <ele>193.36</ele>
        <time>2011-09-21T09:18:51Z</time>
      </trkpt>
      <trkpt lat="48.21705" lon="-3.15776">
        <ele>192.4</ele>
        <time>2011-09-21T09:19:00Z</time>
      </trkpt>
      <trkpt lat="48.21705" lon="-3.15776">
        <ele>192.4</ele>
        <time>2011-09-21T09:19:25Z</time>
      </trkpt>
      <trkpt lat="48.21705" lon="-3.15776">
        <ele>193.36</ele>
        <time>2011-09-21T09:19:48Z</time>
      </trkpt>
      <trkpt lat="48.21705" lon="-3.15776">
        <ele>193.36</ele>
        <time>2011-09-21T09:20:08Z</time>
      </trkpt>
      <trkpt lat="48.21705" lon="-3.15776">
        <ele>192.88</ele>
        <time>2011-09-21T09:20:36Z</time>
      </trkpt>
      <trkpt lat="48.21705" lon="-3.15776">
        <ele>193.36</ele>
        <time>2011-09-21T09:21:00Z</time>
      </trkpt>
      <trkpt lat="48.21705" lon="-3.15776">
        <ele>193.36</ele>
        <time>2011-09-21T09:21:21Z</time>
      </trkpt>
      <trkpt lat="48.21705" lon="-3.15776">
        <ele>194.32</ele>
        <time>2011-09-21T09:21:40Z</time>
      </trkpt>
      <trkpt lat="48.21705" lon="-3.15776">
        <ele>194.32</ele>
        <time>2011-09-21T09:21:56Z</time>
      </trkpt>
      <trkpt lat="48.21704" lon="-3.15775">
        <ele>193.84</ele>
        <time>2011-09-21T09:22:06Z</time>
      </trkpt>
      <trkpt lat="48.21704" lon="-3.15775">
        <ele>194.32</ele>
        <time>2011-09-21T09:22:32Z</time>
      </trkpt>
      <trkpt lat="48.21704" lon="-3.15775">
        <ele>194.32</ele>
        <time>2011-09-21T09:22:54Z</time>
      </trkpt>
      <trkpt lat="48.21704" lon="-3.15776">
        <ele>194.32</ele>
        <time>2011-09-21T09:23:21Z</time>
      </trkpt>
      <trkpt lat="48.21704" lon="-3.15776">
        <ele>194.32</ele>
        <time>2011-09-21T09:23:47Z</time>
      </trkpt>
      <trkpt lat="48.21705" lon="-3.15776">
        <ele>194.32</ele>
        <time>2011-09-21T09:24:13Z</time>
      </trkpt>
      <trkpt lat="48.21705" lon="-3.15776">
        <ele>194.32</ele>
        <time>2011-09-21T09:24:39Z</time>
      </trkpt>
      <trkpt lat="48.21705" lon="-3.15776">
        <ele>194.8</ele>
        <time>2011-09-21T09:25:04Z</time>
      </trkpt>
      <trkpt lat="48.21705" lon="-3.15776">
        <ele>194.8</ele>
        <time>2011-09-21T09:25:32Z</time>
      </trkpt>
      <trkpt lat="48.21705" lon="-3.15776">
        <ele>194.8</ele>
        <time>2011-09-21T09:25:54Z</time>
      </trkpt>
      <trkpt lat="48.21705" lon="-3.15776">
        <ele>195.28</ele>
        <time>2011-09-21T09:26:21Z</time>
      </trkpt>
      <trkpt lat="48.21705" lon="-3.15776">
        <ele>195.28</ele>
        <time>2011-09-21T09:26:45Z</time>
      </trkpt>
      <trkpt lat="48.21705" lon="-3.15776">
        <ele>195.77</ele>
        <time>2011-09-21T09:27:08Z</time>
      </trkpt>
      <trkpt lat="48.21705" lon="-3.15776">
        <ele>195.77</ele>
        <time>2011-09-21T09:27:28Z</time>
      </trkpt>
      <trkpt lat="48.21705" lon="-3.15776">
        <ele>195.77</ele>
        <time>2011-09-21T09:27:49Z</time>
      </trkpt>
      <trkpt lat="48.21705" lon="-3.15776">
        <ele>195.77</ele>
        <time>2011-09-21T09:28:09Z</time>
      </trkpt>
      <trkpt lat="48.21705" lon="-3.15776">
        <ele>196.25</ele>
        <time>2011-09-21T09:28:28Z</time>
      </trkpt>
      <trkpt lat="48.21705" lon="-3.15776">
        <ele>195.77</ele>
        <time>2011-09-21T09:28:53Z</time>
      </trkpt>
      <trkpt lat="48.21705" lon="-3.15776">
        <ele>196.25</ele>
        <time>2011-09-21T09:29:17Z</time>
      </trkpt>
      <trkpt lat="48.21705" lon="-3.15776">
        <ele>196.73</ele>
        <time>2011-09-21T09:29:41Z</time>
      </trkpt>
      <trkpt lat="48.21706" lon="-3.15777">
        <ele>197.21</ele>
        <time>2011-09-21T09:29:57Z</time>
      </trkpt>
      <trkpt lat="48.21706" lon="-3.15776">
        <ele>197.69</ele>
        <time>2011-09-21T09:30:07Z</time>
      </trkpt>
      <trkpt lat="48.21706" lon="-3.15776">
        <ele>197.69</ele>
        <time>2011-09-21T09:30:23Z</time>
      </trkpt>
      <trkpt lat="48.21706" lon="-3.15776">
        <ele>198.17</ele>
        <time>2011-09-21T09:30:37Z</time>
      </trkpt>
      <trkpt lat="48.21706" lon="-3.15776">
        <ele>197.69</ele>
        <time>2011-09-21T09:30:52Z</time>
      </trkpt>
      <trkpt lat="48.21706" lon="-3.15776">
        <ele>198.17</ele>
        <time>2011-09-21T09:31:12Z</time>
      </trkpt>
      <trkpt lat="48.21701" lon="-3.15779">
        <ele>197.21</ele>
        <time>2011-09-21T09:31:31Z</time>
      </trkpt>
      <trkpt lat="48.21699" lon="-3.15776">
        <ele>197.21</ele>
        <time>2011-09-21T09:31:34Z</time>
      </trkpt>
      <trkpt lat="48.21698" lon="-3.15765">
        <ele>198.65</ele>
        <time>2011-09-21T09:31:45Z</time>
      </trkpt>
      <trkpt lat="48.21695" lon="-3.15756">
        <ele>200.09</ele>
        <time>2011-09-21T09:31:55Z</time>
      </trkpt>
      <trkpt lat="48.2169" lon="-3.15745">
        <ele>200.09</ele>
        <time>2011-09-21T09:32:07Z</time>
      </trkpt>
      <trkpt lat="48.21687" lon="-3.15735">
        <ele>201.05</ele>
        <time>2011-09-21T09:32:16Z</time>
      </trkpt>
      <trkpt lat="48.21681" lon="-3.15725">
        <ele>202.01</ele>
        <time>2011-09-21T09:32:26Z</time>
      </trkpt>
      <trkpt lat="48.21677" lon="-3.15716">
        <ele>202.49</ele>
        <time>2011-09-21T09:32:35Z</time>
      </trkpt>
      <trkpt lat="48.21675" lon="-3.15713">
        <ele>202.49</ele>
        <time>2011-09-21T09:32:38Z</time>
      </trkpt>
      <trkpt lat="48.21672" lon="-3.1571">
        <ele>202.98</ele>
        <time>2011-09-21T09:32:42Z</time>
      </trkpt>
      <trkpt lat="48.21667" lon="-3.15698">
        <ele>203.46</ele>
        <time>2011-09-21T09:32:52Z</time>
      </trkpt>
      <trkpt lat="48.21668" lon="-3.15688">
        <ele>204.42</ele>
        <time>2011-09-21T09:33:01Z</time>
      </trkpt>
      <trkpt lat="48.21667" lon="-3.15676">
        <ele>205.38</ele>
        <time>2011-09-21T09:33:11Z</time>
      </trkpt>
      <trkpt lat="48.21669" lon="-3.15664">
        <ele>206.34</ele>
        <time>2011-09-21T09:33:22Z</time>
      </trkpt>
      <trkpt lat="48.21669" lon="-3.15663">
        <ele>206.34</ele>
        <time>2011-09-21T09:33:34Z</time>
      </trkpt>
      <trkpt lat="48.21669" lon="-3.15658">
        <ele>206.34</ele>
        <time>2011-09-21T09:33:49Z</time>
      </trkpt>
      <trkpt lat="48.21671" lon="-3.15648">
        <ele>206.82</ele>
        <time>2011-09-21T09:33:59Z</time>
      </trkpt>
      <trkpt lat="48.21676" lon="-3.15639">
        <ele>207.78</ele>
        <time>2011-09-21T09:34:09Z</time>
      </trkpt>
      <trkpt lat="48.21677" lon="-3.15626">
        <ele>207.78</ele>
        <time>2011-09-21T09:34:19Z</time>
      </trkpt>
      <trkpt lat="48.21678" lon="-3.15614">
        <ele>207.78</ele>
        <time>2011-09-21T09:34:29Z</time>
      </trkpt>
      <trkpt lat="48.21683" lon="-3.15602">
        <ele>207.3</ele>
        <time>2011-09-21T09:34:39Z</time>
      </trkpt>
      <trkpt lat="48.21687" lon="-3.1559">
        <ele>207.78</ele>
        <time>2011-09-21T09:34:48Z</time>
      </trkpt>
      <trkpt lat="48.21692" lon="-3.15573">
        <ele>207.78</ele>
        <time>2011-09-21T09:35:00Z</time>
      </trkpt>
      <trkpt lat="48.21697" lon="-3.15558">
        <ele>208.26</ele>
        <time>2011-09-21T09:35:12Z</time>
      </trkpt>
      <trkpt lat="48.21699" lon="-3.15543">
        <ele>209.22</ele>
        <time>2011-09-21T09:35:23Z</time>
      </trkpt>
      <trkpt lat="48.21702" lon="-3.15528">
        <ele>210.19</ele>
        <time>2011-09-21T09:35:34Z</time>
      </trkpt>
      <trkpt lat="48.21702" lon="-3.15526">
        <ele>210.19</ele>
        <time>2011-09-21T09:35:35Z</time>
      </trkpt>
      <trkpt lat="48.21704" lon="-3.15517">
        <ele>211.15</ele>
        <time>2011-09-21T09:35:43Z</time>
      </trkpt>
      <trkpt lat="48.21706" lon="-3.15507">
        <ele>211.63</ele>
        <time>2011-09-21T09:35:51Z</time>
      </trkpt>
      <trkpt lat="48.21708" lon="-3.15494">
        <ele>212.59</ele>
        <time>2011-09-21T09:36:01Z</time>
      </trkpt>
      <trkpt lat="48.21708" lon="-3.15488">
        <ele>213.55</ele>
        <time>2011-09-21T09:36:06Z</time>
      </trkpt>
      <trkpt lat="48.21711" lon="-3.15477">
        <ele>214.51</ele>
        <time>2011-09-21T09:36:16Z</time>
      </trkpt>
      <trkpt lat="48.21713" lon="-3.15467">
        <ele>215.95</ele>
        <time>2011-09-21T09:36:26Z</time>
      </trkpt>
      <trkpt lat="48.21715" lon="-3.15456">
        <ele>217.4</ele>
        <time>2011-09-21T09:36:36Z</time>
      </trkpt>
      <trkpt lat="48.21719" lon="-3.15448">
        <ele>219.32</ele>
        <time>2011-09-21T09:36:47Z</time>
      </trkpt>
      <trkpt lat="48.21723" lon="-3.1544">
        <ele>220.28</ele>
        <time>2011-09-21T09:36:57Z</time>
      </trkpt>
      <trkpt lat="48.21723" lon="-3.15434">
        <ele>221.24</ele>
        <time>2011-09-21T09:37:07Z</time>
      </trkpt>
      <trkpt lat="48.21723" lon="-3.15433">
        <ele>221.24</ele>
        <time>2011-09-21T09:37:26Z</time>
      </trkpt>
      <trkpt lat="48.21723" lon="-3.15433">
        <ele>221.72</ele>
        <time>2011-09-21T09:37:47Z</time>
      </trkpt>
      <trkpt lat="48.21727" lon="-3.15425">
        <ele>221.24</ele>
        <time>2011-09-21T09:37:56Z</time>
      </trkpt>
      <trkpt lat="48.2173" lon="-3.15414">
        <ele>221.24</ele>
        <time>2011-09-21T09:38:06Z</time>
      </trkpt>
      <trkpt lat="48.2173" lon="-3.1541">
        <ele>221.24</ele>
        <time>2011-09-21T09:38:09Z</time>
      </trkpt>
      <trkpt lat="48.2173" lon="-3.15406">
        <ele>220.76</ele>
        <time>2011-09-21T09:38:11Z</time>
      </trkpt>
      <trkpt lat="48.2173" lon="-3.15401">
        <ele>221.24</ele>
        <time>2011-09-21T09:38:14Z</time>
      </trkpt>
      <trkpt lat="48.21731" lon="-3.15395">
        <ele>221.24</ele>
        <time>2011-09-21T09:38:19Z</time>
      </trkpt>
      <trkpt lat="48.21728" lon="-3.1538">
        <ele>221.72</ele>
        <time>2011-09-21T09:38:30Z</time>
      </trkpt>
      <trkpt lat="48.21725" lon="-3.15369">
        <ele>222.2</ele>
        <time>2011-09-21T09:38:37Z</time>
      </trkpt>
      <trkpt lat="48.21722" lon="-3.15364">
        <ele>222.68</ele>
        <time>2011-09-21T09:38:43Z</time>
      </trkpt>
      <trkpt lat="48.21722" lon="-3.15358">
        <ele>220.76</ele>
        <time>2011-09-21T09:38:48Z</time>
      </trkpt>
      <trkpt lat="48.21726" lon="-3.1534">
        <ele>220.28</ele>
        <time>2011-09-21T09:38:59Z</time>
      </trkpt>
      <trkpt lat="48.21725" lon="-3.15335">
        <ele>220.76</ele>
        <time>2011-09-21T09:39:02Z</time>
      </trkpt>
      <trkpt lat="48.21726" lon="-3.15329">
        <ele>219.8</ele>
        <time>2011-09-21T09:39:06Z</time>
      </trkpt>
      <trkpt lat="48.21727" lon="-3.15323">
        <ele>220.28</ele>
        <time>2011-09-21T09:39:10Z</time>
      </trkpt>
      <trkpt lat="48.21732" lon="-3.15307">
        <ele>220.76</ele>
        <time>2011-09-21T09:39:22Z</time>
      </trkpt>
      <trkpt lat="48.21737" lon="-3.15291">
        <ele>221.72</ele>
        <time>2011-09-21T09:39:34Z</time>
      </trkpt>
      <trkpt lat="48.21738" lon="-3.15276">
        <ele>222.2</ele>
        <time>2011-09-21T09:39:44Z</time>
      </trkpt>
      <trkpt lat="48.21736" lon="-3.15259">
        <ele>222.2</ele>
        <time>2011-09-21T09:39:55Z</time>
      </trkpt>
      <trkpt lat="48.21737" lon="-3.15256">
        <ele>222.2</ele>
        <time>2011-09-21T09:39:57Z</time>
      </trkpt>
      <trkpt lat="48.21737" lon="-3.1525">
        <ele>222.2</ele>
        <time>2011-09-21T09:40:01Z</time>
      </trkpt>
      <trkpt lat="48.21736" lon="-3.15242">
        <ele>222.2</ele>
        <time>2011-09-21T09:40:06Z</time>
      </trkpt>
      <trkpt lat="48.21736" lon="-3.15232">
        <ele>221.72</ele>
        <time>2011-09-21T09:40:12Z</time>
      </trkpt>
      <trkpt lat="48.21739" lon="-3.15221">
        <ele>221.24</ele>
        <time>2011-09-21T09:40:21Z</time>
      </trkpt>
      <trkpt lat="48.21741" lon="-3.15204">
        <ele>221.24</ele>
        <time>2011-09-21T09:40:34Z</time>
      </trkpt>
      <trkpt lat="48.21744" lon="-3.15191">
        <ele>220.28</ele>
        <time>2011-09-21T09:40:45Z</time>
      </trkpt>
      <trkpt lat="48.21745" lon="-3.15177">
        <ele>219.32</ele>
        <time>2011-09-21T09:40:55Z</time>
      </trkpt>
      <trkpt lat="48.21747" lon="-3.1516">
        <ele>218.84</ele>
        <time>2011-09-21T09:41:06Z</time>
      </trkpt>
      <trkpt lat="48.21748" lon="-3.15145">
        <ele>217.88</ele>
        <time>2011-09-21T09:41:16Z</time>
      </trkpt>
      <trkpt lat="48.2175" lon="-3.15137">
        <ele>217.88</ele>
        <time>2011-09-21T09:41:22Z</time>
      </trkpt>
      <trkpt lat="48.2175" lon="-3.15132">
        <ele>217.88</ele>
        <time>2011-09-21T09:41:25Z</time>
      </trkpt>
      <trkpt lat="48.21754" lon="-3.15117">
        <ele>216.43</ele>
        <time>2011-09-21T09:41:36Z</time>
      </trkpt>
      <trkpt lat="48.21756" lon="-3.15108">
        <ele>215.95</ele>
        <time>2011-09-21T09:41:42Z</time>
      </trkpt>
      <trkpt lat="48.21756" lon="-3.15095">
        <ele>215.95</ele>
        <time>2011-09-21T09:41:51Z</time>
      </trkpt>
      <trkpt lat="48.21758" lon="-3.15077">
        <ele>214.51</ele>
        <time>2011-09-21T09:42:03Z</time>
      </trkpt>
      <trkpt lat="48.21759" lon="-3.15062">
        <ele>214.03</ele>
        <time>2011-09-21T09:42:13Z</time>
      </trkpt>
      <trkpt lat="48.21758" lon="-3.15055">
        <ele>213.55</ele>
        <time>2011-09-21T09:42:18Z</time>
      </trkpt>
      <trkpt lat="48.21758" lon="-3.15051">
        <ele>213.07</ele>
        <time>2011-09-21T09:42:20Z</time>
      </trkpt>
      <trkpt lat="48.21757" lon="-3.1504">
        <ele>212.59</ele>
        <time>2011-09-21T09:42:28Z</time>
      </trkpt>
      <trkpt lat="48.21756" lon="-3.15026">
        <ele>211.15</ele>
        <time>2011-09-21T09:42:39Z</time>
      </trkpt>
      <trkpt lat="48.21757" lon="-3.15022">
        <ele>210.67</ele>
        <time>2011-09-21T09:42:42Z</time>
      </trkpt>
      <trkpt lat="48.21755" lon="-3.15008">
        <ele>209.7</ele>
        <time>2011-09-21T09:42:52Z</time>
      </trkpt>
      <trkpt lat="48.21755" lon="-3.14997">
        <ele>208.74</ele>
        <time>2011-09-21T09:43:00Z</time>
      </trkpt>
      <trkpt lat="48.21755" lon="-3.14983">
        <ele>207.78</ele>
        <time>2011-09-21T09:43:11Z</time>
      </trkpt>
      <trkpt lat="48.21754" lon="-3.14972">
        <ele>206.34</ele>
        <time>2011-09-21T09:43:23Z</time>
      </trkpt>
      <trkpt lat="48.21752" lon="-3.14962">
        <ele>205.86</ele>
        <time>2011-09-21T09:43:30Z</time>
      </trkpt>
      <trkpt lat="48.21753" lon="-3.1495">
        <ele>205.86</ele>
        <time>2011-09-21T09:43:39Z</time>
      </trkpt>
      <trkpt lat="48.21757" lon="-3.14938">
        <ele>206.82</ele>
        <time>2011-09-21T09:43:50Z</time>
      </trkpt>
      <trkpt lat="48.21759" lon="-3.14926">
        <ele>207.3</ele>
        <time>2011-09-21T09:44:00Z</time>
      </trkpt>
      <trkpt lat="48.21761" lon="-3.14912">
        <ele>208.26</ele>
        <time>2011-09-21T09:44:12Z</time>
      </trkpt>
      <trkpt lat="48.21763" lon="-3.149">
        <ele>209.7</ele>
        <time>2011-09-21T09:44:22Z</time>
      </trkpt>
      <trkpt lat="48.21765" lon="-3.1489">
        <ele>211.15</ele>
        <time>2011-09-21T09:44:32Z</time>
      </trkpt>
      <trkpt lat="48.21766" lon="-3.14877">
        <ele>212.11</ele>
        <time>2011-09-21T09:44:41Z</time>
      </trkpt>
      <trkpt lat="48.21768" lon="-3.14863">
        <ele>213.07</ele>
        <time>2011-09-21T09:44:53Z</time>
      </trkpt>
      <trkpt lat="48.21769" lon="-3.14851">
        <ele>214.51</ele>
        <time>2011-09-21T09:45:03Z</time>
      </trkpt>
      <trkpt lat="48.21768" lon="-3.14836">
        <ele>215.95</ele>
        <time>2011-09-21T09:45:13Z</time>
      </trkpt>
      <trkpt lat="48.2177" lon="-3.14823">
        <ele>215.95</ele>
        <time>2011-09-21T09:45:23Z</time>
      </trkpt>
      <trkpt lat="48.2177" lon="-3.14811">
        <ele>216.91</ele>
        <time>2011-09-21T09:45:32Z</time>
      </trkpt>
      <trkpt lat="48.2177" lon="-3.14799">
        <ele>218.36</ele>
        <time>2011-09-21T09:45:41Z</time>
      </trkpt>
      <trkpt lat="48.2177" lon="-3.14784">
        <ele>219.32</ele>
        <time>2011-09-21T09:45:52Z</time>
      </trkpt>
      <trkpt lat="48.21771" lon="-3.14776">
        <ele>219.8</ele>
        <time>2011-09-21T09:45:58Z</time>
      </trkpt>
      <trkpt lat="48.21772" lon="-3.14763">
        <ele>220.76</ele>
        <time>2011-09-21T09:46:08Z</time>
      </trkpt>
      <trkpt lat="48.21774" lon="-3.14752">
        <ele>221.72</ele>
        <time>2011-09-21T09:46:17Z</time>
      </trkpt>
      <trkpt lat="48.21777" lon="-3.14741">
        <ele>223.64</ele>
        <time>2011-09-21T09:46:27Z</time>
      </trkpt>
      <trkpt lat="48.21779" lon="-3.14735">
        <ele>224.12</ele>
        <time>2011-09-21T09:46:33Z</time>
      </trkpt>
      <trkpt lat="48.21784" lon="-3.14727">
        <ele>225.09</ele>
        <time>2011-09-21T09:46:43Z</time>
      </trkpt>
      <trkpt lat="48.21785" lon="-3.14723">
        <ele>226.05</ele>
        <time>2011-09-21T09:46:53Z</time>
      </trkpt>
      <trkpt lat="48.21785" lon="-3.14723">
        <ele>226.05</ele>
        <time>2011-09-21T09:47:14Z</time>
      </trkpt>
      <trkpt lat="48.21787" lon="-3.14719">
        <ele>226.53</ele>
        <time>2011-09-21T09:47:35Z</time>
      </trkpt>
      <trkpt lat="48.21787" lon="-3.14716">
        <ele>226.53</ele>
        <time>2011-09-21T09:47:37Z</time>
      </trkpt>
      <trkpt lat="48.2179" lon="-3.14704">
        <ele>227.97</ele>
        <time>2011-09-21T09:47:46Z</time>
      </trkpt>
      <trkpt lat="48.2179" lon="-3.14695">
        <ele>227.97</ele>
        <time>2011-09-21T09:47:53Z</time>
      </trkpt>
      <trkpt lat="48.21791" lon="-3.1468">
        <ele>228.45</ele>
        <time>2011-09-21T09:48:04Z</time>
      </trkpt>
      <trkpt lat="48.21793" lon="-3.1467">
        <ele>229.41</ele>
        <time>2011-09-21T09:48:14Z</time>
      </trkpt>
      <trkpt lat="48.21792" lon="-3.14668">
        <ele>229.89</ele>
        <time>2011-09-21T09:48:30Z</time>
      </trkpt>
      <trkpt lat="48.21795" lon="-3.14664">
        <ele>230.85</ele>
        <time>2011-09-21T09:48:43Z</time>
      </trkpt>
      <trkpt lat="48.21796" lon="-3.14658">
        <ele>231.33</ele>
        <time>2011-09-21T09:48:48Z</time>
      </trkpt>
      <trkpt lat="48.21797" lon="-3.1465">
        <ele>232.78</ele>
        <time>2011-09-21T09:48:58Z</time>
      </trkpt>
      <trkpt lat="48.21798" lon="-3.14646">
        <ele>233.26</ele>
        <time>2011-09-21T09:49:09Z</time>
      </trkpt>
      <trkpt lat="48.21798" lon="-3.14636">
        <ele>234.22</ele>
        <time>2011-09-21T09:49:22Z</time>
      </trkpt>
      <trkpt lat="48.21799" lon="-3.14626">
        <ele>233.74</ele>
        <time>2011-09-21T09:49:35Z</time>
      </trkpt>
      <trkpt lat="48.218" lon="-3.14619">
        <ele>234.22</ele>
        <time>2011-09-21T09:49:45Z</time>
      </trkpt>
      <trkpt lat="48.218" lon="-3.14614">
        <ele>234.7</ele>
        <time>2011-09-21T09:49:59Z</time>
      </trkpt>
      <trkpt lat="48.21799" lon="-3.14614">
        <ele>234.7</ele>
        <time>2011-09-21T09:50:15Z</time>
      </trkpt>
      <trkpt lat="48.21799" lon="-3.14609">
        <ele>235.18</ele>
        <time>2011-09-21T09:50:28Z</time>
      </trkpt>
      <trkpt lat="48.21798" lon="-3.146">
        <ele>235.18</ele>
        <time>2011-09-21T09:50:43Z</time>
      </trkpt>
      <trkpt lat="48.21802" lon="-3.14591">
        <ele>235.66</ele>
        <time>2011-09-21T09:50:53Z</time>
      </trkpt>
      <trkpt lat="48.21807" lon="-3.14582">
        <ele>237.1</ele>
        <time>2011-09-21T09:51:03Z</time>
      </trkpt>
      <trkpt lat="48.21808" lon="-3.14571">
        <ele>238.06</ele>
        <time>2011-09-21T09:51:13Z</time>
      </trkpt>
      <trkpt lat="48.21808" lon="-3.14563">
        <ele>236.62</ele>
        <time>2011-09-21T09:51:21Z</time>
      </trkpt>
      <trkpt lat="48.21809" lon="-3.14553">
        <ele>236.14</ele>
        <time>2011-09-21T09:51:28Z</time>
      </trkpt>
      <trkpt lat="48.21812" lon="-3.14543">
        <ele>237.1</ele>
        <time>2011-09-21T09:51:36Z</time>
      </trkpt>
      <trkpt lat="48.21807" lon="-3.14534">
        <ele>235.18</ele>
        <time>2011-09-21T09:51:47Z</time>
      </trkpt>
      <trkpt lat="48.21804" lon="-3.14524">
        <ele>233.26</ele>
        <time>2011-09-21T09:51:55Z</time>
      </trkpt>
      <trkpt lat="48.218" lon="-3.14509">
        <ele>230.85</ele>
        <time>2011-09-21T09:52:07Z</time>
      </trkpt>
      <trkpt lat="48.21798" lon="-3.14493">
        <ele>228.93</ele>
        <time>2011-09-21T09:52:18Z</time>
      </trkpt>
      <trkpt lat="48.21797" lon="-3.14489">
        <ele>227.97</ele>
        <time>2011-09-21T09:52:21Z</time>
      </trkpt>
      <trkpt lat="48.21797" lon="-3.14477">
        <ele>227.97</ele>
        <time>2011-09-21T09:52:28Z</time>
      </trkpt>
      <trkpt lat="48.21796" lon="-3.14462">
        <ele>226.05</ele>
        <time>2011-09-21T09:52:40Z</time>
      </trkpt>
      <trkpt lat="48.21796" lon="-3.14454">
        <ele>226.05</ele>
        <time>2011-09-21T09:52:46Z</time>
      </trkpt>
      <trkpt lat="48.21797" lon="-3.14434">
        <ele>224.61</ele>
        <time>2011-09-21T09:52:58Z</time>
      </trkpt>
      <trkpt lat="48.21797" lon="-3.14433">
        <ele>224.61</ele>
        <time>2011-09-21T09:52:59Z</time>
      </trkpt>
      <trkpt lat="48.21799" lon="-3.14428">
        <ele>224.61</ele>
        <time>2011-09-21T09:53:02Z</time>
      </trkpt>
      <trkpt lat="48.21802" lon="-3.14415">
        <ele>226.05</ele>
        <time>2011-09-21T09:53:13Z</time>
      </trkpt>
      <trkpt lat="48.218" lon="-3.14412">
        <ele>226.05</ele>
        <time>2011-09-21T09:53:16Z</time>
      </trkpt>
      <trkpt lat="48.21795" lon="-3.14399">
        <ele>222.68</ele>
        <time>2011-09-21T09:53:28Z</time>
      </trkpt>
      <trkpt lat="48.21798" lon="-3.14384">
        <ele>221.72</ele>
        <time>2011-09-21T09:53:38Z</time>
      </trkpt>
      <trkpt lat="48.218" lon="-3.14377">
        <ele>221.72</ele>
        <time>2011-09-21T09:53:44Z</time>
      </trkpt>
      <trkpt lat="48.21808" lon="-3.14365">
        <ele>222.2</ele>
        <time>2011-09-21T09:53:55Z</time>
      </trkpt>
      <trkpt lat="48.21808" lon="-3.14355">
        <ele>221.24</ele>
        <time>2011-09-21T09:54:01Z</time>
      </trkpt>
      <trkpt lat="48.21807" lon="-3.14338">
        <ele>219.8</ele>
        <time>2011-09-21T09:54:12Z</time>
      </trkpt>
      <trkpt lat="48.2181" lon="-3.14327">
        <ele>219.8</ele>
        <time>2011-09-21T09:54:20Z</time>
      </trkpt>
      <trkpt lat="48.21812" lon="-3.14308">
        <ele>218.84</ele>
        <time>2011-09-21T09:54:31Z</time>
      </trkpt>
      <trkpt lat="48.21809" lon="-3.1429">
        <ele>217.88</ele>
        <time>2011-09-21T09:54:44Z</time>
      </trkpt>
      <trkpt lat="48.21812" lon="-3.14275">
        <ele>218.84</ele>
        <time>2011-09-21T09:54:56Z</time>
      </trkpt>
      <trkpt lat="48.21809" lon="-3.14264">
        <ele>218.36</ele>
        <time>2011-09-21T09:55:07Z</time>
      </trkpt>
      <trkpt lat="48.21807" lon="-3.14252">
        <ele>217.4</ele>
        <time>2011-09-21T09:55:16Z</time>
      </trkpt>
      <trkpt lat="48.21804" lon="-3.14239">
        <ele>215.95</ele>
        <time>2011-09-21T09:55:27Z</time>
      </trkpt>
      <trkpt lat="48.21803" lon="-3.14229">
        <ele>214.99</ele>
        <time>2011-09-21T09:55:37Z</time>
      </trkpt>
      <trkpt lat="48.21803" lon="-3.14228">
        <ele>214.51</ele>
        <time>2011-09-21T09:55:39Z</time>
      </trkpt>
      <trkpt lat="48.21802" lon="-3.14215">
        <ele>213.55</ele>
        <time>2011-09-21T09:55:49Z</time>
      </trkpt>
      <trkpt lat="48.21806" lon="-3.14198">
        <ele>212.11</ele>
        <time>2011-09-21T09:56:01Z</time>
      </trkpt>
      <trkpt lat="48.21806" lon="-3.14184">
        <ele>210.67</ele>
        <time>2011-09-21T09:56:11Z</time>
      </trkpt>
      <trkpt lat="48.21808" lon="-3.14169">
        <ele>210.67</ele>
        <time>2011-09-21T09:56:21Z</time>
      </trkpt>
      <trkpt lat="48.2181" lon="-3.14151">
        <ele>210.19</ele>
        <time>2011-09-21T09:56:33Z</time>
      </trkpt>
      <trkpt lat="48.21811" lon="-3.14134">
        <ele>209.22</ele>
        <time>2011-09-21T09:56:44Z</time>
      </trkpt>
      <trkpt lat="48.21812" lon="-3.14117">
        <ele>209.22</ele>
        <time>2011-09-21T09:56:57Z</time>
      </trkpt>
      <trkpt lat="48.21815" lon="-3.14103">
        <ele>209.22</ele>
        <time>2011-09-21T09:57:10Z</time>
      </trkpt>
      <trkpt lat="48.21815" lon="-3.14097">
        <ele>209.22</ele>
        <time>2011-09-21T09:57:14Z</time>
      </trkpt>
      <trkpt lat="48.21817" lon="-3.14085">
        <ele>208.74</ele>
        <time>2011-09-21T09:57:25Z</time>
      </trkpt>
      <trkpt lat="48.21818" lon="-3.14067">
        <ele>208.26</ele>
        <time>2011-09-21T09:57:37Z</time>
      </trkpt>
      <trkpt lat="48.21824" lon="-3.14053">
        <ele>209.22</ele>
        <time>2011-09-21T09:57:47Z</time>
      </trkpt>
      <trkpt lat="48.21827" lon="-3.14038">
        <ele>208.26</ele>
        <time>2011-09-21T09:57:58Z</time>
      </trkpt>
      <trkpt lat="48.21828" lon="-3.14023">
        <ele>207.78</ele>
        <time>2011-09-21T09:58:08Z</time>
      </trkpt>
      <trkpt lat="48.21829" lon="-3.14007">
        <ele>207.3</ele>
        <time>2011-09-21T09:58:20Z</time>
      </trkpt>
      <trkpt lat="48.21829" lon="-3.13989">
        <ele>207.3</ele>
        <time>2011-09-21T09:58:33Z</time>
      </trkpt>
      <trkpt lat="48.21832" lon="-3.13972">
        <ele>207.3</ele>
        <time>2011-09-21T09:58:45Z</time>
      </trkpt>
      <trkpt lat="48.21837" lon="-3.13961">
        <ele>208.74</ele>
        <time>2011-09-21T09:58:56Z</time>
      </trkpt>
      <trkpt lat="48.21846" lon="-3.13954">
        <ele>210.67</ele>
        <time>2011-09-21T09:59:10Z</time>
      </trkpt>
      <trkpt lat="48.21848" lon="-3.13951">
        <ele>212.59</ele>
        <time>2011-09-21T09:59:23Z</time>
      </trkpt>
      <trkpt lat="48.21859" lon="-3.13939">
        <ele>214.99</ele>
        <time>2011-09-21T09:59:37Z</time>
      </trkpt>
      <trkpt lat="48.21868" lon="-3.1393">
        <ele>215.95</ele>
        <time>2011-09-21T09:59:49Z</time>
      </trkpt>
      <trkpt lat="48.21876" lon="-3.13917">
        <ele>217.4</ele>
        <time>2011-09-21T10:00:02Z</time>
      </trkpt>
      <trkpt lat="48.21877" lon="-3.13914">
        <ele>217.88</ele>
        <time>2011-09-21T10:00:17Z</time>
      </trkpt>
      <trkpt lat="48.21882" lon="-3.13912">
        <ele>217.88</ele>
        <time>2011-09-21T10:00:31Z</time>
      </trkpt>
      <trkpt lat="48.21882" lon="-3.13911">
        <ele>217.88</ele>
        <time>2011-09-21T10:00:45Z</time>
      </trkpt>
      <trkpt lat="48.21883" lon="-3.13909">
        <ele>217.88</ele>
        <time>2011-09-21T10:01:03Z</time>
      </trkpt>
      <trkpt lat="48.21884" lon="-3.13904">
        <ele>217.88</ele>
        <time>2011-09-21T10:01:25Z</time>
      </trkpt>
      <trkpt lat="48.21886" lon="-3.13879">
        <ele>218.36</ele>
        <time>2011-09-21T10:01:37Z</time>
      </trkpt>
      <trkpt lat="48.2189" lon="-3.13872">
        <ele>219.32</ele>
        <time>2011-09-21T10:01:49Z</time>
      </trkpt>
      <trkpt lat="48.21895" lon="-3.1386">
        <ele>220.28</ele>
        <time>2011-09-21T10:02:02Z</time>
      </trkpt>
      <trkpt lat="48.219" lon="-3.13847">
        <ele>221.72</ele>
        <time>2011-09-21T10:02:12Z</time>
      </trkpt>
      <trkpt lat="48.21905" lon="-3.13836">
        <ele>222.68</ele>
        <time>2011-09-21T10:02:23Z</time>
      </trkpt>
      <trkpt lat="48.21911" lon="-3.13822">
        <ele>223.64</ele>
        <time>2011-09-21T10:02:33Z</time>
      </trkpt>
      <trkpt lat="48.21914" lon="-3.13812">
        <ele>224.12</ele>
        <time>2011-09-21T10:02:40Z</time>
      </trkpt>
      <trkpt lat="48.21916" lon="-3.13805">
        <ele>224.12</ele>
        <time>2011-09-21T10:02:45Z</time>
      </trkpt>
      <trkpt lat="48.21916" lon="-3.13789">
        <ele>225.09</ele>
        <time>2011-09-21T10:02:56Z</time>
      </trkpt>
      <trkpt lat="48.21919" lon="-3.13783">
        <ele>226.05</ele>
        <time>2011-09-21T10:03:06Z</time>
      </trkpt>
      <trkpt lat="48.21926" lon="-3.13776">
        <ele>226.53</ele>
        <time>2011-09-21T10:03:17Z</time>
      </trkpt>
      <trkpt lat="48.21932" lon="-3.13768">
        <ele>227.49</ele>
        <time>2011-09-21T10:03:26Z</time>
      </trkpt>
      <trkpt lat="48.21938" lon="-3.13759">
        <ele>227.97</ele>
        <time>2011-09-21T10:03:36Z</time>
      </trkpt>
      <trkpt lat="48.21942" lon="-3.13755">
        <ele>228.45</ele>
        <time>2011-09-21T10:03:40Z</time>
      </trkpt>
      <trkpt lat="48.21952" lon="-3.13748">
        <ele>229.89</ele>
        <time>2011-09-21T10:03:51Z</time>
      </trkpt>
      <trkpt lat="48.21962" lon="-3.13742">
        <ele>230.85</ele>
        <time>2011-09-21T10:04:03Z</time>
      </trkpt>
      <trkpt lat="48.21971" lon="-3.13732">
        <ele>232.3</ele>
        <time>2011-09-21T10:04:15Z</time>
      </trkpt>
      <trkpt lat="48.21978" lon="-3.13722">
        <ele>233.26</ele>
        <time>2011-09-21T10:04:25Z</time>
      </trkpt>
      <trkpt lat="48.21979" lon="-3.1372">
        <ele>233.26</ele>
        <time>2011-09-21T10:04:27Z</time>
      </trkpt>
      <trkpt lat="48.21978" lon="-3.13714">
        <ele>234.22</ele>
        <time>2011-09-21T10:04:32Z</time>
      </trkpt>
      <trkpt lat="48.21976" lon="-3.13706">
        <ele>233.26</ele>
        <time>2011-09-21T10:04:38Z</time>
      </trkpt>
      <trkpt lat="48.21976" lon="-3.13701">
        <ele>233.74</ele>
        <time>2011-09-21T10:04:41Z</time>
      </trkpt>
      <trkpt lat="48.21974" lon="-3.13697">
        <ele>234.22</ele>
        <time>2011-09-21T10:04:44Z</time>
      </trkpt>
      <trkpt lat="48.21972" lon="-3.13679">
        <ele>234.22</ele>
        <time>2011-09-21T10:04:55Z</time>
      </trkpt>
      <trkpt lat="48.21971" lon="-3.13663">
        <ele>234.7</ele>
        <time>2011-09-21T10:05:05Z</time>
      </trkpt>
      <trkpt lat="48.21971" lon="-3.13658">
        <ele>234.7</ele>
        <time>2011-09-21T10:05:08Z</time>
      </trkpt>
      <trkpt lat="48.2197" lon="-3.1365">
        <ele>234.7</ele>
        <time>2011-09-21T10:05:13Z</time>
      </trkpt>
      <trkpt lat="48.21968" lon="-3.13646">
        <ele>234.7</ele>
        <time>2011-09-21T10:05:16Z</time>
      </trkpt>
      <trkpt lat="48.21966" lon="-3.13628">
        <ele>235.66</ele>
        <time>2011-09-21T10:05:26Z</time>
      </trkpt>
      <trkpt lat="48.21963" lon="-3.13612">
        <ele>235.66</ele>
        <time>2011-09-21T10:05:37Z</time>
      </trkpt>
      <trkpt lat="48.21961" lon="-3.13598">
        <ele>237.1</ele>
        <time>2011-09-21T10:05:47Z</time>
      </trkpt>
      <trkpt lat="48.21962" lon="-3.13595">
        <ele>237.1</ele>
        <time>2011-09-21T10:05:49Z</time>
      </trkpt>
      <trkpt lat="48.2196" lon="-3.13578">
        <ele>238.06</ele>
        <time>2011-09-21T10:06:01Z</time>
      </trkpt>
      <trkpt lat="48.21959" lon="-3.13572">
        <ele>238.54</ele>
        <time>2011-09-21T10:06:05Z</time>
      </trkpt>
      <trkpt lat="48.21957" lon="-3.13552">
        <ele>239.99</ele>
        <time>2011-09-21T10:06:18Z</time>
      </trkpt>
      <trkpt lat="48.21955" lon="-3.13539">
        <ele>239.99</ele>
        <time>2011-09-21T10:06:28Z</time>
      </trkpt>
      <trkpt lat="48.21954" lon="-3.13533">
        <ele>240.47</ele>
        <time>2011-09-21T10:06:32Z</time>
      </trkpt>
      <trkpt lat="48.21952" lon="-3.13525">
        <ele>239.99</ele>
        <time>2011-09-21T10:06:38Z</time>
      </trkpt>
      <trkpt lat="48.21943" lon="-3.13514">
        <ele>239.51</ele>
        <time>2011-09-21T10:06:49Z</time>
      </trkpt>
      <trkpt lat="48.21937" lon="-3.13504">
        <ele>239.02</ele>
        <time>2011-09-21T10:06:58Z</time>
      </trkpt>
      <trkpt lat="48.2193" lon="-3.13487">
        <ele>238.54</ele>
        <time>2011-09-21T10:07:10Z</time>
      </trkpt>
      <trkpt lat="48.21925" lon="-3.13475">
        <ele>238.06</ele>
        <time>2011-09-21T10:07:19Z</time>
      </trkpt>
      <trkpt lat="48.21923" lon="-3.13457">
        <ele>237.1</ele>
        <time>2011-09-21T10:07:31Z</time>
      </trkpt>
      <trkpt lat="48.21922" lon="-3.13441">
        <ele>236.14</ele>
        <time>2011-09-21T10:07:41Z</time>
      </trkpt>
      <trkpt lat="48.21924" lon="-3.13435">
        <ele>236.62</ele>
        <time>2011-09-21T10:07:46Z</time>
      </trkpt>
      <trkpt lat="48.21923" lon="-3.13426">
        <ele>236.14</ele>
        <time>2011-09-21T10:07:51Z</time>
      </trkpt>
      <trkpt lat="48.21926" lon="-3.1341">
        <ele>236.62</ele>
        <time>2011-09-21T10:08:02Z</time>
      </trkpt>
      <trkpt lat="48.21927" lon="-3.13398">
        <ele>237.1</ele>
        <time>2011-09-21T10:08:10Z</time>
      </trkpt>
      <trkpt lat="48.21926" lon="-3.13391">
        <ele>237.1</ele>
        <time>2011-09-21T10:08:15Z</time>
      </trkpt>
      <trkpt lat="48.21928" lon="-3.13382">
        <ele>237.1</ele>
        <time>2011-09-21T10:08:21Z</time>
      </trkpt>
      <trkpt lat="48.2193" lon="-3.13374">
        <ele>238.54</ele>
        <time>2011-09-21T10:08:27Z</time>
      </trkpt>
      <trkpt lat="48.21933" lon="-3.13358">
        <ele>238.54</ele>
        <time>2011-09-21T10:08:38Z</time>
      </trkpt>
      <trkpt lat="48.21934" lon="-3.13341">
        <ele>240.47</ele>
        <time>2011-09-21T10:08:50Z</time>
      </trkpt>
      <trkpt lat="48.21934" lon="-3.13339">
        <ele>239.99</ele>
        <time>2011-09-21T10:08:51Z</time>
      </trkpt>
      <trkpt lat="48.21934" lon="-3.13328">
        <ele>240.95</ele>
        <time>2011-09-21T10:08:59Z</time>
      </trkpt>
      <trkpt lat="48.21936" lon="-3.13313">
        <ele>241.43</ele>
        <time>2011-09-21T10:09:09Z</time>
      </trkpt>
      <trkpt lat="48.21937" lon="-3.13307">
        <ele>241.91</ele>
        <time>2011-09-21T10:09:15Z</time>
      </trkpt>
      <trkpt lat="48.21937" lon="-3.13303">
        <ele>241.43</ele>
        <time>2011-09-21T10:09:18Z</time>
      </trkpt>
      <trkpt lat="48.21935" lon="-3.13289">
        <ele>241.43</ele>
        <time>2011-09-21T10:09:27Z</time>
      </trkpt>
      <trkpt lat="48.21934" lon="-3.13286">
        <ele>241.43</ele>
        <time>2011-09-21T10:09:29Z</time>
      </trkpt>
      <trkpt lat="48.21934" lon="-3.13271">
        <ele>240.95</ele>
        <time>2011-09-21T10:09:38Z</time>
      </trkpt>
      <trkpt lat="48.21932" lon="-3.1326">
        <ele>240.47</ele>
        <time>2011-09-21T10:09:45Z</time>
      </trkpt>
      <trkpt lat="48.21932" lon="-3.13249">
        <ele>240.47</ele>
        <time>2011-09-21T10:09:56Z</time>
      </trkpt>
      <trkpt lat="48.21932" lon="-3.13247">
        <ele>239.99</ele>
        <time>2011-09-21T10:09:57Z</time>
      </trkpt>
      <trkpt lat="48.21929" lon="-3.13231">
        <ele>239.02</ele>
        <time>2011-09-21T10:10:07Z</time>
      </trkpt>
      <trkpt lat="48.21928" lon="-3.13223">
        <ele>238.06</ele>
        <time>2011-09-21T10:10:13Z</time>
      </trkpt>
      <trkpt lat="48.21928" lon="-3.13201">
        <ele>237.1</ele>
        <time>2011-09-21T10:10:26Z</time>
      </trkpt>
      <trkpt lat="48.21928" lon="-3.13179">
        <ele>235.66</ele>
        <time>2011-09-21T10:10:39Z</time>
      </trkpt>
      <trkpt lat="48.21926" lon="-3.13164">
        <ele>235.66</ele>
        <time>2011-09-21T10:10:50Z</time>
      </trkpt>
      <trkpt lat="48.21926" lon="-3.13153">
        <ele>235.66</ele>
        <time>2011-09-21T10:10:59Z</time>
      </trkpt>
      <trkpt lat="48.21925" lon="-3.1315">
        <ele>235.66</ele>
        <time>2011-09-21T10:11:01Z</time>
      </trkpt>
      <trkpt lat="48.21927" lon="-3.13136">
        <ele>236.14</ele>
        <time>2011-09-21T10:11:12Z</time>
      </trkpt>
      <trkpt lat="48.21929" lon="-3.13123">
        <ele>236.14</ele>
        <time>2011-09-21T10:11:20Z</time>
      </trkpt>
      <trkpt lat="48.21932" lon="-3.1311">
        <ele>235.66</ele>
        <time>2011-09-21T10:11:28Z</time>
      </trkpt>
      <trkpt lat="48.21936" lon="-3.13107">
        <ele>236.14</ele>
        <time>2011-09-21T10:11:32Z</time>
      </trkpt>
      <trkpt lat="48.21937" lon="-3.13105">
        <ele>236.14</ele>
        <time>2011-09-21T10:11:34Z</time>
      </trkpt>
      <trkpt lat="48.21944" lon="-3.13097">
        <ele>236.14</ele>
        <time>2011-09-21T10:11:42Z</time>
      </trkpt>
      <trkpt lat="48.21948" lon="-3.1309">
        <ele>237.1</ele>
        <time>2011-09-21T10:11:47Z</time>
      </trkpt>
      <trkpt lat="48.21953" lon="-3.13074">
        <ele>238.06</ele>
        <time>2011-09-21T10:12:00Z</time>
      </trkpt>
      <trkpt lat="48.21957" lon="-3.13065">
        <ele>239.51</ele>
        <time>2011-09-21T10:12:09Z</time>
      </trkpt>
      <trkpt lat="48.21961" lon="-3.13053">
        <ele>239.99</ele>
        <time>2011-09-21T10:12:17Z</time>
      </trkpt>
      <trkpt lat="48.21961" lon="-3.1304">
        <ele>239.99</ele>
        <time>2011-09-21T10:12:26Z</time>
      </trkpt>
      <trkpt lat="48.21967" lon="-3.13033">
        <ele>239.99</ele>
        <time>2011-09-21T10:12:32Z</time>
      </trkpt>
      <trkpt lat="48.21968" lon="-3.13031">
        <ele>240.47</ele>
        <time>2011-09-21T10:12:34Z</time>
      </trkpt>
      <trkpt lat="48.21973" lon="-3.13021">
        <ele>239.99</ele>
        <time>2011-09-21T10:12:43Z</time>
      </trkpt>
      <trkpt lat="48.2198" lon="-3.13012">
        <ele>240.95</ele>
        <time>2011-09-21T10:12:54Z</time>
      </trkpt>
      <trkpt lat="48.2199" lon="-3.13001">
        <ele>240.95</ele>
        <time>2011-09-21T10:13:06Z</time>
      </trkpt>
      <trkpt lat="48.21992" lon="-3.1299">
        <ele>241.91</ele>
        <time>2011-09-21T10:13:17Z</time>
      </trkpt>
      <trkpt lat="48.21993" lon="-3.12978">
        <ele>242.39</ele>
        <time>2011-09-21T10:13:28Z</time>
      </trkpt>
      <trkpt lat="48.21996" lon="-3.12979">
        <ele>243.35</ele>
        <time>2011-09-21T10:13:41Z</time>
      </trkpt>
      <trkpt lat="48.21996" lon="-3.12979">
        <ele>242.87</ele>
        <time>2011-09-21T10:13:56Z</time>
      </trkpt>
      <trkpt lat="48.21996" lon="-3.12979">
        <ele>242.87</ele>
        <time>2011-09-21T10:14:15Z</time>
      </trkpt>
      <trkpt lat="48.21996" lon="-3.12979">
        <ele>242.39</ele>
        <time>2011-09-21T10:14:34Z</time>
      </trkpt>
      <trkpt lat="48.21996" lon="-3.12979">
        <ele>243.35</ele>
        <time>2011-09-21T10:14:57Z</time>
      </trkpt>
      <trkpt lat="48.21996" lon="-3.12979">
        <ele>243.35</ele>
        <time>2011-09-21T10:15:25Z</time>
      </trkpt>
      <trkpt lat="48.21995" lon="-3.12977">
        <ele>243.35</ele>
        <time>2011-09-21T10:15:45Z</time>
      </trkpt>
      <trkpt lat="48.22003" lon="-3.12979">
        <ele>243.83</ele>
        <time>2011-09-21T10:15:57Z</time>
      </trkpt>
      <trkpt lat="48.22006" lon="-3.12981">
        <ele>244.31</ele>
        <time>2011-09-21T10:16:01Z</time>
      </trkpt>
      <trkpt lat="48.22012" lon="-3.12977">
        <ele>244.31</ele>
        <time>2011-09-21T10:16:12Z</time>
      </trkpt>
      <trkpt lat="48.22013" lon="-3.12977">
        <ele>244.79</ele>
        <time>2011-09-21T10:16:27Z</time>
      </trkpt>
      <trkpt lat="48.22019" lon="-3.12974">
        <ele>244.31</ele>
        <time>2011-09-21T10:16:41Z</time>
      </trkpt>
      <trkpt lat="48.22028" lon="-3.1297">
        <ele>244.79</ele>
        <time>2011-09-21T10:16:52Z</time>
      </trkpt>
      <trkpt lat="48.22039" lon="-3.12967">
        <ele>244.79</ele>
        <time>2011-09-21T10:17:03Z</time>
      </trkpt>
      <trkpt lat="48.22045" lon="-3.12967">
        <ele>245.27</ele>
        <time>2011-09-21T10:17:12Z</time>
      </trkpt>
      <trkpt lat="48.22051" lon="-3.12964">
        <ele>245.75</ele>
        <time>2011-09-21T10:17:19Z</time>
      </trkpt>
      <trkpt lat="48.22053" lon="-3.12964">
        <ele>245.75</ele>
        <time>2011-09-21T10:17:21Z</time>
      </trkpt>
      <trkpt lat="48.22063" lon="-3.12959">
        <ele>245.27</ele>
        <time>2011-09-21T10:17:34Z</time>
      </trkpt>
      <trkpt lat="48.22062" lon="-3.12957">
        <ele>245.75</ele>
        <time>2011-09-21T10:17:43Z</time>
      </trkpt>
      <trkpt lat="48.22062" lon="-3.12958">
        <ele>245.75</ele>
        <time>2011-09-21T10:17:54Z</time>
      </trkpt>
      <trkpt lat="48.22062" lon="-3.12958">
        <ele>245.75</ele>
        <time>2011-09-21T10:18:10Z</time>
      </trkpt>
      <trkpt lat="48.22062" lon="-3.12956">
        <ele>245.75</ele>
        <time>2011-09-21T10:18:24Z</time>
      </trkpt>
      <trkpt lat="48.22067" lon="-3.1295">
        <ele>246.72</ele>
        <time>2011-09-21T10:18:35Z</time>
      </trkpt>
      <trkpt lat="48.22068" lon="-3.12948">
        <ele>246.23</ele>
        <time>2011-09-21T10:18:48Z</time>
      </trkpt>
      <trkpt lat="48.22068" lon="-3.12948">
        <ele>246.72</ele>
        <time>2011-09-21T10:19:04Z</time>
      </trkpt>
      <trkpt lat="48.22069" lon="-3.12948">
        <ele>246.23</ele>
        <time>2011-09-21T10:19:26Z</time>
      </trkpt>
      <trkpt lat="48.22069" lon="-3.12948">
        <ele>246.23</ele>
        <time>2011-09-21T10:19:43Z</time>
      </trkpt>
      <trkpt lat="48.22067" lon="-3.12943">
        <ele>245.75</ele>
        <time>2011-09-21T10:19:57Z</time>
      </trkpt>
      <trkpt lat="48.22068" lon="-3.12947">
        <ele>246.72</ele>
        <time>2011-09-21T10:20:11Z</time>
      </trkpt>
      <trkpt lat="48.22065" lon="-3.12939">
        <ele>245.75</ele>
        <time>2011-09-21T10:20:22Z</time>
      </trkpt>
      <trkpt lat="48.22063" lon="-3.12933">
        <ele>245.27</ele>
        <time>2011-09-21T10:20:28Z</time>
      </trkpt>
      <trkpt lat="48.22057" lon="-3.12917">
        <ele>244.79</ele>
        <time>2011-09-21T10:20:40Z</time>
      </trkpt>
      <trkpt lat="48.22054" lon="-3.12903">
        <ele>243.83</ele>
        <time>2011-09-21T10:20:51Z</time>
      </trkpt>
      <trkpt lat="48.22054" lon="-3.12893">
        <ele>242.87</ele>
        <time>2011-09-21T10:20:57Z</time>
      </trkpt>
      <trkpt lat="48.22054" lon="-3.12876">
        <ele>241.91</ele>
        <time>2011-09-21T10:21:09Z</time>
      </trkpt>
      <trkpt lat="48.22055" lon="-3.12856">
        <ele>240.47</ele>
        <time>2011-09-21T10:21:22Z</time>
      </trkpt>
      <trkpt lat="48.22055" lon="-3.12851">
        <ele>240.47</ele>
        <time>2011-09-21T10:21:25Z</time>
      </trkpt>
      <trkpt lat="48.22056" lon="-3.12848">
        <ele>239.99</ele>
        <time>2011-09-21T10:21:27Z</time>
      </trkpt>
      <trkpt lat="48.22056" lon="-3.1283">
        <ele>239.51</ele>
        <time>2011-09-21T10:21:39Z</time>
      </trkpt>
      <trkpt lat="48.22058" lon="-3.12818">
        <ele>239.02</ele>
        <time>2011-09-21T10:21:46Z</time>
      </trkpt>
      <trkpt lat="48.22063" lon="-3.12805">
        <ele>239.02</ele>
        <time>2011-09-21T10:21:59Z</time>
      </trkpt>
      <trkpt lat="48.22063" lon="-3.12803">
        <ele>238.54</ele>
        <time>2011-09-21T10:22:12Z</time>
      </trkpt>
      <trkpt lat="48.22064" lon="-3.12801">
        <ele>239.02</ele>
        <time>2011-09-21T10:22:24Z</time>
      </trkpt>
      <trkpt lat="48.22066" lon="-3.12795">
        <ele>239.51</ele>
        <time>2011-09-21T10:22:34Z</time>
      </trkpt>
      <trkpt lat="48.2207" lon="-3.12785">
        <ele>238.54</ele>
        <time>2011-09-21T10:22:45Z</time>
      </trkpt>
      <trkpt lat="48.22068" lon="-3.1278">
        <ele>238.54</ele>
        <time>2011-09-21T10:22:56Z</time>
      </trkpt>
      <trkpt lat="48.22068" lon="-3.1278">
        <ele>239.02</ele>
        <time>2011-09-21T10:23:12Z</time>
      </trkpt>
      <trkpt lat="48.22067" lon="-3.12775">
        <ele>238.54</ele>
        <time>2011-09-21T10:23:21Z</time>
      </trkpt>
      <trkpt lat="48.22069" lon="-3.12778">
        <ele>239.02</ele>
        <time>2011-09-21T10:23:37Z</time>
      </trkpt>
      <trkpt lat="48.22068" lon="-3.12781">
        <ele>238.54</ele>
        <time>2011-09-21T10:23:49Z</time>
      </trkpt>
      <trkpt lat="48.22069" lon="-3.12778">
        <ele>239.02</ele>
        <time>2011-09-21T10:23:58Z</time>
      </trkpt>
      <trkpt lat="48.22075" lon="-3.12776">
        <ele>238.06</ele>
        <time>2011-09-21T10:24:10Z</time>
      </trkpt>
      <trkpt lat="48.22078" lon="-3.12776">
        <ele>238.06</ele>
        <time>2011-09-21T10:24:13Z</time>
      </trkpt>
      <trkpt lat="48.2209" lon="-3.12776">
        <ele>238.54</ele>
        <time>2011-09-21T10:24:24Z</time>
      </trkpt>
      <trkpt lat="48.22093" lon="-3.12775">
        <ele>238.54</ele>
        <time>2011-09-21T10:24:27Z</time>
      </trkpt>
      <trkpt lat="48.22103" lon="-3.12766">
        <ele>238.06</ele>
        <time>2011-09-21T10:24:38Z</time>
      </trkpt>
      <trkpt lat="48.22112" lon="-3.12753">
        <ele>237.58</ele>
        <time>2011-09-21T10:24:50Z</time>
      </trkpt>
      <trkpt lat="48.22121" lon="-3.12745">
        <ele>236.62</ele>
        <time>2011-09-21T10:25:02Z</time>
      </trkpt>
      <trkpt lat="48.22122" lon="-3.12745">
        <ele>236.62</ele>
        <time>2011-09-21T10:25:03Z</time>
      </trkpt>
      <trkpt lat="48.22129" lon="-3.12742">
        <ele>236.62</ele>
        <time>2011-09-21T10:25:10Z</time>
      </trkpt>
      <trkpt lat="48.2214" lon="-3.12736">
        <ele>236.62</ele>
        <time>2011-09-21T10:25:21Z</time>
      </trkpt>
      <trkpt lat="48.22153" lon="-3.1273">
        <ele>236.14</ele>
        <time>2011-09-21T10:25:35Z</time>
      </trkpt>
      <trkpt lat="48.22165" lon="-3.12715">
        <ele>236.14</ele>
        <time>2011-09-21T10:25:49Z</time>
      </trkpt>
      <trkpt lat="48.22175" lon="-3.12707">
        <ele>236.62</ele>
        <time>2011-09-21T10:25:59Z</time>
      </trkpt>
      <trkpt lat="48.22185" lon="-3.127">
        <ele>236.14</ele>
        <time>2011-09-21T10:26:10Z</time>
      </trkpt>
      <trkpt lat="48.22193" lon="-3.12692">
        <ele>237.1</ele>
        <time>2011-09-21T10:26:20Z</time>
      </trkpt>
      <trkpt lat="48.22204" lon="-3.1268">
        <ele>236.62</ele>
        <time>2011-09-21T10:26:32Z</time>
      </trkpt>
      <trkpt lat="48.22206" lon="-3.12677">
        <ele>237.1</ele>
        <time>2011-09-21T10:26:43Z</time>
      </trkpt>
      <trkpt lat="48.22206" lon="-3.12677">
        <ele>237.58</ele>
        <time>2011-09-21T10:26:56Z</time>
      </trkpt>
      <trkpt lat="48.22206" lon="-3.12677">
        <ele>237.1</ele>
        <time>2011-09-21T10:27:16Z</time>
      </trkpt>
      <trkpt lat="48.22206" lon="-3.12677">
        <ele>237.58</ele>
        <time>2011-09-21T10:27:32Z</time>
      </trkpt>
      <trkpt lat="48.22206" lon="-3.12677">
        <ele>237.58</ele>
        <time>2011-09-21T10:27:54Z</time>
      </trkpt>
      <trkpt lat="48.22206" lon="-3.12677">
        <ele>237.58</ele>
        <time>2011-09-21T10:28:14Z</time>
      </trkpt>
      <trkpt lat="48.22213" lon="-3.12669">
        <ele>237.1</ele>
        <time>2011-09-21T10:28:24Z</time>
      </trkpt>
      <trkpt lat="48.2222" lon="-3.12658">
        <ele>238.06</ele>
        <time>2011-09-21T10:28:35Z</time>
      </trkpt>
      <trkpt lat="48.22229" lon="-3.12647">
        <ele>238.06</ele>
        <time>2011-09-21T10:28:46Z</time>
      </trkpt>
      <trkpt lat="48.22236" lon="-3.12635">
        <ele>238.54</ele>
        <time>2011-09-21T10:28:57Z</time>
      </trkpt>
      <trkpt lat="48.22248" lon="-3.1262">
        <ele>238.54</ele>
        <time>2011-09-21T10:29:12Z</time>
      </trkpt>
      <trkpt lat="48.22254" lon="-3.12612">
        <ele>239.02</ele>
        <time>2011-09-21T10:29:21Z</time>
      </trkpt>
      <trkpt lat="48.22262" lon="-3.12601">
        <ele>239.02</ele>
        <time>2011-09-21T10:29:33Z</time>
      </trkpt>
      <trkpt lat="48.22269" lon="-3.12593">
        <ele>239.99</ele>
        <time>2011-09-21T10:29:46Z</time>
      </trkpt>
      <trkpt lat="48.22275" lon="-3.12588">
        <ele>239.99</ele>
        <time>2011-09-21T10:30:01Z</time>
      </trkpt>
      <trkpt lat="48.22276" lon="-3.12586">
        <ele>239.51</ele>
        <time>2011-09-21T10:30:10Z</time>
      </trkpt>
      <trkpt lat="48.22286" lon="-3.1258">
        <ele>240.47</ele>
        <time>2011-09-21T10:30:23Z</time>
      </trkpt>
      <trkpt lat="48.22291" lon="-3.12578">
        <ele>240.47</ele>
        <time>2011-09-21T10:30:34Z</time>
      </trkpt>
      <trkpt lat="48.22308" lon="-3.12569">
        <ele>240.95</ele>
        <time>2011-09-21T10:30:44Z</time>
      </trkpt>
      <trkpt lat="48.22321" lon="-3.12561">
        <ele>241.91</ele>
        <time>2011-09-21T10:30:58Z</time>
      </trkpt>
      <trkpt lat="48.22321" lon="-3.12561">
        <ele>241.91</ele>
        <time>2011-09-21T10:31:10Z</time>
      </trkpt>
      <trkpt lat="48.22329" lon="-3.12551">
        <ele>242.87</ele>
        <time>2011-09-21T10:31:23Z</time>
      </trkpt>
      <trkpt lat="48.22342" lon="-3.12529">
        <ele>242.87</ele>
        <time>2011-09-21T10:31:36Z</time>
      </trkpt>
      <trkpt lat="48.22345" lon="-3.12515">
        <ele>243.83</ele>
        <time>2011-09-21T10:31:47Z</time>
      </trkpt>
      <trkpt lat="48.22349" lon="-3.12503">
        <ele>243.35</ele>
        <time>2011-09-21T10:31:54Z</time>
      </trkpt>
      <trkpt lat="48.22349" lon="-3.12485">
        <ele>242.87</ele>
        <time>2011-09-21T10:32:05Z</time>
      </trkpt>
      <trkpt lat="48.22348" lon="-3.12479">
        <ele>242.87</ele>
        <time>2011-09-21T10:32:10Z</time>
      </trkpt>
      <trkpt lat="48.2235" lon="-3.12465">
        <ele>242.87</ele>
        <time>2011-09-21T10:32:21Z</time>
      </trkpt>
      <trkpt lat="48.22352" lon="-3.12456">
        <ele>243.83</ele>
        <time>2011-09-21T10:32:32Z</time>
      </trkpt>
      <trkpt lat="48.22357" lon="-3.12445">
        <ele>245.27</ele>
        <time>2011-09-21T10:32:43Z</time>
      </trkpt>
      <trkpt lat="48.22358" lon="-3.12441">
        <ele>245.27</ele>
        <time>2011-09-21T10:32:46Z</time>
      </trkpt>
      <trkpt lat="48.22362" lon="-3.12438">
        <ele>245.27</ele>
        <time>2011-09-21T10:32:49Z</time>
      </trkpt>
      <trkpt lat="48.22366" lon="-3.12428">
        <ele>247.2</ele>
        <time>2011-09-21T10:32:58Z</time>
      </trkpt>
      <trkpt lat="48.2237" lon="-3.1242">
        <ele>247.2</ele>
        <time>2011-09-21T10:33:05Z</time>
      </trkpt>
      <trkpt lat="48.22371" lon="-3.12415">
        <ele>247.2</ele>
        <time>2011-09-21T10:33:09Z</time>
      </trkpt>
      <trkpt lat="48.22372" lon="-3.1241">
        <ele>247.2</ele>
        <time>2011-09-21T10:33:12Z</time>
      </trkpt>
      <trkpt lat="48.22376" lon="-3.12397">
        <ele>246.23</ele>
        <time>2011-09-21T10:33:23Z</time>
      </trkpt>
      <trkpt lat="48.22378" lon="-3.12385">
        <ele>246.23</ele>
        <time>2011-09-21T10:33:34Z</time>
      </trkpt>
      <trkpt lat="48.22383" lon="-3.12373">
        <ele>246.23</ele>
        <time>2011-09-21T10:33:44Z</time>
      </trkpt>
      <trkpt lat="48.22384" lon="-3.12366">
        <ele>246.23</ele>
        <time>2011-09-21T10:33:49Z</time>
      </trkpt>
      <trkpt lat="48.22385" lon="-3.12347">
        <ele>246.23</ele>
        <time>2011-09-21T10:34:01Z</time>
      </trkpt>
      <trkpt lat="48.2239" lon="-3.12339">
        <ele>245.27</ele>
        <time>2011-09-21T10:34:11Z</time>
      </trkpt>
      <trkpt lat="48.2239" lon="-3.12339">
        <ele>244.31</ele>
        <time>2011-09-21T10:34:21Z</time>
      </trkpt>
      <trkpt lat="48.22389" lon="-3.12338">
        <ele>244.31</ele>
        <time>2011-09-21T10:34:30Z</time>
      </trkpt>
      <trkpt lat="48.22389" lon="-3.12338">
        <ele>244.31</ele>
        <time>2011-09-21T10:34:46Z</time>
      </trkpt>
      <trkpt lat="48.22389" lon="-3.12338">
        <ele>244.31</ele>
        <time>2011-09-21T10:35:01Z</time>
      </trkpt>
      <trkpt lat="48.22391" lon="-3.12332">
        <ele>244.79</ele>
        <time>2011-09-21T10:35:11Z</time>
      </trkpt>
      <trkpt lat="48.22392" lon="-3.12327">
        <ele>244.79</ele>
        <time>2011-09-21T10:35:23Z</time>
      </trkpt>
      <trkpt lat="48.22393" lon="-3.12321">
        <ele>243.35</ele>
        <time>2011-09-21T10:35:35Z</time>
      </trkpt>
      <trkpt lat="48.22395" lon="-3.12315">
        <ele>243.35</ele>
        <time>2011-09-21T10:35:44Z</time>
      </trkpt>
      <trkpt lat="48.22397" lon="-3.1231">
        <ele>242.87</ele>
        <time>2011-09-21T10:35:54Z</time>
      </trkpt>
      <trkpt lat="48.22397" lon="-3.1231">
        <ele>242.87</ele>
        <time>2011-09-21T10:36:07Z</time>
      </trkpt>
      <trkpt lat="48.22397" lon="-3.1231">
        <ele>242.87</ele>
        <time>2011-09-21T10:36:21Z</time>
      </trkpt>
      <trkpt lat="48.22398" lon="-3.12306">
        <ele>241.91</ele>
        <time>2011-09-21T10:36:31Z</time>
      </trkpt>
      <trkpt lat="48.22399" lon="-3.12303">
        <ele>241.43</ele>
        <time>2011-09-21T10:36:39Z</time>
      </trkpt>
      <trkpt lat="48.22399" lon="-3.12303">
        <ele>240.47</ele>
        <time>2011-09-21T10:36:53Z</time>
      </trkpt>
      <trkpt lat="48.22404" lon="-3.12295">
        <ele>239.51</ele>
        <time>2011-09-21T10:36:59Z</time>
      </trkpt>
      <trkpt lat="48.22413" lon="-3.12284">
        <ele>239.02</ele>
        <time>2011-09-21T10:37:08Z</time>
      </trkpt>
      <trkpt lat="48.22416" lon="-3.12278">
        <ele>239.02</ele>
        <time>2011-09-21T10:37:12Z</time>
      </trkpt>
      <trkpt lat="48.2242" lon="-3.12262">
        <ele>237.58</ele>
        <time>2011-09-21T10:37:23Z</time>
      </trkpt>
      <trkpt lat="48.2242" lon="-3.1226">
        <ele>237.58</ele>
        <time>2011-09-21T10:37:24Z</time>
      </trkpt>
      <trkpt lat="48.22424" lon="-3.1225">
        <ele>236.62</ele>
        <time>2011-09-21T10:37:30Z</time>
      </trkpt>
      <trkpt lat="48.22426" lon="-3.12232">
        <ele>236.14</ele>
        <time>2011-09-21T10:37:41Z</time>
      </trkpt>
      <trkpt lat="48.22427" lon="-3.1222">
        <ele>236.14</ele>
        <time>2011-09-21T10:37:51Z</time>
      </trkpt>
      <trkpt lat="48.22427" lon="-3.1222">
        <ele>235.66</ele>
        <time>2011-09-21T10:38:03Z</time>
      </trkpt>
      <trkpt lat="48.22427" lon="-3.1222">
        <ele>234.22</ele>
        <time>2011-09-21T10:38:15Z</time>
      </trkpt>
      <trkpt lat="48.22427" lon="-3.12202">
        <ele>233.26</ele>
        <time>2011-09-21T10:38:23Z</time>
      </trkpt>
      <trkpt lat="48.22428" lon="-3.12189">
        <ele>232.3</ele>
        <time>2011-09-21T10:38:34Z</time>
      </trkpt>
      <trkpt lat="48.22428" lon="-3.12179">
        <ele>231.81</ele>
        <time>2011-09-21T10:38:45Z</time>
      </trkpt>
      <trkpt lat="48.22428" lon="-3.12177">
        <ele>232.3</ele>
        <time>2011-09-21T10:38:54Z</time>
      </trkpt>
      <trkpt lat="48.22429" lon="-3.1217">
        <ele>232.78</ele>
        <time>2011-09-21T10:39:10Z</time>
      </trkpt>
      <trkpt lat="48.22429" lon="-3.1216">
        <ele>231.33</ele>
        <time>2011-09-21T10:39:16Z</time>
      </trkpt>
      <trkpt lat="48.2243" lon="-3.12154">
        <ele>231.33</ele>
        <time>2011-09-21T10:39:18Z</time>
      </trkpt>
      <trkpt lat="48.22433" lon="-3.12138">
        <ele>233.26</ele>
        <time>2011-09-21T10:39:30Z</time>
      </trkpt>
      <trkpt lat="48.22437" lon="-3.12131">
        <ele>233.74</ele>
        <time>2011-09-21T10:39:36Z</time>
      </trkpt>
      <trkpt lat="48.22438" lon="-3.12124">
        <ele>233.26</ele>
        <time>2011-09-21T10:39:40Z</time>
      </trkpt>
      <trkpt lat="48.22435" lon="-3.12103">
        <ele>232.3</ele>
        <time>2011-09-21T10:39:53Z</time>
      </trkpt>
      <trkpt lat="48.22437" lon="-3.12097">
        <ele>231.33</ele>
        <time>2011-09-21T10:39:58Z</time>
      </trkpt>
      <trkpt lat="48.22436" lon="-3.12082">
        <ele>232.78</ele>
        <time>2011-09-21T10:40:09Z</time>
      </trkpt>
      <trkpt lat="48.22433" lon="-3.1207">
        <ele>234.22</ele>
        <time>2011-09-21T10:40:19Z</time>
      </trkpt>
      <trkpt lat="48.22432" lon="-3.12065">
        <ele>234.7</ele>
        <time>2011-09-21T10:40:30Z</time>
      </trkpt>
      <trkpt lat="48.22432" lon="-3.12065">
        <ele>235.18</ele>
        <time>2011-09-21T10:40:50Z</time>
      </trkpt>
      <trkpt lat="48.22432" lon="-3.12065">
        <ele>234.7</ele>
        <time>2011-09-21T10:41:11Z</time>
      </trkpt>
      <trkpt lat="48.22433" lon="-3.12063">
        <ele>235.66</ele>
        <time>2011-09-21T10:41:24Z</time>
      </trkpt>
      <trkpt lat="48.22433" lon="-3.12063">
        <ele>235.18</ele>
        <time>2011-09-21T10:41:42Z</time>
      </trkpt>
      <trkpt lat="48.22434" lon="-3.12052">
        <ele>235.18</ele>
        <time>2011-09-21T10:41:52Z</time>
      </trkpt>
      <trkpt lat="48.22431" lon="-3.12036">
        <ele>234.7</ele>
        <time>2011-09-21T10:42:03Z</time>
      </trkpt>
      <trkpt lat="48.22431" lon="-3.1203">
        <ele>234.7</ele>
        <time>2011-09-21T10:42:15Z</time>
      </trkpt>
      <trkpt lat="48.2243" lon="-3.12029">
        <ele>234.7</ele>
        <time>2011-09-21T10:42:26Z</time>
      </trkpt>
      <trkpt lat="48.22427" lon="-3.12017">
        <ele>233.26</ele>
        <time>2011-09-21T10:42:37Z</time>
      </trkpt>
      <trkpt lat="48.22424" lon="-3.12006">
        <ele>230.85</ele>
        <time>2011-09-21T10:42:46Z</time>
      </trkpt>
      <trkpt lat="48.22422" lon="-3.11991">
        <ele>230.85</ele>
        <time>2011-09-21T10:42:58Z</time>
      </trkpt>
      <trkpt lat="48.22422" lon="-3.11986">
        <ele>229.41</ele>
        <time>2011-09-21T10:43:02Z</time>
      </trkpt>
      <trkpt lat="48.22425" lon="-3.11972">
        <ele>228.93</ele>
        <time>2011-09-21T10:43:14Z</time>
      </trkpt>
      <trkpt lat="48.22429" lon="-3.11962">
        <ele>227.49</ele>
        <time>2011-09-21T10:43:26Z</time>
      </trkpt>
      <trkpt lat="48.22426" lon="-3.11959">
        <ele>227.01</ele>
        <time>2011-09-21T10:43:38Z</time>
      </trkpt>
      <trkpt lat="48.22424" lon="-3.11958">
        <ele>225.57</ele>
        <time>2011-09-21T10:43:49Z</time>
      </trkpt>
      <trkpt lat="48.22415" lon="-3.11949">
        <ele>224.12</ele>
        <time>2011-09-21T10:44:01Z</time>
      </trkpt>
      <trkpt lat="48.22411" lon="-3.11942">
        <ele>223.64</ele>
        <time>2011-09-21T10:44:06Z</time>
      </trkpt>
      <trkpt lat="48.2241" lon="-3.11939">
        <ele>223.64</ele>
        <time>2011-09-21T10:44:09Z</time>
      </trkpt>
      <trkpt lat="48.22408" lon="-3.11936">
        <ele>223.64</ele>
        <time>2011-09-21T10:44:12Z</time>
      </trkpt>
      <trkpt lat="48.22402" lon="-3.11923">
        <ele>223.16</ele>
        <time>2011-09-21T10:44:23Z</time>
      </trkpt>
      <trkpt lat="48.22402" lon="-3.1192">
        <ele>223.16</ele>
        <time>2011-09-21T10:44:25Z</time>
      </trkpt>
      <trkpt lat="48.22401" lon="-3.11914">
        <ele>223.16</ele>
        <time>2011-09-21T10:44:30Z</time>
      </trkpt>
      <trkpt lat="48.22399" lon="-3.119">
        <ele>222.2</ele>
        <time>2011-09-21T10:44:41Z</time>
      </trkpt>
      <trkpt lat="48.22397" lon="-3.11891">
        <ele>222.68</ele>
        <time>2011-09-21T10:44:49Z</time>
      </trkpt>
      <trkpt lat="48.22399" lon="-3.1188">
        <ele>222.2</ele>
        <time>2011-09-21T10:44:59Z</time>
      </trkpt>
      <trkpt lat="48.22396" lon="-3.1187">
        <ele>221.24</ele>
        <time>2011-09-21T10:45:11Z</time>
      </trkpt>
      <trkpt lat="48.22392" lon="-3.11859">
        <ele>220.28</ele>
        <time>2011-09-21T10:45:22Z</time>
      </trkpt>
      <trkpt lat="48.22386" lon="-3.11847">
        <ele>219.8</ele>
        <time>2011-09-21T10:45:31Z</time>
      </trkpt>
      <trkpt lat="48.22377" lon="-3.11837">
        <ele>218.36</ele>
        <time>2011-09-21T10:45:42Z</time>
      </trkpt>
      <trkpt lat="48.22366" lon="-3.11825">
        <ele>217.88</ele>
        <time>2011-09-21T10:45:55Z</time>
      </trkpt>
      <trkpt lat="48.2236" lon="-3.11822">
        <ele>217.88</ele>
        <time>2011-09-21T10:46:05Z</time>
      </trkpt>
      <trkpt lat="48.2235" lon="-3.11819">
        <ele>219.8</ele>
        <time>2011-09-21T10:46:15Z</time>
      </trkpt>
      <trkpt lat="48.22341" lon="-3.11817">
        <ele>220.76</ele>
        <time>2011-09-21T10:46:26Z</time>
      </trkpt>
      <trkpt lat="48.22339" lon="-3.11807">
        <ele>221.72</ele>
        <time>2011-09-21T10:46:35Z</time>
      </trkpt>
      <trkpt lat="48.22336" lon="-3.11802">
        <ele>222.68</ele>
        <time>2011-09-21T10:46:45Z</time>
      </trkpt>
      <trkpt lat="48.22334" lon="-3.118">
        <ele>223.16</ele>
        <time>2011-09-21T10:46:56Z</time>
      </trkpt>
      <trkpt lat="48.22333" lon="-3.11797">
        <ele>224.61</ele>
        <time>2011-09-21T10:47:08Z</time>
      </trkpt>
      <trkpt lat="48.22327" lon="-3.11801">
        <ele>225.57</ele>
        <time>2011-09-21T10:47:17Z</time>
      </trkpt>
      <trkpt lat="48.22324" lon="-3.11796">
        <ele>225.57</ele>
        <time>2011-09-21T10:47:21Z</time>
      </trkpt>
      <trkpt lat="48.22324" lon="-3.11793">
        <ele>225.57</ele>
        <time>2011-09-21T10:47:23Z</time>
      </trkpt>
      <trkpt lat="48.22322" lon="-3.11788">
        <ele>225.09</ele>
        <time>2011-09-21T10:47:26Z</time>
      </trkpt>
      <trkpt lat="48.22318" lon="-3.11769">
        <ele>225.57</ele>
        <time>2011-09-21T10:47:38Z</time>
      </trkpt>
      <trkpt lat="48.22317" lon="-3.11767">
        <ele>224.61</ele>
        <time>2011-09-21T10:47:40Z</time>
      </trkpt>
      <trkpt lat="48.22313" lon="-3.11754">
        <ele>223.64</ele>
        <time>2011-09-21T10:47:51Z</time>
      </trkpt>
      <trkpt lat="48.22313" lon="-3.11751">
        <ele>223.16</ele>
        <time>2011-09-21T10:47:58Z</time>
      </trkpt>
      <trkpt lat="48.2231" lon="-3.11747">
        <ele>222.68</ele>
        <time>2011-09-21T10:48:02Z</time>
      </trkpt>
      <trkpt lat="48.22307" lon="-3.11737">
        <ele>221.24</ele>
        <time>2011-09-21T10:48:09Z</time>
      </trkpt>
      <trkpt lat="48.22306" lon="-3.11734">
        <ele>221.72</ele>
        <time>2011-09-21T10:48:11Z</time>
      </trkpt>
      <trkpt lat="48.22305" lon="-3.1173">
        <ele>221.24</ele>
        <time>2011-09-21T10:48:14Z</time>
      </trkpt>
      <trkpt lat="48.22297" lon="-3.11717">
        <ele>221.24</ele>
        <time>2011-09-21T10:48:24Z</time>
      </trkpt>
      <trkpt lat="48.22291" lon="-3.11707">
        <ele>221.72</ele>
        <time>2011-09-21T10:48:33Z</time>
      </trkpt>
      <trkpt lat="48.22285" lon="-3.11696">
        <ele>220.76</ele>
        <time>2011-09-21T10:48:41Z</time>
      </trkpt>
      <trkpt lat="48.22277" lon="-3.11687">
        <ele>219.32</ele>
        <time>2011-09-21T10:48:52Z</time>
      </trkpt>
      <trkpt lat="48.22276" lon="-3.11678">
        <ele>218.84</ele>
        <time>2011-09-21T10:49:01Z</time>
      </trkpt>
      <trkpt lat="48.22276" lon="-3.11673">
        <ele>218.84</ele>
        <time>2011-09-21T10:49:04Z</time>
      </trkpt>
      <trkpt lat="48.22282" lon="-3.11661">
        <ele>217.88</ele>
        <time>2011-09-21T10:49:15Z</time>
      </trkpt>
      <trkpt lat="48.22287" lon="-3.11649">
        <ele>216.91</ele>
        <time>2011-09-21T10:49:26Z</time>
      </trkpt>
      <trkpt lat="48.22289" lon="-3.11636">
        <ele>215.95</ele>
        <time>2011-09-21T10:49:36Z</time>
      </trkpt>
      <trkpt lat="48.22288" lon="-3.11626">
        <ele>214.51</ele>
        <time>2011-09-21T10:49:44Z</time>
      </trkpt>
      <trkpt lat="48.22288" lon="-3.11623">
        <ele>214.51</ele>
        <time>2011-09-21T10:49:46Z</time>
      </trkpt>
      <trkpt lat="48.22285" lon="-3.11609">
        <ele>212.59</ele>
        <time>2011-09-21T10:49:57Z</time>
      </trkpt>
      <trkpt lat="48.22284" lon="-3.11599">
        <ele>211.63</ele>
        <time>2011-09-21T10:50:08Z</time>
      </trkpt>
      <trkpt lat="48.22284" lon="-3.11591">
        <ele>210.67</ele>
        <time>2011-09-21T10:50:18Z</time>
      </trkpt>
      <trkpt lat="48.22282" lon="-3.11586">
        <ele>208.74</ele>
        <time>2011-09-21T10:50:28Z</time>
      </trkpt>
      <trkpt lat="48.22275" lon="-3.11579">
        <ele>205.86</ele>
        <time>2011-09-21T10:50:39Z</time>
      </trkpt>
      <trkpt lat="48.22268" lon="-3.11576">
        <ele>204.42</ele>
        <time>2011-09-21T10:50:47Z</time>
      </trkpt>
      <trkpt lat="48.22266" lon="-3.11574">
        <ele>203.94</ele>
        <time>2011-09-21T10:50:49Z</time>
      </trkpt>
      <trkpt lat="48.22261" lon="-3.1157">
        <ele>202.49</ele>
        <time>2011-09-21T10:50:56Z</time>
      </trkpt>
      <trkpt lat="48.22258" lon="-3.11561">
        <ele>200.09</ele>
        <time>2011-09-21T10:51:05Z</time>
      </trkpt>
      <trkpt lat="48.22259" lon="-3.1156">
        <ele>199.61</ele>
        <time>2011-09-21T10:51:06Z</time>
      </trkpt>
      <trkpt lat="48.22259" lon="-3.11555">
        <ele>199.61</ele>
        <time>2011-09-21T10:51:09Z</time>
      </trkpt>
      <trkpt lat="48.22259" lon="-3.11538">
        <ele>197.69</ele>
        <time>2011-09-21T10:51:19Z</time>
      </trkpt>
      <trkpt lat="48.2226" lon="-3.11536">
        <ele>197.69</ele>
        <time>2011-09-21T10:51:21Z</time>
      </trkpt>
      <trkpt lat="48.22263" lon="-3.11529">
        <ele>197.21</ele>
        <time>2011-09-21T10:51:26Z</time>
      </trkpt>
      <trkpt lat="48.22266" lon="-3.11514">
        <ele>196.25</ele>
        <time>2011-09-21T10:51:36Z</time>
      </trkpt>
      <trkpt lat="48.22273" lon="-3.11501">
        <ele>195.28</ele>
        <time>2011-09-21T10:51:46Z</time>
      </trkpt>
      <trkpt lat="48.22273" lon="-3.11497">
        <ele>195.28</ele>
        <time>2011-09-21T10:51:58Z</time>
      </trkpt>
      <trkpt lat="48.22273" lon="-3.11497">
        <ele>194.8</ele>
        <time>2011-09-21T10:52:13Z</time>
      </trkpt>
      <trkpt lat="48.22273" lon="-3.11496">
        <ele>194.8</ele>
        <time>2011-09-21T10:52:21Z</time>
      </trkpt>
      <trkpt lat="48.22272" lon="-3.11481">
        <ele>193.36</ele>
        <time>2011-09-21T10:52:32Z</time>
      </trkpt>
      <trkpt lat="48.22271" lon="-3.11478">
        <ele>192.88</ele>
        <time>2011-09-21T10:52:34Z</time>
      </trkpt>
      <trkpt lat="48.22268" lon="-3.11477">
        <ele>191.92</ele>
        <time>2011-09-21T10:52:37Z</time>
      </trkpt>
      <trkpt lat="48.22263" lon="-3.11487">
        <ele>190.48</ele>
        <time>2011-09-21T10:52:47Z</time>
      </trkpt>
      <trkpt lat="48.22261" lon="-3.11483">
        <ele>189.04</ele>
        <time>2011-09-21T10:52:58Z</time>
      </trkpt>
      <trkpt lat="48.22257" lon="-3.11477">
        <ele>187.59</ele>
        <time>2011-09-21T10:53:04Z</time>
      </trkpt>
      <trkpt lat="48.22256" lon="-3.11475">
        <ele>186.63</ele>
        <time>2011-09-21T10:53:06Z</time>
      </trkpt>
      <trkpt lat="48.22251" lon="-3.11476">
        <ele>186.15</ele>
        <time>2011-09-21T10:53:17Z</time>
      </trkpt>
      <trkpt lat="48.22249" lon="-3.11481">
        <ele>185.19</ele>
        <time>2011-09-21T10:53:36Z</time>
      </trkpt>
      <trkpt lat="48.22245" lon="-3.11487">
        <ele>183.75</ele>
        <time>2011-09-21T10:53:46Z</time>
      </trkpt>
      <trkpt lat="48.22238" lon="-3.11489">
        <ele>181.35</ele>
        <time>2011-09-21T10:53:57Z</time>
      </trkpt>
      <trkpt lat="48.22235" lon="-3.11492">
        <ele>179.42</ele>
        <time>2011-09-21T10:54:07Z</time>
      </trkpt>
      <trkpt lat="48.2223" lon="-3.11494">
        <ele>177.02</ele>
        <time>2011-09-21T10:54:21Z</time>
      </trkpt>
      <trkpt lat="48.22227" lon="-3.11498">
        <ele>176.54</ele>
        <time>2011-09-21T10:54:39Z</time>
      </trkpt>
      <trkpt lat="48.22225" lon="-3.11501">
        <ele>176.06</ele>
        <time>2011-09-21T10:54:53Z</time>
      </trkpt>
      <trkpt lat="48.22224" lon="-3.11503">
        <ele>176.06</ele>
        <time>2011-09-21T10:54:55Z</time>
      </trkpt>
      <trkpt lat="48.22219" lon="-3.11512">
        <ele>174.14</ele>
        <time>2011-09-21T10:55:05Z</time>
      </trkpt>
      <trkpt lat="48.22215" lon="-3.11517">
        <ele>172.21</ele>
        <time>2011-09-21T10:55:16Z</time>
      </trkpt>
      <trkpt lat="48.22213" lon="-3.11519">
        <ele>171.25</ele>
        <time>2011-09-21T10:55:27Z</time>
      </trkpt>
      <trkpt lat="48.22209" lon="-3.11521">
        <ele>169.33</ele>
        <time>2011-09-21T10:55:38Z</time>
      </trkpt>
      <trkpt lat="48.22209" lon="-3.11521">
        <ele>169.33</ele>
        <time>2011-09-21T10:56:03Z</time>
      </trkpt>
      <trkpt lat="48.22204" lon="-3.11524">
        <ele>167.89</ele>
        <time>2011-09-21T10:56:14Z</time>
      </trkpt>
      <trkpt lat="48.222" lon="-3.11533">
        <ele>165.48</ele>
        <time>2011-09-21T10:56:24Z</time>
      </trkpt>
      <trkpt lat="48.22195" lon="-3.11545">
        <ele>165</ele>
        <time>2011-09-21T10:56:37Z</time>
      </trkpt>
      <trkpt lat="48.22192" lon="-3.11553">
        <ele>164.52</ele>
        <time>2011-09-21T10:56:50Z</time>
      </trkpt>
      <trkpt lat="48.2219" lon="-3.11561">
        <ele>164.52</ele>
        <time>2011-09-21T10:57:02Z</time>
      </trkpt>
      <trkpt lat="48.22187" lon="-3.11569">
        <ele>162.12</ele>
        <time>2011-09-21T10:57:14Z</time>
      </trkpt>
      <trkpt lat="48.22187" lon="-3.1158">
        <ele>162.12</ele>
        <time>2011-09-21T10:57:24Z</time>
      </trkpt>
      <trkpt lat="48.22188" lon="-3.11587">
        <ele>162.12</ele>
        <time>2011-09-21T10:57:36Z</time>
      </trkpt>
      <trkpt lat="48.22188" lon="-3.11587">
        <ele>163.08</ele>
        <time>2011-09-21T10:57:50Z</time>
      </trkpt>
      <trkpt lat="48.22188" lon="-3.11588">
        <ele>162.6</ele>
        <time>2011-09-21T10:58:04Z</time>
      </trkpt>
      <trkpt lat="48.22188" lon="-3.11587">
        <ele>162.12</ele>
        <time>2011-09-21T10:58:24Z</time>
      </trkpt>
      <trkpt lat="48.22188" lon="-3.11587">
        <ele>162.12</ele>
        <time>2011-09-21T10:58:44Z</time>
      </trkpt>
      <trkpt lat="48.22188" lon="-3.11587">
        <ele>162.12</ele>
        <time>2011-09-21T10:59:04Z</time>
      </trkpt>
      <trkpt lat="48.22189" lon="-3.11589">
        <ele>162.12</ele>
        <time>2011-09-21T10:59:22Z</time>
      </trkpt>
      <trkpt lat="48.22183" lon="-3.11605">
        <ele>161.64</ele>
        <time>2011-09-21T10:59:32Z</time>
      </trkpt>
      <trkpt lat="48.2218" lon="-3.11618">
        <ele>160.68</ele>
        <time>2011-09-21T10:59:43Z</time>
      </trkpt>
      <trkpt lat="48.22178" lon="-3.11635">
        <ele>161.64</ele>
        <time>2011-09-21T10:59:54Z</time>
      </trkpt>
      <trkpt lat="48.22179" lon="-3.11641">
        <ele>162.12</ele>
        <time>2011-09-21T11:00:06Z</time>
      </trkpt>
      <trkpt lat="48.22177" lon="-3.11661">
        <ele>160.68</ele>
        <time>2011-09-21T11:00:19Z</time>
      </trkpt>
      <trkpt lat="48.22176" lon="-3.11667">
        <ele>160.2</ele>
        <time>2011-09-21T11:00:23Z</time>
      </trkpt>
      <trkpt lat="48.22175" lon="-3.11688">
        <ele>160.2</ele>
        <time>2011-09-21T11:00:35Z</time>
      </trkpt>
      <trkpt lat="48.22174" lon="-3.11701">
        <ele>159.72</ele>
        <time>2011-09-21T11:00:43Z</time>
      </trkpt>
      <trkpt lat="48.22175" lon="-3.11716">
        <ele>159.72</ele>
        <time>2011-09-21T11:00:56Z</time>
      </trkpt>
      <trkpt lat="48.22174" lon="-3.11723">
        <ele>157.79</ele>
        <time>2011-09-21T11:01:07Z</time>
      </trkpt>
      <trkpt lat="48.22176" lon="-3.11736">
        <ele>157.79</ele>
        <time>2011-09-21T11:01:17Z</time>
      </trkpt>
      <trkpt lat="48.22179" lon="-3.11741">
        <ele>156.83</ele>
        <time>2011-09-21T11:01:23Z</time>
      </trkpt>
      <trkpt lat="48.22182" lon="-3.11746">
        <ele>157.79</ele>
        <time>2011-09-21T11:01:26Z</time>
      </trkpt>
      <trkpt lat="48.22185" lon="-3.11756">
        <ele>155.87</ele>
        <time>2011-09-21T11:01:37Z</time>
      </trkpt>
      <trkpt lat="48.22186" lon="-3.11762">
        <ele>155.87</ele>
        <time>2011-09-21T11:01:46Z</time>
      </trkpt>
      <trkpt lat="48.22186" lon="-3.11762">
        <ele>153.95</ele>
        <time>2011-09-21T11:01:59Z</time>
      </trkpt>
      <trkpt lat="48.22189" lon="-3.11768">
        <ele>154.43</ele>
        <time>2011-09-21T11:02:09Z</time>
      </trkpt>
      <trkpt lat="48.22195" lon="-3.11788">
        <ele>155.39</ele>
        <time>2011-09-21T11:02:18Z</time>
      </trkpt>
      <trkpt lat="48.22198" lon="-3.11804">
        <ele>156.35</ele>
        <time>2011-09-21T11:02:26Z</time>
      </trkpt>
      <trkpt lat="48.22205" lon="-3.11822">
        <ele>158.75</ele>
        <time>2011-09-21T11:02:37Z</time>
      </trkpt>
      <trkpt lat="48.22211" lon="-3.11825">
        <ele>160.2</ele>
        <time>2011-09-21T11:02:45Z</time>
      </trkpt>
      <trkpt lat="48.22216" lon="-3.11833">
        <ele>161.16</ele>
        <time>2011-09-21T11:02:54Z</time>
      </trkpt>
      <trkpt lat="48.22217" lon="-3.11833">
        <ele>161.64</ele>
        <time>2011-09-21T11:02:55Z</time>
      </trkpt>
      <trkpt lat="48.22226" lon="-3.11841">
        <ele>162.12</ele>
        <time>2011-09-21T11:03:06Z</time>
      </trkpt>
      <trkpt lat="48.22227" lon="-3.11854">
        <ele>161.16</ele>
        <time>2011-09-21T11:03:17Z</time>
      </trkpt>
      <trkpt lat="48.22227" lon="-3.11862">
        <ele>159.72</ele>
        <time>2011-09-21T11:03:27Z</time>
      </trkpt>
      <trkpt lat="48.22228" lon="-3.11872">
        <ele>157.31</ele>
        <time>2011-09-21T11:03:38Z</time>
      </trkpt>
      <trkpt lat="48.22234" lon="-3.11884">
        <ele>156.35</ele>
        <time>2011-09-21T11:03:51Z</time>
      </trkpt>
      <trkpt lat="48.22238" lon="-3.11894">
        <ele>153.47</ele>
        <time>2011-09-21T11:04:03Z</time>
      </trkpt>
      <trkpt lat="48.2224" lon="-3.11901">
        <ele>152.03</ele>
        <time>2011-09-21T11:04:12Z</time>
      </trkpt>
      <trkpt lat="48.22244" lon="-3.11911">
        <ele>153.47</ele>
        <time>2011-09-21T11:04:22Z</time>
      </trkpt>
      <trkpt lat="48.22252" lon="-3.11916">
        <ele>153.47</ele>
        <time>2011-09-21T11:04:32Z</time>
      </trkpt>
      <trkpt lat="48.22255" lon="-3.11922">
        <ele>151.54</ele>
        <time>2011-09-21T11:04:44Z</time>
      </trkpt>
      <trkpt lat="48.22257" lon="-3.11931">
        <ele>151.06</ele>
        <time>2011-09-21T11:04:57Z</time>
      </trkpt>
      <trkpt lat="48.2226" lon="-3.1194">
        <ele>152.51</ele>
        <time>2011-09-21T11:05:06Z</time>
      </trkpt>
      <trkpt lat="48.22261" lon="-3.11945">
        <ele>152.99</ele>
        <time>2011-09-21T11:05:15Z</time>
      </trkpt>
      <trkpt lat="48.22263" lon="-3.11946">
        <ele>152.51</ele>
        <time>2011-09-21T11:05:32Z</time>
      </trkpt>
      <trkpt lat="48.22266" lon="-3.11953">
        <ele>152.51</ele>
        <time>2011-09-21T11:05:43Z</time>
      </trkpt>
      <trkpt lat="48.2227" lon="-3.11966">
        <ele>152.51</ele>
        <time>2011-09-21T11:05:59Z</time>
      </trkpt>
      <trkpt lat="48.22273" lon="-3.11977">
        <ele>153.47</ele>
        <time>2011-09-21T11:06:10Z</time>
      </trkpt>
      <trkpt lat="48.22276" lon="-3.11982">
        <ele>155.39</ele>
        <time>2011-09-21T11:06:22Z</time>
      </trkpt>
      <trkpt lat="48.22284" lon="-3.11992">
        <ele>155.87</ele>
        <time>2011-09-21T11:06:33Z</time>
      </trkpt>
      <trkpt lat="48.22288" lon="-3.12006">
        <ele>156.35</ele>
        <time>2011-09-21T11:06:44Z</time>
      </trkpt>
      <trkpt lat="48.2229" lon="-3.12011">
        <ele>155.87</ele>
        <time>2011-09-21T11:06:56Z</time>
      </trkpt>
      <trkpt lat="48.22292" lon="-3.1202">
        <ele>155.39</ele>
        <time>2011-09-21T11:07:09Z</time>
      </trkpt>
      <trkpt lat="48.22294" lon="-3.12029">
        <ele>155.87</ele>
        <time>2011-09-21T11:07:20Z</time>
      </trkpt>
      <trkpt lat="48.22295" lon="-3.12053">
        <ele>154.91</ele>
        <time>2011-09-21T11:07:33Z</time>
      </trkpt>
      <trkpt lat="48.22293" lon="-3.12066">
        <ele>154.43</ele>
        <time>2011-09-21T11:07:42Z</time>
      </trkpt>
      <trkpt lat="48.22293" lon="-3.12072">
        <ele>153.95</ele>
        <time>2011-09-21T11:07:45Z</time>
      </trkpt>
      <trkpt lat="48.22288" lon="-3.12087">
        <ele>153.47</ele>
        <time>2011-09-21T11:07:55Z</time>
      </trkpt>
      <trkpt lat="48.22273" lon="-3.12107">
        <ele>153.95</ele>
        <time>2011-09-21T11:08:06Z</time>
      </trkpt>
      <trkpt lat="48.22265" lon="-3.12112">
        <ele>151.54</ele>
        <time>2011-09-21T11:08:11Z</time>
      </trkpt>
      <trkpt lat="48.22264" lon="-3.12112">
        <ele>151.54</ele>
        <time>2011-09-21T11:08:12Z</time>
      </trkpt>
      <trkpt lat="48.22255" lon="-3.12122">
        <ele>150.58</ele>
        <time>2011-09-21T11:08:23Z</time>
      </trkpt>
      <trkpt lat="48.22253" lon="-3.12127">
        <ele>149.62</ele>
        <time>2011-09-21T11:08:27Z</time>
      </trkpt>
      <trkpt lat="48.22244" lon="-3.12136">
        <ele>148.66</ele>
        <time>2011-09-21T11:08:37Z</time>
      </trkpt>
      <trkpt lat="48.22242" lon="-3.12146">
        <ele>148.18</ele>
        <time>2011-09-21T11:08:48Z</time>
      </trkpt>
      <trkpt lat="48.22234" lon="-3.1216">
        <ele>149.14</ele>
        <time>2011-09-21T11:09:00Z</time>
      </trkpt>
      <trkpt lat="48.22233" lon="-3.12163">
        <ele>149.62</ele>
        <time>2011-09-21T11:09:13Z</time>
      </trkpt>
      <trkpt lat="48.22233" lon="-3.12163">
        <ele>149.62</ele>
        <time>2011-09-21T11:09:29Z</time>
      </trkpt>
      <trkpt lat="48.22232" lon="-3.12164">
        <ele>148.18</ele>
        <time>2011-09-21T11:09:42Z</time>
      </trkpt>
      <trkpt lat="48.22231" lon="-3.12167">
        <ele>145.78</ele>
        <time>2011-09-21T11:09:52Z</time>
      </trkpt>
      <trkpt lat="48.22223" lon="-3.12166">
        <ele>144.82</ele>
        <time>2011-09-21T11:10:03Z</time>
      </trkpt>
      <trkpt lat="48.22219" lon="-3.12167">
        <ele>142.89</ele>
        <time>2011-09-21T11:10:13Z</time>
      </trkpt>
      <trkpt lat="48.22215" lon="-3.12164">
        <ele>140.97</ele>
        <time>2011-09-21T11:10:25Z</time>
      </trkpt>
      <trkpt lat="48.22213" lon="-3.12164">
        <ele>141.93</ele>
        <time>2011-09-21T11:10:38Z</time>
      </trkpt>
      <trkpt lat="48.22212" lon="-3.12164">
        <ele>141.45</ele>
        <time>2011-09-21T11:10:48Z</time>
      </trkpt>
      <trkpt lat="48.22202" lon="-3.12168">
        <ele>141.45</ele>
        <time>2011-09-21T11:10:59Z</time>
      </trkpt>
      <trkpt lat="48.22193" lon="-3.12181">
        <ele>140.97</ele>
        <time>2011-09-21T11:11:13Z</time>
      </trkpt>
      <trkpt lat="48.22184" lon="-3.12191">
        <ele>140.97</ele>
        <time>2011-09-21T11:11:23Z</time>
      </trkpt>
      <trkpt lat="48.22177" lon="-3.12201">
        <ele>140.97</ele>
        <time>2011-09-21T11:11:36Z</time>
      </trkpt>
      <trkpt lat="48.22165" lon="-3.12214">
        <ele>140.49</ele>
        <time>2011-09-21T11:11:48Z</time>
      </trkpt>
      <trkpt lat="48.2216" lon="-3.1222">
        <ele>140.49</ele>
        <time>2011-09-21T11:11:55Z</time>
      </trkpt>
      <trkpt lat="48.22149" lon="-3.12235">
        <ele>140.01</ele>
        <time>2011-09-21T11:12:07Z</time>
      </trkpt>
      <trkpt lat="48.2214" lon="-3.1225">
        <ele>140.01</ele>
        <time>2011-09-21T11:12:18Z</time>
      </trkpt>
      <trkpt lat="48.22127" lon="-3.12266">
        <ele>139.53</ele>
        <time>2011-09-21T11:12:30Z</time>
      </trkpt>
      <trkpt lat="48.22118" lon="-3.1228">
        <ele>139.05</ele>
        <time>2011-09-21T11:12:41Z</time>
      </trkpt>
      <trkpt lat="48.2211" lon="-3.12291">
        <ele>139.05</ele>
        <time>2011-09-21T11:12:53Z</time>
      </trkpt>
      <trkpt lat="48.22102" lon="-3.12303">
        <ele>138.57</ele>
        <time>2011-09-21T11:13:04Z</time>
      </trkpt>
      <trkpt lat="48.22089" lon="-3.12316">
        <ele>138.09</ele>
        <time>2011-09-21T11:13:16Z</time>
      </trkpt>
      <trkpt lat="48.22087" lon="-3.12318">
        <ele>138.57</ele>
        <time>2011-09-21T11:13:18Z</time>
      </trkpt>
      <trkpt lat="48.22077" lon="-3.12326">
        <ele>138.09</ele>
        <time>2011-09-21T11:13:29Z</time>
      </trkpt>
      <trkpt lat="48.22065" lon="-3.1233">
        <ele>138.09</ele>
        <time>2011-09-21T11:13:40Z</time>
      </trkpt>
      <trkpt lat="48.22061" lon="-3.12335">
        <ele>137.61</ele>
        <time>2011-09-21T11:13:51Z</time>
      </trkpt>
      <trkpt lat="48.22055" lon="-3.1234">
        <ele>137.61</ele>
        <time>2011-09-21T11:14:00Z</time>
      </trkpt>
      <trkpt lat="48.22039" lon="-3.12347">
        <ele>137.61</ele>
        <time>2011-09-21T11:14:10Z</time>
      </trkpt>
      <trkpt lat="48.2203" lon="-3.12348">
        <ele>137.13</ele>
        <time>2011-09-21T11:14:20Z</time>
      </trkpt>
      <trkpt lat="48.2202" lon="-3.12353">
        <ele>136.64</ele>
        <time>2011-09-21T11:14:29Z</time>
      </trkpt>
      <trkpt lat="48.21998" lon="-3.12357">
        <ele>136.16</ele>
        <time>2011-09-21T11:14:40Z</time>
      </trkpt>
      <trkpt lat="48.21989" lon="-3.12358">
        <ele>136.64</ele>
        <time>2011-09-21T11:14:48Z</time>
      </trkpt>
      <trkpt lat="48.21979" lon="-3.12359">
        <ele>136.16</ele>
        <time>2011-09-21T11:14:59Z</time>
      </trkpt>
      <trkpt lat="48.21969" lon="-3.12358">
        <ele>135.68</ele>
        <time>2011-09-21T11:15:08Z</time>
      </trkpt>
      <trkpt lat="48.21964" lon="-3.12356">
        <ele>135.2</ele>
        <time>2011-09-21T11:15:13Z</time>
      </trkpt>
      <trkpt lat="48.21951" lon="-3.12357">
        <ele>135.2</ele>
        <time>2011-09-21T11:15:24Z</time>
      </trkpt>
      <trkpt lat="48.21939" lon="-3.12355">
        <ele>134.72</ele>
        <time>2011-09-21T11:15:34Z</time>
      </trkpt>
      <trkpt lat="48.21927" lon="-3.12353">
        <ele>134.72</ele>
        <time>2011-09-21T11:15:43Z</time>
      </trkpt>
      <trkpt lat="48.21916" lon="-3.12353">
        <ele>134.24</ele>
        <time>2011-09-21T11:15:56Z</time>
      </trkpt>
      <trkpt lat="48.21907" lon="-3.12352">
        <ele>134.72</ele>
        <time>2011-09-21T11:16:06Z</time>
      </trkpt>
      <trkpt lat="48.21898" lon="-3.1236">
        <ele>134.72</ele>
        <time>2011-09-21T11:16:19Z</time>
      </trkpt>
      <trkpt lat="48.21898" lon="-3.12362">
        <ele>136.16</ele>
        <time>2011-09-21T11:16:32Z</time>
      </trkpt>
      <trkpt lat="48.21893" lon="-3.12367">
        <ele>137.61</ele>
        <time>2011-09-21T11:16:44Z</time>
      </trkpt>
      <trkpt lat="48.21882" lon="-3.12377">
        <ele>139.05</ele>
        <time>2011-09-21T11:16:56Z</time>
      </trkpt>
      <trkpt lat="48.21877" lon="-3.12383">
        <ele>139.53</ele>
        <time>2011-09-21T11:17:07Z</time>
      </trkpt>
      <trkpt lat="48.21869" lon="-3.12387">
        <ele>140.97</ele>
        <time>2011-09-21T11:17:18Z</time>
      </trkpt>
      <trkpt lat="48.21856" lon="-3.12396">
        <ele>142.41</ele>
        <time>2011-09-21T11:17:27Z</time>
      </trkpt>
      <trkpt lat="48.21848" lon="-3.12405">
        <ele>143.37</ele>
        <time>2011-09-21T11:17:40Z</time>
      </trkpt>
      <trkpt lat="48.21844" lon="-3.12409">
        <ele>145.78</ele>
        <time>2011-09-21T11:17:51Z</time>
      </trkpt>
      <trkpt lat="48.2184" lon="-3.12412">
        <ele>145.78</ele>
        <time>2011-09-21T11:18:06Z</time>
      </trkpt>
      <trkpt lat="48.21837" lon="-3.12411">
        <ele>145.78</ele>
        <time>2011-09-21T11:18:17Z</time>
      </trkpt>
      <trkpt lat="48.21837" lon="-3.12411">
        <ele>145.3</ele>
        <time>2011-09-21T11:18:34Z</time>
      </trkpt>
      <trkpt lat="48.21837" lon="-3.12411">
        <ele>145.78</ele>
        <time>2011-09-21T11:18:50Z</time>
      </trkpt>
      <trkpt lat="48.21837" lon="-3.12411">
        <ele>145.3</ele>
        <time>2011-09-21T11:19:04Z</time>
      </trkpt>
      <trkpt lat="48.21837" lon="-3.12411">
        <ele>145.3</ele>
        <time>2011-09-21T11:19:19Z</time>
      </trkpt>
      <trkpt lat="48.21834" lon="-3.12421">
        <ele>145.3</ele>
        <time>2011-09-21T11:19:33Z</time>
      </trkpt>
      <trkpt lat="48.21829" lon="-3.12432">
        <ele>145.3</ele>
        <time>2011-09-21T11:19:44Z</time>
      </trkpt>
      <trkpt lat="48.2183" lon="-3.12428">
        <ele>144.82</ele>
        <time>2011-09-21T11:19:58Z</time>
      </trkpt>
      <trkpt lat="48.2183" lon="-3.12435">
        <ele>144.82</ele>
        <time>2011-09-21T11:20:20Z</time>
      </trkpt>
      <trkpt lat="48.21827" lon="-3.12449">
        <ele>144.82</ele>
        <time>2011-09-21T11:20:29Z</time>
      </trkpt>
      <trkpt lat="48.21819" lon="-3.12463">
        <ele>144.82</ele>
        <time>2011-09-21T11:20:38Z</time>
      </trkpt>
      <trkpt lat="48.21814" lon="-3.1248">
        <ele>144.82</ele>
        <time>2011-09-21T11:20:53Z</time>
      </trkpt>
      <trkpt lat="48.21806" lon="-3.12502">
        <ele>143.85</ele>
        <time>2011-09-21T11:21:05Z</time>
      </trkpt>
      <trkpt lat="48.21796" lon="-3.12521">
        <ele>143.37</ele>
        <time>2011-09-21T11:21:20Z</time>
      </trkpt>
      <trkpt lat="48.21788" lon="-3.12537">
        <ele>143.37</ele>
        <time>2011-09-21T11:21:31Z</time>
      </trkpt>
      <trkpt lat="48.2178" lon="-3.12553">
        <ele>143.37</ele>
        <time>2011-09-21T11:21:43Z</time>
      </trkpt>
      <trkpt lat="48.21769" lon="-3.12577">
        <ele>143.37</ele>
        <time>2011-09-21T11:22:00Z</time>
      </trkpt>
      <trkpt lat="48.21747" lon="-3.12605">
        <ele>142.41</ele>
        <time>2011-09-21T11:22:18Z</time>
      </trkpt>
      <trkpt lat="48.21736" lon="-3.12625">
        <ele>142.41</ele>
        <time>2011-09-21T11:22:31Z</time>
      </trkpt>
      <trkpt lat="48.21735" lon="-3.12627">
        <ele>142.41</ele>
        <time>2011-09-21T11:22:32Z</time>
      </trkpt>
      <trkpt lat="48.21729" lon="-3.12652">
        <ele>142.41</ele>
        <time>2011-09-21T11:22:45Z</time>
      </trkpt>
      <trkpt lat="48.21717" lon="-3.12669">
        <ele>141.93</ele>
        <time>2011-09-21T11:22:59Z</time>
      </trkpt>
      <trkpt lat="48.2171" lon="-3.12689">
        <ele>141.45</ele>
        <time>2011-09-21T11:23:12Z</time>
      </trkpt>
      <trkpt lat="48.21701" lon="-3.12708">
        <ele>141.45</ele>
        <time>2011-09-21T11:23:23Z</time>
      </trkpt>
      <trkpt lat="48.21699" lon="-3.12718">
        <ele>140.97</ele>
        <time>2011-09-21T11:23:30Z</time>
      </trkpt>
      <trkpt lat="48.21695" lon="-3.12732">
        <ele>140.49</ele>
        <time>2011-09-21T11:23:38Z</time>
      </trkpt>
      <trkpt lat="48.21692" lon="-3.12746">
        <ele>140.97</ele>
        <time>2011-09-21T11:23:48Z</time>
      </trkpt>
      <trkpt lat="48.21688" lon="-3.1276">
        <ele>140.97</ele>
        <time>2011-09-21T11:23:56Z</time>
      </trkpt>
      <trkpt lat="48.21684" lon="-3.12786">
        <ele>140.97</ele>
        <time>2011-09-21T11:24:11Z</time>
      </trkpt>
      <trkpt lat="48.21683" lon="-3.12788">
        <ele>140.97</ele>
        <time>2011-09-21T11:24:12Z</time>
      </trkpt>
      <trkpt lat="48.21675" lon="-3.12811">
        <ele>140.49</ele>
        <time>2011-09-21T11:24:26Z</time>
      </trkpt>
      <trkpt lat="48.21673" lon="-3.12814">
        <ele>140.01</ele>
        <time>2011-09-21T11:24:29Z</time>
      </trkpt>
      <trkpt lat="48.21669" lon="-3.12821">
        <ele>140.01</ele>
        <time>2011-09-21T11:24:34Z</time>
      </trkpt>
      <trkpt lat="48.21652" lon="-3.12837">
        <ele>139.53</ele>
        <time>2011-09-21T11:24:48Z</time>
      </trkpt>
      <trkpt lat="48.21642" lon="-3.12849">
        <ele>139.53</ele>
        <time>2011-09-21T11:24:58Z</time>
      </trkpt>
      <trkpt lat="48.21639" lon="-3.12855">
        <ele>139.53</ele>
        <time>2011-09-21T11:25:02Z</time>
      </trkpt>
      <trkpt lat="48.21623" lon="-3.1287">
        <ele>139.53</ele>
        <time>2011-09-21T11:25:15Z</time>
      </trkpt>
      <trkpt lat="48.2162" lon="-3.12874">
        <ele>139.53</ele>
        <time>2011-09-21T11:25:18Z</time>
      </trkpt>
      <trkpt lat="48.21613" lon="-3.12884">
        <ele>139.53</ele>
        <time>2011-09-21T11:25:30Z</time>
      </trkpt>
      <trkpt lat="48.21613" lon="-3.12884">
        <ele>139.53</ele>
        <time>2011-09-21T11:25:47Z</time>
      </trkpt>
      <trkpt lat="48.21611" lon="-3.12883">
        <ele>138.57</ele>
        <time>2011-09-21T11:26:01Z</time>
      </trkpt>
      <trkpt lat="48.21603" lon="-3.12873">
        <ele>137.61</ele>
        <time>2011-09-21T11:26:12Z</time>
      </trkpt>
      <trkpt lat="48.21603" lon="-3.12869">
        <ele>137.13</ele>
        <time>2011-09-21T11:26:20Z</time>
      </trkpt>
      <trkpt lat="48.21603" lon="-3.12867">
        <ele>137.13</ele>
        <time>2011-09-21T11:26:23Z</time>
      </trkpt>
      <trkpt lat="48.21604" lon="-3.12862">
        <ele>136.64</ele>
        <time>2011-09-21T11:26:26Z</time>
      </trkpt>
      <trkpt lat="48.21605" lon="-3.12851">
        <ele>135.68</ele>
        <time>2011-09-21T11:26:32Z</time>
      </trkpt>
      <trkpt lat="48.21604" lon="-3.12831">
        <ele>134.24</ele>
        <time>2011-09-21T11:26:43Z</time>
      </trkpt>
      <trkpt lat="48.21601" lon="-3.12817">
        <ele>132.8</ele>
        <time>2011-09-21T11:26:52Z</time>
      </trkpt>
      <trkpt lat="48.21586" lon="-3.12803">
        <ele>130.88</ele>
        <time>2011-09-21T11:27:05Z</time>
      </trkpt>
      <trkpt lat="48.21573" lon="-3.128">
        <ele>128.95</ele>
        <time>2011-09-21T11:27:17Z</time>
      </trkpt>
      <trkpt lat="48.2156" lon="-3.128">
        <ele>128.95</ele>
        <time>2011-09-21T11:27:26Z</time>
      </trkpt>
      <trkpt lat="48.21547" lon="-3.128">
        <ele>127.51</ele>
        <time>2011-09-21T11:27:37Z</time>
      </trkpt>
      <trkpt lat="48.21535" lon="-3.128">
        <ele>127.03</ele>
        <time>2011-09-21T11:27:47Z</time>
      </trkpt>
      <trkpt lat="48.21526" lon="-3.128">
        <ele>126.55</ele>
        <time>2011-09-21T11:27:54Z</time>
      </trkpt>
      <trkpt lat="48.21516" lon="-3.12798">
        <ele>127.03</ele>
        <time>2011-09-21T11:28:01Z</time>
      </trkpt>
      <trkpt lat="48.21504" lon="-3.128">
        <ele>126.07</ele>
        <time>2011-09-21T11:28:13Z</time>
      </trkpt>
      <trkpt lat="48.21499" lon="-3.12805">
        <ele>126.07</ele>
        <time>2011-09-21T11:28:20Z</time>
      </trkpt>
      <trkpt lat="48.2149" lon="-3.12804">
        <ele>126.07</ele>
        <time>2011-09-21T11:28:34Z</time>
      </trkpt>
      <trkpt lat="48.21487" lon="-3.12799">
        <ele>126.07</ele>
        <time>2011-09-21T11:28:52Z</time>
      </trkpt>
      <trkpt lat="48.21486" lon="-3.12798">
        <ele>125.59</ele>
        <time>2011-09-21T11:28:53Z</time>
      </trkpt>
      <trkpt lat="48.21481" lon="-3.12796">
        <ele>125.11</ele>
        <time>2011-09-21T11:29:06Z</time>
      </trkpt>
      <trkpt lat="48.21473" lon="-3.12796">
        <ele>124.15</ele>
        <time>2011-09-21T11:29:15Z</time>
      </trkpt>
      <trkpt lat="48.21463" lon="-3.12796">
        <ele>122.71</ele>
        <time>2011-09-21T11:29:26Z</time>
      </trkpt>
      <trkpt lat="48.21453" lon="-3.12797">
        <ele>122.22</ele>
        <time>2011-09-21T11:29:39Z</time>
      </trkpt>
      <trkpt lat="48.21437" lon="-3.12799">
        <ele>122.22</ele>
        <time>2011-09-21T11:29:51Z</time>
      </trkpt>
      <trkpt lat="48.21434" lon="-3.12797">
        <ele>123.19</ele>
        <time>2011-09-21T11:29:54Z</time>
      </trkpt>
      <trkpt lat="48.21422" lon="-3.12801">
        <ele>121.74</ele>
        <time>2011-09-21T11:30:07Z</time>
      </trkpt>
      <trkpt lat="48.2141" lon="-3.12802">
        <ele>121.74</ele>
        <time>2011-09-21T11:30:19Z</time>
      </trkpt>
      <trkpt lat="48.21403" lon="-3.12802">
        <ele>122.22</ele>
        <time>2011-09-21T11:30:31Z</time>
      </trkpt>
      <trkpt lat="48.21392" lon="-3.12808">
        <ele>121.74</ele>
        <time>2011-09-21T11:30:42Z</time>
      </trkpt>
      <trkpt lat="48.2139" lon="-3.12808">
        <ele>121.74</ele>
        <time>2011-09-21T11:30:44Z</time>
      </trkpt>
      <trkpt lat="48.21375" lon="-3.12816">
        <ele>121.74</ele>
        <time>2011-09-21T11:30:56Z</time>
      </trkpt>
      <trkpt lat="48.21361" lon="-3.12821">
        <ele>121.74</ele>
        <time>2011-09-21T11:31:08Z</time>
      </trkpt>
      <trkpt lat="48.21354" lon="-3.12831">
        <ele>121.74</ele>
        <time>2011-09-21T11:31:21Z</time>
      </trkpt>
      <trkpt lat="48.21347" lon="-3.12839">
        <ele>121.74</ele>
        <time>2011-09-21T11:31:33Z</time>
      </trkpt>
      <trkpt lat="48.21334" lon="-3.12852">
        <ele>121.74</ele>
        <time>2011-09-21T11:31:45Z</time>
      </trkpt>
      <trkpt lat="48.21321" lon="-3.12846">
        <ele>122.22</ele>
        <time>2011-09-21T11:31:56Z</time>
      </trkpt>
      <trkpt lat="48.21317" lon="-3.1284">
        <ele>122.22</ele>
        <time>2011-09-21T11:32:06Z</time>
      </trkpt>
      <trkpt lat="48.21317" lon="-3.1284">
        <ele>122.71</ele>
        <time>2011-09-21T11:32:26Z</time>
      </trkpt>
      <trkpt lat="48.21319" lon="-3.12832">
        <ele>122.71</ele>
        <time>2011-09-21T11:32:34Z</time>
      </trkpt>
      <trkpt lat="48.2132" lon="-3.1283">
        <ele>122.71</ele>
        <time>2011-09-21T11:32:45Z</time>
      </trkpt>
      <trkpt lat="48.21321" lon="-3.12829">
        <ele>122.71</ele>
        <time>2011-09-21T11:32:58Z</time>
      </trkpt>
      <trkpt lat="48.21325" lon="-3.12826">
        <ele>122.71</ele>
        <time>2011-09-21T11:33:08Z</time>
      </trkpt>
      <trkpt lat="48.21335" lon="-3.12818">
        <ele>122.71</ele>
        <time>2011-09-21T11:33:20Z</time>
      </trkpt>
      <trkpt lat="48.21347" lon="-3.12808">
        <ele>122.71</ele>
        <time>2011-09-21T11:33:31Z</time>
      </trkpt>
      <trkpt lat="48.21356" lon="-3.128">
        <ele>122.22</ele>
        <time>2011-09-21T11:33:42Z</time>
      </trkpt>
      <trkpt lat="48.21365" lon="-3.12792">
        <ele>122.71</ele>
        <time>2011-09-21T11:33:53Z</time>
      </trkpt>
      <trkpt lat="48.2138" lon="-3.12782">
        <ele>123.19</ele>
        <time>2011-09-21T11:34:06Z</time>
      </trkpt>
      <trkpt lat="48.21389" lon="-3.12774">
        <ele>122.71</ele>
        <time>2011-09-21T11:34:16Z</time>
      </trkpt>
      <trkpt lat="48.21391" lon="-3.12763">
        <ele>123.19</ele>
        <time>2011-09-21T11:34:26Z</time>
      </trkpt>
      <trkpt lat="48.21391" lon="-3.1276">
        <ele>122.71</ele>
        <time>2011-09-21T11:34:39Z</time>
      </trkpt>
      <trkpt lat="48.2139" lon="-3.12759">
        <ele>123.67</ele>
        <time>2011-09-21T11:34:54Z</time>
      </trkpt>
      <trkpt lat="48.21391" lon="-3.12759">
        <ele>123.19</ele>
        <time>2011-09-21T11:35:04Z</time>
      </trkpt>
      <trkpt lat="48.2139" lon="-3.1276">
        <ele>122.71</ele>
        <time>2011-09-21T11:35:14Z</time>
      </trkpt>
      <trkpt lat="48.2139" lon="-3.1276">
        <ele>122.71</ele>
        <time>2011-09-21T11:35:27Z</time>
      </trkpt>
      <trkpt lat="48.2139" lon="-3.1276">
        <ele>126.55</ele>
        <time>2011-09-21T11:35:34Z</time>
      </trkpt>
      <trkpt lat="48.2139" lon="-3.1276">
        <ele>123.19</ele>
        <time>2011-09-21T11:35:35Z</time>
      </trkpt>
      <trkpt lat="48.21391" lon="-3.1276">
        <ele>123.19</ele>
        <time>2011-09-21T11:35:56Z</time>
      </trkpt>
      <trkpt lat="48.21391" lon="-3.1276">
        <ele>121.74</ele>
        <time>2011-09-21T11:36:10Z</time>
      </trkpt>
      <trkpt lat="48.21264" lon="-3.12887">
        <ele>122.71</ele>
        <time>2011-09-21T12:33:43Z</time>
      </trkpt>
      <trkpt lat="48.21269" lon="-3.12868">
        <ele>123.67</ele>
        <time>2011-09-21T12:33:53Z</time>
      </trkpt>
      <trkpt lat="48.21272" lon="-3.12863">
        <ele>125.59</ele>
        <time>2011-09-21T12:33:57Z</time>
      </trkpt>
      <trkpt lat="48.21276" lon="-3.12855">
        <ele>128.47</ele>
        <time>2011-09-21T12:34:04Z</time>
      </trkpt>
      <trkpt lat="48.21278" lon="-3.12854">
        <ele>129.43</ele>
        <time>2011-09-21T12:34:06Z</time>
      </trkpt>
      <trkpt lat="48.2128" lon="-3.12848">
        <ele>132.32</ele>
        <time>2011-09-21T12:34:15Z</time>
      </trkpt>
      <trkpt lat="48.21278" lon="-3.12847">
        <ele>132.32</ele>
        <time>2011-09-21T12:34:17Z</time>
      </trkpt>
      <trkpt lat="48.2127" lon="-3.12843">
        <ele>134.24</ele>
        <time>2011-09-21T12:34:27Z</time>
      </trkpt>
      <trkpt lat="48.2127" lon="-3.12844">
        <ele>133.76</ele>
        <time>2011-09-21T12:34:30Z</time>
      </trkpt>
      <trkpt lat="48.21267" lon="-3.12843">
        <ele>133.76</ele>
        <time>2011-09-21T12:34:33Z</time>
      </trkpt>
      <trkpt lat="48.21265" lon="-3.12844">
        <ele>134.24</ele>
        <time>2011-09-21T12:34:44Z</time>
      </trkpt>
      <trkpt lat="48.2127" lon="-3.12845">
        <ele>133.76</ele>
        <time>2011-09-21T12:34:50Z</time>
      </trkpt>
      <trkpt lat="48.21277" lon="-3.12837">
        <ele>134.72</ele>
        <time>2011-09-21T12:35:00Z</time>
      </trkpt>
      <trkpt lat="48.21279" lon="-3.12829">
        <ele>135.2</ele>
        <time>2011-09-21T12:35:07Z</time>
      </trkpt>
      <trkpt lat="48.21278" lon="-3.12814">
        <ele>135.2</ele>
        <time>2011-09-21T12:35:18Z</time>
      </trkpt>
      <trkpt lat="48.21277" lon="-3.12802">
        <ele>135.68</ele>
        <time>2011-09-21T12:35:28Z</time>
      </trkpt>
      <trkpt lat="48.21273" lon="-3.12795">
        <ele>135.68</ele>
        <time>2011-09-21T12:35:35Z</time>
      </trkpt>
      <trkpt lat="48.21262" lon="-3.12786">
        <ele>135.68</ele>
        <time>2011-09-21T12:35:46Z</time>
      </trkpt>
      <trkpt lat="48.21258" lon="-3.12782">
        <ele>136.64</ele>
        <time>2011-09-21T12:35:52Z</time>
      </trkpt>
      <trkpt lat="48.21245" lon="-3.12773">
        <ele>137.13</ele>
        <time>2011-09-21T12:36:05Z</time>
      </trkpt>
      <trkpt lat="48.21239" lon="-3.12769">
        <ele>136.64</ele>
        <time>2011-09-21T12:36:15Z</time>
      </trkpt>
      <trkpt lat="48.21237" lon="-3.12768">
        <ele>136.64</ele>
        <time>2011-09-21T12:36:19Z</time>
      </trkpt>
      <trkpt lat="48.21233" lon="-3.12765">
        <ele>137.13</ele>
        <time>2011-09-21T12:36:25Z</time>
      </trkpt>
      <trkpt lat="48.21224" lon="-3.12759">
        <ele>137.13</ele>
        <time>2011-09-21T12:36:33Z</time>
      </trkpt>
      <trkpt lat="48.21219" lon="-3.12756">
        <ele>138.09</ele>
        <time>2011-09-21T12:36:38Z</time>
      </trkpt>
      <trkpt lat="48.21208" lon="-3.1275">
        <ele>137.61</ele>
        <time>2011-09-21T12:36:51Z</time>
      </trkpt>
      <trkpt lat="48.21207" lon="-3.12751">
        <ele>137.61</ele>
        <time>2011-09-21T12:37:05Z</time>
      </trkpt>
      <trkpt lat="48.21207" lon="-3.12751">
        <ele>138.09</ele>
        <time>2011-09-21T12:37:16Z</time>
      </trkpt>
      <trkpt lat="48.21194" lon="-3.12738">
        <ele>137.61</ele>
        <time>2011-09-21T12:37:27Z</time>
      </trkpt>
      <trkpt lat="48.21184" lon="-3.12731">
        <ele>137.61</ele>
        <time>2011-09-21T12:37:38Z</time>
      </trkpt>
      <trkpt lat="48.21177" lon="-3.12726">
        <ele>138.09</ele>
        <time>2011-09-21T12:37:47Z</time>
      </trkpt>
      <trkpt lat="48.2117" lon="-3.1272">
        <ele>137.61</ele>
        <time>2011-09-21T12:37:58Z</time>
      </trkpt>
      <trkpt lat="48.21163" lon="-3.12717">
        <ele>137.61</ele>
        <time>2011-09-21T12:38:09Z</time>
      </trkpt>
      <trkpt lat="48.21154" lon="-3.12713">
        <ele>137.61</ele>
        <time>2011-09-21T12:38:20Z</time>
      </trkpt>
      <trkpt lat="48.21154" lon="-3.12714">
        <ele>137.61</ele>
        <time>2011-09-21T12:38:33Z</time>
      </trkpt>
      <trkpt lat="48.21151" lon="-3.12714">
        <ele>137.61</ele>
        <time>2011-09-21T12:38:44Z</time>
      </trkpt>
      <trkpt lat="48.21141" lon="-3.12704">
        <ele>137.61</ele>
        <time>2011-09-21T12:38:58Z</time>
      </trkpt>
      <trkpt lat="48.21137" lon="-3.12704">
        <ele>139.05</ele>
        <time>2011-09-21T12:39:09Z</time>
      </trkpt>
      <trkpt lat="48.21137" lon="-3.12705">
        <ele>138.57</ele>
        <time>2011-09-21T12:39:15Z</time>
      </trkpt>
      <trkpt lat="48.21139" lon="-3.12745">
        <ele>138.57</ele>
        <time>2011-09-21T12:39:30Z</time>
      </trkpt>
      <trkpt lat="48.21138" lon="-3.12744">
        <ele>138.57</ele>
        <time>2011-09-21T12:39:42Z</time>
      </trkpt>
      <trkpt lat="48.21139" lon="-3.12728">
        <ele>138.57</ele>
        <time>2011-09-21T12:39:57Z</time>
      </trkpt>
      <trkpt lat="48.21144" lon="-3.12723">
        <ele>138.57</ele>
        <time>2011-09-21T12:40:15Z</time>
      </trkpt>
      <trkpt lat="48.21135" lon="-3.12712">
        <ele>139.05</ele>
        <time>2011-09-21T12:40:29Z</time>
      </trkpt>
      <trkpt lat="48.21131" lon="-3.12719">
        <ele>138.57</ele>
        <time>2011-09-21T12:40:43Z</time>
      </trkpt>
      <trkpt lat="48.21131" lon="-3.12719">
        <ele>138.09</ele>
        <time>2011-09-21T12:40:53Z</time>
      </trkpt>
      <trkpt lat="48.21122" lon="-3.12709">
        <ele>137.61</ele>
        <time>2011-09-21T12:41:06Z</time>
      </trkpt>
      <trkpt lat="48.21121" lon="-3.12706">
        <ele>137.61</ele>
        <time>2011-09-21T12:41:18Z</time>
      </trkpt>
      <trkpt lat="48.21113" lon="-3.12697">
        <ele>138.09</ele>
        <time>2011-09-21T12:41:30Z</time>
      </trkpt>
      <trkpt lat="48.21104" lon="-3.12695">
        <ele>137.61</ele>
        <time>2011-09-21T12:41:40Z</time>
      </trkpt>
      <trkpt lat="48.21108" lon="-3.12697">
        <ele>136.64</ele>
        <time>2011-09-21T12:41:51Z</time>
      </trkpt>
      <trkpt lat="48.21114" lon="-3.12699">
        <ele>138.09</ele>
        <time>2011-09-21T12:42:03Z</time>
      </trkpt>
      <trkpt lat="48.21118" lon="-3.12699">
        <ele>138.09</ele>
        <time>2011-09-21T12:42:20Z</time>
      </trkpt>
      <trkpt lat="48.21126" lon="-3.127">
        <ele>137.13</ele>
        <time>2011-09-21T12:42:34Z</time>
      </trkpt>
      <trkpt lat="48.21128" lon="-3.12702">
        <ele>137.61</ele>
        <time>2011-09-21T12:42:47Z</time>
      </trkpt>
      <trkpt lat="48.21133" lon="-3.12709">
        <ele>136.64</ele>
        <time>2011-09-21T12:42:58Z</time>
      </trkpt>
      <trkpt lat="48.2114" lon="-3.12714">
        <ele>137.13</ele>
        <time>2011-09-21T12:43:09Z</time>
      </trkpt>
      <trkpt lat="48.21142" lon="-3.12715">
        <ele>137.13</ele>
        <time>2011-09-21T12:43:11Z</time>
      </trkpt>
      <trkpt lat="48.21151" lon="-3.12717">
        <ele>136.64</ele>
        <time>2011-09-21T12:43:22Z</time>
      </trkpt>
      <trkpt lat="48.21158" lon="-3.12718">
        <ele>137.13</ele>
        <time>2011-09-21T12:43:32Z</time>
      </trkpt>
      <trkpt lat="48.21164" lon="-3.12719">
        <ele>137.61</ele>
        <time>2011-09-21T12:43:43Z</time>
      </trkpt>
      <trkpt lat="48.2116" lon="-3.12718">
        <ele>137.61</ele>
        <time>2011-09-21T12:43:53Z</time>
      </trkpt>
      <trkpt lat="48.21152" lon="-3.12715">
        <ele>137.61</ele>
        <time>2011-09-21T12:44:05Z</time>
      </trkpt>
      <trkpt lat="48.21147" lon="-3.12711">
        <ele>137.61</ele>
        <time>2011-09-21T12:44:17Z</time>
      </trkpt>
      <trkpt lat="48.21143" lon="-3.12709">
        <ele>137.13</ele>
        <time>2011-09-21T12:44:20Z</time>
      </trkpt>
      <trkpt lat="48.21134" lon="-3.12707">
        <ele>136.64</ele>
        <time>2011-09-21T12:44:31Z</time>
      </trkpt>
      <trkpt lat="48.21125" lon="-3.12705">
        <ele>136.64</ele>
        <time>2011-09-21T12:44:41Z</time>
      </trkpt>
      <trkpt lat="48.21118" lon="-3.12702">
        <ele>137.13</ele>
        <time>2011-09-21T12:44:53Z</time>
      </trkpt>
      <trkpt lat="48.21114" lon="-3.12697">
        <ele>137.13</ele>
        <time>2011-09-21T12:45:10Z</time>
      </trkpt>
      <trkpt lat="48.21108" lon="-3.12686">
        <ele>136.64</ele>
        <time>2011-09-21T12:45:20Z</time>
      </trkpt>
      <trkpt lat="48.21111" lon="-3.12674">
        <ele>137.13</ele>
        <time>2011-09-21T12:45:33Z</time>
      </trkpt>
      <trkpt lat="48.21114" lon="-3.12665">
        <ele>137.13</ele>
        <time>2011-09-21T12:45:50Z</time>
      </trkpt>
      <trkpt lat="48.21117" lon="-3.12655">
        <ele>137.13</ele>
        <time>2011-09-21T12:46:00Z</time>
      </trkpt>
      <trkpt lat="48.2112" lon="-3.12646">
        <ele>137.13</ele>
        <time>2011-09-21T12:46:10Z</time>
      </trkpt>
      <trkpt lat="48.21121" lon="-3.12637">
        <ele>137.13</ele>
        <time>2011-09-21T12:46:18Z</time>
      </trkpt>
      <trkpt lat="48.21122" lon="-3.12631">
        <ele>137.13</ele>
        <time>2011-09-21T12:46:26Z</time>
      </trkpt>
      <trkpt lat="48.21125" lon="-3.12619">
        <ele>137.13</ele>
        <time>2011-09-21T12:46:37Z</time>
      </trkpt>
      <trkpt lat="48.21134" lon="-3.12622">
        <ele>137.13</ele>
        <time>2011-09-21T12:46:53Z</time>
      </trkpt>
      <trkpt lat="48.21145" lon="-3.12624">
        <ele>137.61</ele>
        <time>2011-09-21T12:47:09Z</time>
      </trkpt>
      <trkpt lat="48.21147" lon="-3.12627">
        <ele>137.61</ele>
        <time>2011-09-21T12:47:22Z</time>
      </trkpt>
      <trkpt lat="48.2115" lon="-3.12636">
        <ele>138.09</ele>
        <time>2011-09-21T12:47:33Z</time>
      </trkpt>
      <trkpt lat="48.21149" lon="-3.12638">
        <ele>138.09</ele>
        <time>2011-09-21T12:47:43Z</time>
      </trkpt>
      <trkpt lat="48.21148" lon="-3.1264">
        <ele>137.61</ele>
        <time>2011-09-21T12:47:59Z</time>
      </trkpt>
      <trkpt lat="48.21145" lon="-3.12634">
        <ele>137.61</ele>
        <time>2011-09-21T12:48:09Z</time>
      </trkpt>
      <trkpt lat="48.21146" lon="-3.12634">
        <ele>137.13</ele>
        <time>2011-09-21T12:48:20Z</time>
      </trkpt>
      <trkpt lat="48.21146" lon="-3.12632">
        <ele>137.61</ele>
        <time>2011-09-21T12:48:34Z</time>
      </trkpt>
      <trkpt lat="48.21143" lon="-3.12622">
        <ele>137.13</ele>
        <time>2011-09-21T12:48:44Z</time>
      </trkpt>
      <trkpt lat="48.21136" lon="-3.1262">
        <ele>137.13</ele>
        <time>2011-09-21T12:48:56Z</time>
      </trkpt>
      <trkpt lat="48.21135" lon="-3.12616">
        <ele>137.13</ele>
        <time>2011-09-21T12:49:05Z</time>
      </trkpt>
      <trkpt lat="48.21133" lon="-3.12619">
        <ele>137.13</ele>
        <time>2011-09-21T12:49:20Z</time>
      </trkpt>
      <trkpt lat="48.2113" lon="-3.12619">
        <ele>137.13</ele>
        <time>2011-09-21T12:49:23Z</time>
      </trkpt>
      <trkpt lat="48.21123" lon="-3.12625">
        <ele>137.13</ele>
        <time>2011-09-21T12:49:33Z</time>
      </trkpt>
      <trkpt lat="48.21118" lon="-3.12634">
        <ele>137.13</ele>
        <time>2011-09-21T12:49:42Z</time>
      </trkpt>
      <trkpt lat="48.21114" lon="-3.12646">
        <ele>136.64</ele>
        <time>2011-09-21T12:49:52Z</time>
      </trkpt>
      <trkpt lat="48.21113" lon="-3.12653">
        <ele>136.16</ele>
        <time>2011-09-21T12:49:58Z</time>
      </trkpt>
      <trkpt lat="48.21107" lon="-3.12668">
        <ele>136.16</ele>
        <time>2011-09-21T12:50:10Z</time>
      </trkpt>
      <trkpt lat="48.21104" lon="-3.12683">
        <ele>136.16</ele>
        <time>2011-09-21T12:50:20Z</time>
      </trkpt>
      <trkpt lat="48.21105" lon="-3.12696">
        <ele>134.72</ele>
        <time>2011-09-21T12:50:29Z</time>
      </trkpt>
      <trkpt lat="48.21105" lon="-3.12697">
        <ele>135.2</ele>
        <time>2011-09-21T12:50:30Z</time>
      </trkpt>
      <trkpt lat="48.21129" lon="-3.12715">
        <ele>135.68</ele>
        <time>2011-09-21T12:50:49Z</time>
      </trkpt>
      <trkpt lat="48.2113" lon="-3.12717">
        <ele>135.68</ele>
        <time>2011-09-21T12:50:50Z</time>
      </trkpt>
      <trkpt lat="48.21136" lon="-3.12709">
        <ele>136.16</ele>
        <time>2011-09-21T12:51:03Z</time>
      </trkpt>
      <trkpt lat="48.21133" lon="-3.12712">
        <ele>135.68</ele>
        <time>2011-09-21T12:51:18Z</time>
      </trkpt>
      <trkpt lat="48.21129" lon="-3.12711">
        <ele>136.16</ele>
        <time>2011-09-21T12:51:32Z</time>
      </trkpt>
      <trkpt lat="48.21129" lon="-3.12707">
        <ele>135.68</ele>
        <time>2011-09-21T12:51:52Z</time>
      </trkpt>
      <trkpt lat="48.2113" lon="-3.12704">
        <ele>136.16</ele>
        <time>2011-09-21T12:52:03Z</time>
      </trkpt>
      <trkpt lat="48.21132" lon="-3.12701">
        <ele>136.64</ele>
        <time>2011-09-21T12:52:15Z</time>
      </trkpt>
      <trkpt lat="48.2113" lon="-3.12699">
        <ele>136.64</ele>
        <time>2011-09-21T12:52:33Z</time>
      </trkpt>
      <trkpt lat="48.2113" lon="-3.12699">
        <ele>136.64</ele>
        <time>2011-09-21T12:52:53Z</time>
      </trkpt>
      <trkpt lat="48.2113" lon="-3.12699">
        <ele>136.64</ele>
        <time>2011-09-21T12:53:15Z</time>
      </trkpt>
      <trkpt lat="48.2113" lon="-3.12699">
        <ele>137.13</ele>
        <time>2011-09-21T12:53:41Z</time>
      </trkpt>
      <trkpt lat="48.2113" lon="-3.12701">
        <ele>136.16</ele>
        <time>2011-09-21T12:53:44Z</time>
      </trkpt>
      <trkpt lat="48.21129" lon="-3.12704">
        <ele>136.16</ele>
        <time>2011-09-21T12:53:52Z</time>
      </trkpt>
      <trkpt lat="48.2113" lon="-3.12706">
        <ele>135.68</ele>
        <time>2011-09-21T12:53:54Z</time>
      </trkpt>
      <trkpt lat="48.21135" lon="-3.12708">
        <ele>135.68</ele>
        <time>2011-09-21T12:54:00Z</time>
      </trkpt>
      <trkpt lat="48.21143" lon="-3.12711">
        <ele>135.2</ele>
        <time>2011-09-21T12:54:09Z</time>
      </trkpt>
      <trkpt lat="48.21151" lon="-3.12716">
        <ele>135.68</ele>
        <time>2011-09-21T12:54:18Z</time>
      </trkpt>
      <trkpt lat="48.21155" lon="-3.12716">
        <ele>135.68</ele>
        <time>2011-09-21T12:54:21Z</time>
      </trkpt>
      <trkpt lat="48.21161" lon="-3.1272">
        <ele>135.68</ele>
        <time>2011-09-21T12:54:27Z</time>
      </trkpt>
      <trkpt lat="48.21167" lon="-3.12715">
        <ele>136.16</ele>
        <time>2011-09-21T12:54:39Z</time>
      </trkpt>
      <trkpt lat="48.21171" lon="-3.12706">
        <ele>136.16</ele>
        <time>2011-09-21T12:54:49Z</time>
      </trkpt>
      <trkpt lat="48.21171" lon="-3.12701">
        <ele>136.16</ele>
        <time>2011-09-21T12:55:00Z</time>
      </trkpt>
      <trkpt lat="48.21171" lon="-3.12701">
        <ele>136.64</ele>
        <time>2011-09-21T12:55:17Z</time>
      </trkpt>
      <trkpt lat="48.21172" lon="-3.12696">
        <ele>136.64</ele>
        <time>2011-09-21T12:55:28Z</time>
      </trkpt>
      <trkpt lat="48.21173" lon="-3.12696">
        <ele>136.16</ele>
        <time>2011-09-21T12:55:39Z</time>
      </trkpt>
      <trkpt lat="48.21178" lon="-3.12699">
        <ele>136.16</ele>
        <time>2011-09-21T12:55:53Z</time>
      </trkpt>
      <trkpt lat="48.21183" lon="-3.12702">
        <ele>135.68</ele>
        <time>2011-09-21T12:56:02Z</time>
      </trkpt>
      <trkpt lat="48.21183" lon="-3.12704">
        <ele>136.16</ele>
        <time>2011-09-21T12:56:11Z</time>
      </trkpt>
      <trkpt lat="48.21183" lon="-3.12704">
        <ele>136.16</ele>
        <time>2011-09-21T12:56:24Z</time>
      </trkpt>
      <trkpt lat="48.21191" lon="-3.12697">
        <ele>136.16</ele>
        <time>2011-09-21T12:56:40Z</time>
      </trkpt>
      <trkpt lat="48.21212" lon="-3.12691">
        <ele>136.16</ele>
        <time>2011-09-21T12:56:56Z</time>
      </trkpt>
      <trkpt lat="48.21253" lon="-3.12654">
        <ele>136.16</ele>
        <time>2011-09-21T12:57:25Z</time>
      </trkpt>
      <trkpt lat="48.21192" lon="-3.1269">
        <ele>136.16</ele>
        <time>2011-09-21T12:58:22Z</time>
      </trkpt>
      <trkpt lat="48.21186" lon="-3.12708">
        <ele>136.16</ele>
        <time>2011-09-21T12:58:33Z</time>
      </trkpt>
      <trkpt lat="48.21181" lon="-3.12714">
        <ele>136.16</ele>
        <time>2011-09-21T12:58:47Z</time>
      </trkpt>
      <trkpt lat="48.21181" lon="-3.12714">
        <ele>136.64</ele>
        <time>2011-09-21T12:58:58Z</time>
      </trkpt>
      <trkpt lat="48.21185" lon="-3.12708">
        <ele>136.64</ele>
        <time>2011-09-21T12:59:14Z</time>
      </trkpt>
      <trkpt lat="48.21183" lon="-3.1271">
        <ele>136.16</ele>
        <time>2011-09-21T12:59:24Z</time>
      </trkpt>
      <trkpt lat="48.2118" lon="-3.12718">
        <ele>135.68</ele>
        <time>2011-09-21T12:59:34Z</time>
      </trkpt>
      <trkpt lat="48.2118" lon="-3.1272">
        <ele>136.64</ele>
        <time>2011-09-21T12:59:36Z</time>
      </trkpt>
      <trkpt lat="48.21182" lon="-3.12731">
        <ele>135.68</ele>
        <time>2011-09-21T12:59:45Z</time>
      </trkpt>
      <trkpt lat="48.21187" lon="-3.12734">
        <ele>135.2</ele>
        <time>2011-09-21T12:59:50Z</time>
      </trkpt>
      <trkpt lat="48.21194" lon="-3.12738">
        <ele>135.68</ele>
        <time>2011-09-21T12:59:57Z</time>
      </trkpt>
      <trkpt lat="48.21201" lon="-3.12742">
        <ele>135.2</ele>
        <time>2011-09-21T13:00:06Z</time>
      </trkpt>
      <trkpt lat="48.21205" lon="-3.12744">
        <ele>135.68</ele>
        <time>2011-09-21T13:00:14Z</time>
      </trkpt>
      <trkpt lat="48.21218" lon="-3.12754">
        <ele>135.68</ele>
        <time>2011-09-21T13:00:25Z</time>
      </trkpt>
      <trkpt lat="48.21227" lon="-3.1276">
        <ele>134.72</ele>
        <time>2011-09-21T13:00:36Z</time>
      </trkpt>
      <trkpt lat="48.21236" lon="-3.12766">
        <ele>134.24</ele>
        <time>2011-09-21T13:00:45Z</time>
      </trkpt>
      <trkpt lat="48.21248" lon="-3.12775">
        <ele>133.28</ele>
        <time>2011-09-21T13:00:56Z</time>
      </trkpt>
      <trkpt lat="48.21257" lon="-3.12781">
        <ele>133.28</ele>
        <time>2011-09-21T13:01:07Z</time>
      </trkpt>
      <trkpt lat="48.21267" lon="-3.12788">
        <ele>132.8</ele>
        <time>2011-09-21T13:01:19Z</time>
      </trkpt>
      <trkpt lat="48.21279" lon="-3.12798">
        <ele>132.32</ele>
        <time>2011-09-21T13:01:32Z</time>
      </trkpt>
      <trkpt lat="48.21291" lon="-3.12806">
        <ele>131.84</ele>
        <time>2011-09-21T13:01:45Z</time>
      </trkpt>
      <trkpt lat="48.21296" lon="-3.12809">
        <ele>131.36</ele>
        <time>2011-09-21T13:01:49Z</time>
      </trkpt>
      <trkpt lat="48.21303" lon="-3.12816">
        <ele>130.88</ele>
        <time>2011-09-21T13:01:55Z</time>
      </trkpt>
      <trkpt lat="48.21299" lon="-3.12825">
        <ele>131.36</ele>
        <time>2011-09-21T13:02:06Z</time>
      </trkpt>
      <trkpt lat="48.21298" lon="-3.12826">
        <ele>130.88</ele>
        <time>2011-09-21T13:02:07Z</time>
      </trkpt>
      <trkpt lat="48.21296" lon="-3.12828">
        <ele>131.36</ele>
        <time>2011-09-21T13:02:09Z</time>
      </trkpt>
      <trkpt lat="48.21285" lon="-3.12846">
        <ele>131.36</ele>
        <time>2011-09-21T13:02:21Z</time>
      </trkpt>
      <trkpt lat="48.21278" lon="-3.12857">
        <ele>130.4</ele>
        <time>2011-09-21T13:02:30Z</time>
      </trkpt>
      <trkpt lat="48.21276" lon="-3.12861">
        <ele>130.88</ele>
        <time>2011-09-21T13:02:33Z</time>
      </trkpt>
      <trkpt lat="48.21274" lon="-3.12865">
        <ele>130.88</ele>
        <time>2011-09-21T13:02:36Z</time>
      </trkpt>
      <trkpt lat="48.21272" lon="-3.1287">
        <ele>130.88</ele>
        <time>2011-09-21T13:02:39Z</time>
      </trkpt>
      <trkpt lat="48.21263" lon="-3.12887">
        <ele>130.4</ele>
        <time>2011-09-21T13:02:52Z</time>
      </trkpt>
      <trkpt lat="48.21263" lon="-3.12888">
        <ele>130.4</ele>
        <time>2011-09-21T13:02:53Z</time>
      </trkpt>
      <trkpt lat="48.21255" lon="-3.12907">
        <ele>130.4</ele>
        <time>2011-09-21T13:03:04Z</time>
      </trkpt>
      <trkpt lat="48.21248" lon="-3.12924">
        <ele>130.88</ele>
        <time>2011-09-21T13:03:16Z</time>
      </trkpt>
      <trkpt lat="48.21243" lon="-3.12934">
        <ele>130.88</ele>
        <time>2011-09-21T13:03:28Z</time>
      </trkpt>
      <trkpt lat="48.21239" lon="-3.1294">
        <ele>130.88</ele>
        <time>2011-09-21T13:03:33Z</time>
      </trkpt>
      <trkpt lat="48.21233" lon="-3.12946">
        <ele>130.88</ele>
        <time>2011-09-21T13:03:39Z</time>
      </trkpt>
      <trkpt lat="48.21231" lon="-3.1295">
        <ele>131.36</ele>
        <time>2011-09-21T13:03:42Z</time>
      </trkpt>
      <trkpt lat="48.21225" lon="-3.12962">
        <ele>131.36</ele>
        <time>2011-09-21T13:03:51Z</time>
      </trkpt>
      <trkpt lat="48.21217" lon="-3.12973">
        <ele>131.36</ele>
        <time>2011-09-21T13:04:03Z</time>
      </trkpt>
      <trkpt lat="48.21214" lon="-3.12981">
        <ele>131.36</ele>
        <time>2011-09-21T13:04:13Z</time>
      </trkpt>
      <trkpt lat="48.21213" lon="-3.12982">
        <ele>131.36</ele>
        <time>2011-09-21T13:04:14Z</time>
      </trkpt>
      <trkpt lat="48.21212" lon="-3.12985">
        <ele>131.36</ele>
        <time>2011-09-21T13:04:16Z</time>
      </trkpt>
      <trkpt lat="48.2121" lon="-3.1299">
        <ele>131.36</ele>
        <time>2011-09-21T13:04:19Z</time>
      </trkpt>
      <trkpt lat="48.21208" lon="-3.13008">
        <ele>130.4</ele>
        <time>2011-09-21T13:04:33Z</time>
      </trkpt>
      <trkpt lat="48.21209" lon="-3.1301">
        <ele>130.88</ele>
        <time>2011-09-21T13:04:35Z</time>
      </trkpt>
      <trkpt lat="48.21219" lon="-3.1302">
        <ele>129.92</ele>
        <time>2011-09-21T13:04:46Z</time>
      </trkpt>
      <trkpt lat="48.2123" lon="-3.13033">
        <ele>129.92</ele>
        <time>2011-09-21T13:04:59Z</time>
      </trkpt>
      <trkpt lat="48.21234" lon="-3.13037">
        <ele>129.92</ele>
        <time>2011-09-21T13:05:04Z</time>
      </trkpt>
      <trkpt lat="48.21244" lon="-3.13053">
        <ele>129.92</ele>
        <time>2011-09-21T13:05:17Z</time>
      </trkpt>
      <trkpt lat="48.21248" lon="-3.13059">
        <ele>130.4</ele>
        <time>2011-09-21T13:05:29Z</time>
      </trkpt>
      <trkpt lat="48.21248" lon="-3.13059">
        <ele>130.4</ele>
        <time>2011-09-21T13:05:41Z</time>
      </trkpt>
      <trkpt lat="48.21249" lon="-3.1306">
        <ele>129.92</ele>
        <time>2011-09-21T13:05:55Z</time>
      </trkpt>
      <trkpt lat="48.21249" lon="-3.1306">
        <ele>129.92</ele>
        <time>2011-09-21T13:06:07Z</time>
      </trkpt>
      <trkpt lat="48.21249" lon="-3.13063">
        <ele>129.92</ele>
        <time>2011-09-21T13:06:09Z</time>
      </trkpt>
      <trkpt lat="48.21258" lon="-3.13072">
        <ele>129.92</ele>
        <time>2011-09-21T13:06:21Z</time>
      </trkpt>
      <trkpt lat="48.21264" lon="-3.13081">
        <ele>129.43</ele>
        <time>2011-09-21T13:06:31Z</time>
      </trkpt>
      <trkpt lat="48.21272" lon="-3.13092">
        <ele>129.43</ele>
        <time>2011-09-21T13:06:42Z</time>
      </trkpt>
      <trkpt lat="48.21272" lon="-3.13092">
        <ele>129.43</ele>
        <time>2011-09-21T13:06:52Z</time>
      </trkpt>
      <trkpt lat="48.21272" lon="-3.13092">
        <ele>128.95</ele>
        <time>2011-09-21T13:07:05Z</time>
      </trkpt>
      <trkpt lat="48.21281" lon="-3.13114">
        <ele>128.95</ele>
        <time>2011-09-21T13:07:17Z</time>
      </trkpt>
      <trkpt lat="48.21297" lon="-3.13131">
        <ele>127.99</ele>
        <time>2011-09-21T13:07:29Z</time>
      </trkpt>
      <trkpt lat="48.21315" lon="-3.1315">
        <ele>127.99</ele>
        <time>2011-09-21T13:07:44Z</time>
      </trkpt>
      <trkpt lat="48.21324" lon="-3.13169">
        <ele>127.51</ele>
        <time>2011-09-21T13:07:59Z</time>
      </trkpt>
      <trkpt lat="48.21325" lon="-3.13171">
        <ele>127.51</ele>
        <time>2011-09-21T13:08:00Z</time>
      </trkpt>
      <trkpt lat="48.21343" lon="-3.13189">
        <ele>127.99</ele>
        <time>2011-09-21T13:08:10Z</time>
      </trkpt>
      <trkpt lat="48.21356" lon="-3.13205">
        <ele>127.51</ele>
        <time>2011-09-21T13:08:21Z</time>
      </trkpt>
      <trkpt lat="48.21358" lon="-3.13208">
        <ele>127.51</ele>
        <time>2011-09-21T13:08:23Z</time>
      </trkpt>
      <trkpt lat="48.21365" lon="-3.1323">
        <ele>127.03</ele>
        <time>2011-09-21T13:08:35Z</time>
      </trkpt>
      <trkpt lat="48.2137" lon="-3.13246">
        <ele>127.03</ele>
        <time>2011-09-21T13:08:45Z</time>
      </trkpt>
      <trkpt lat="48.2137" lon="-3.13258">
        <ele>127.03</ele>
        <time>2011-09-21T13:08:51Z</time>
      </trkpt>
      <trkpt lat="48.2137" lon="-3.13274">
        <ele>127.03</ele>
        <time>2011-09-21T13:08:58Z</time>
      </trkpt>
      <trkpt lat="48.21369" lon="-3.133">
        <ele>127.51</ele>
        <time>2011-09-21T13:09:11Z</time>
      </trkpt>
      <trkpt lat="48.2137" lon="-3.13324">
        <ele>127.51</ele>
        <time>2011-09-21T13:09:24Z</time>
      </trkpt>
      <trkpt lat="48.21371" lon="-3.13342">
        <ele>127.51</ele>
        <time>2011-09-21T13:09:34Z</time>
      </trkpt>
      <trkpt lat="48.21371" lon="-3.13361">
        <ele>127.03</ele>
        <time>2011-09-21T13:09:45Z</time>
      </trkpt>
      <trkpt lat="48.21371" lon="-3.13378">
        <ele>127.03</ele>
        <time>2011-09-21T13:09:56Z</time>
      </trkpt>
      <trkpt lat="48.21371" lon="-3.1339">
        <ele>127.51</ele>
        <time>2011-09-21T13:10:03Z</time>
      </trkpt>
      <trkpt lat="48.21373" lon="-3.13411">
        <ele>127.03</ele>
        <time>2011-09-21T13:10:15Z</time>
      </trkpt>
      <trkpt lat="48.21373" lon="-3.13413">
        <ele>127.51</ele>
        <time>2011-09-21T13:10:16Z</time>
      </trkpt>
      <trkpt lat="48.21376" lon="-3.13434">
        <ele>127.51</ele>
        <time>2011-09-21T13:10:29Z</time>
      </trkpt>
      <trkpt lat="48.21383" lon="-3.13455">
        <ele>127.03</ele>
        <time>2011-09-21T13:10:40Z</time>
      </trkpt>
      <trkpt lat="48.21384" lon="-3.13464">
        <ele>127.03</ele>
        <time>2011-09-21T13:10:45Z</time>
      </trkpt>
      <trkpt lat="48.21385" lon="-3.13473">
        <ele>127.51</ele>
        <time>2011-09-21T13:10:50Z</time>
      </trkpt>
      <trkpt lat="48.21387" lon="-3.13492">
        <ele>127.51</ele>
        <time>2011-09-21T13:11:03Z</time>
      </trkpt>
      <trkpt lat="48.21387" lon="-3.13514">
        <ele>127.51</ele>
        <time>2011-09-21T13:11:15Z</time>
      </trkpt>
      <trkpt lat="48.21388" lon="-3.13533">
        <ele>127.51</ele>
        <time>2011-09-21T13:11:26Z</time>
      </trkpt>
      <trkpt lat="48.2139" lon="-3.13555">
        <ele>127.03</ele>
        <time>2011-09-21T13:11:38Z</time>
      </trkpt>
      <trkpt lat="48.21391" lon="-3.13569">
        <ele>127.03</ele>
        <time>2011-09-21T13:11:47Z</time>
      </trkpt>
      <trkpt lat="48.21396" lon="-3.1359">
        <ele>127.51</ele>
        <time>2011-09-21T13:11:59Z</time>
      </trkpt>
      <trkpt lat="48.21396" lon="-3.1361">
        <ele>127.51</ele>
        <time>2011-09-21T13:12:09Z</time>
      </trkpt>
      <trkpt lat="48.21396" lon="-3.13622">
        <ele>127.03</ele>
        <time>2011-09-21T13:12:16Z</time>
      </trkpt>
      <trkpt lat="48.21398" lon="-3.13638">
        <ele>127.03</ele>
        <time>2011-09-21T13:12:25Z</time>
      </trkpt>
      <trkpt lat="48.214" lon="-3.13658">
        <ele>126.55</ele>
        <time>2011-09-21T13:12:36Z</time>
      </trkpt>
      <trkpt lat="48.214" lon="-3.13672">
        <ele>127.03</ele>
        <time>2011-09-21T13:12:44Z</time>
      </trkpt>
      <trkpt lat="48.21404" lon="-3.13683">
        <ele>127.03</ele>
        <time>2011-09-21T13:12:52Z</time>
      </trkpt>
      <trkpt lat="48.2141" lon="-3.13697">
        <ele>126.55</ele>
        <time>2011-09-21T13:13:01Z</time>
      </trkpt>
      <trkpt lat="48.21418" lon="-3.13719">
        <ele>127.03</ele>
        <time>2011-09-21T13:13:15Z</time>
      </trkpt>
      <trkpt lat="48.21424" lon="-3.13741">
        <ele>126.55</ele>
        <time>2011-09-21T13:13:26Z</time>
      </trkpt>
      <trkpt lat="48.21428" lon="-3.13758">
        <ele>127.03</ele>
        <time>2011-09-21T13:13:36Z</time>
      </trkpt>
      <trkpt lat="48.2143" lon="-3.13777">
        <ele>127.03</ele>
        <time>2011-09-21T13:13:45Z</time>
      </trkpt>
      <trkpt lat="48.21431" lon="-3.13778">
        <ele>126.55</ele>
        <time>2011-09-21T13:13:46Z</time>
      </trkpt>
      <trkpt lat="48.21432" lon="-3.13789">
        <ele>126.55</ele>
        <time>2011-09-21T13:13:52Z</time>
      </trkpt>
      <trkpt lat="48.21434" lon="-3.13808">
        <ele>126.55</ele>
        <time>2011-09-21T13:14:03Z</time>
      </trkpt>
      <trkpt lat="48.21436" lon="-3.13828">
        <ele>127.03</ele>
        <time>2011-09-21T13:14:14Z</time>
      </trkpt>
      <trkpt lat="48.21436" lon="-3.13833">
        <ele>127.03</ele>
        <time>2011-09-21T13:14:17Z</time>
      </trkpt>
      <trkpt lat="48.21437" lon="-3.13851">
        <ele>127.03</ele>
        <time>2011-09-21T13:14:27Z</time>
      </trkpt>
      <trkpt lat="48.21437" lon="-3.13853">
        <ele>127.03</ele>
        <time>2011-09-21T13:14:28Z</time>
      </trkpt>
      <trkpt lat="48.21437" lon="-3.13873">
        <ele>127.03</ele>
        <time>2011-09-21T13:14:40Z</time>
      </trkpt>
      <trkpt lat="48.21437" lon="-3.13879">
        <ele>127.51</ele>
        <time>2011-09-21T13:14:43Z</time>
      </trkpt>
      <trkpt lat="48.21438" lon="-3.13888">
        <ele>127.03</ele>
        <time>2011-09-21T13:14:48Z</time>
      </trkpt>
      <trkpt lat="48.21438" lon="-3.13894">
        <ele>127.03</ele>
        <time>2011-09-21T13:14:51Z</time>
      </trkpt>
      <trkpt lat="48.21439" lon="-3.13902">
        <ele>127.03</ele>
        <time>2011-09-21T13:14:56Z</time>
      </trkpt>
      <trkpt lat="48.21438" lon="-3.13909">
        <ele>127.03</ele>
        <time>2011-09-21T13:15:00Z</time>
      </trkpt>
      <trkpt lat="48.21438" lon="-3.13928">
        <ele>127.03</ele>
        <time>2011-09-21T13:15:11Z</time>
      </trkpt>
      <trkpt lat="48.21438" lon="-3.13939">
        <ele>127.03</ele>
        <time>2011-09-21T13:15:20Z</time>
      </trkpt>
      <trkpt lat="48.2144" lon="-3.13956">
        <ele>126.55</ele>
        <time>2011-09-21T13:15:30Z</time>
      </trkpt>
      <trkpt lat="48.21441" lon="-3.13963">
        <ele>127.03</ele>
        <time>2011-09-21T13:15:35Z</time>
      </trkpt>
      <trkpt lat="48.21442" lon="-3.13982">
        <ele>127.03</ele>
        <time>2011-09-21T13:15:46Z</time>
      </trkpt>
      <trkpt lat="48.21445" lon="-3.13991">
        <ele>126.55</ele>
        <time>2011-09-21T13:15:56Z</time>
      </trkpt>
      <trkpt lat="48.21445" lon="-3.13991">
        <ele>126.55</ele>
        <time>2011-09-21T13:16:08Z</time>
      </trkpt>
      <trkpt lat="48.21444" lon="-3.14011">
        <ele>126.07</ele>
        <time>2011-09-21T13:16:16Z</time>
      </trkpt>
      <trkpt lat="48.21445" lon="-3.14043">
        <ele>126.07</ele>
        <time>2011-09-21T13:16:28Z</time>
      </trkpt>
      <trkpt lat="48.21447" lon="-3.14062">
        <ele>127.03</ele>
        <time>2011-09-21T13:16:37Z</time>
      </trkpt>
      <trkpt lat="48.2145" lon="-3.14082">
        <ele>126.55</ele>
        <time>2011-09-21T13:16:47Z</time>
      </trkpt>
      <trkpt lat="48.21449" lon="-3.14102">
        <ele>125.59</ele>
        <time>2011-09-21T13:16:57Z</time>
      </trkpt>
      <trkpt lat="48.21449" lon="-3.1411">
        <ele>126.07</ele>
        <time>2011-09-21T13:17:01Z</time>
      </trkpt>
      <trkpt lat="48.21446" lon="-3.14131">
        <ele>126.07</ele>
        <time>2011-09-21T13:17:12Z</time>
      </trkpt>
      <trkpt lat="48.21443" lon="-3.14152">
        <ele>126.07</ele>
        <time>2011-09-21T13:17:22Z</time>
      </trkpt>
      <trkpt lat="48.21441" lon="-3.14165">
        <ele>126.07</ele>
        <time>2011-09-21T13:17:32Z</time>
      </trkpt>
      <trkpt lat="48.21442" lon="-3.14179">
        <ele>125.59</ele>
        <time>2011-09-21T13:17:42Z</time>
      </trkpt>
      <trkpt lat="48.21442" lon="-3.14197">
        <ele>126.07</ele>
        <time>2011-09-21T13:17:49Z</time>
      </trkpt>
      <trkpt lat="48.21446" lon="-3.14224">
        <ele>126.07</ele>
        <time>2011-09-21T13:18:02Z</time>
      </trkpt>
      <trkpt lat="48.21449" lon="-3.14241">
        <ele>125.11</ele>
        <time>2011-09-21T13:18:13Z</time>
      </trkpt>
      <trkpt lat="48.2145" lon="-3.14253">
        <ele>125.11</ele>
        <time>2011-09-21T13:18:21Z</time>
      </trkpt>
      <trkpt lat="48.21459" lon="-3.14274">
        <ele>125.59</ele>
        <time>2011-09-21T13:18:32Z</time>
      </trkpt>
      <trkpt lat="48.21462" lon="-3.1429">
        <ele>125.59</ele>
        <time>2011-09-21T13:18:41Z</time>
      </trkpt>
      <trkpt lat="48.21463" lon="-3.14297">
        <ele>125.11</ele>
        <time>2011-09-21T13:18:45Z</time>
      </trkpt>
      <trkpt lat="48.2146" lon="-3.14315">
        <ele>125.11</ele>
        <time>2011-09-21T13:18:54Z</time>
      </trkpt>
      <trkpt lat="48.21459" lon="-3.1432">
        <ele>125.59</ele>
        <time>2011-09-21T13:18:56Z</time>
      </trkpt>
      <trkpt lat="48.21457" lon="-3.14326">
        <ele>125.59</ele>
        <time>2011-09-21T13:18:59Z</time>
      </trkpt>
      <trkpt lat="48.21452" lon="-3.14348">
        <ele>125.59</ele>
        <time>2011-09-21T13:19:10Z</time>
      </trkpt>
      <trkpt lat="48.21451" lon="-3.14352">
        <ele>125.59</ele>
        <time>2011-09-21T13:19:12Z</time>
      </trkpt>
      <trkpt lat="48.21448" lon="-3.14362">
        <ele>125.11</ele>
        <time>2011-09-21T13:19:17Z</time>
      </trkpt>
      <trkpt lat="48.21445" lon="-3.14382">
        <ele>125.11</ele>
        <time>2011-09-21T13:19:28Z</time>
      </trkpt>
      <trkpt lat="48.21442" lon="-3.14397">
        <ele>125.11</ele>
        <time>2011-09-21T13:19:37Z</time>
      </trkpt>
      <trkpt lat="48.21442" lon="-3.14402">
        <ele>125.11</ele>
        <time>2011-09-21T13:19:40Z</time>
      </trkpt>
      <trkpt lat="48.2144" lon="-3.1442">
        <ele>124.63</ele>
        <time>2011-09-21T13:19:50Z</time>
      </trkpt>
      <trkpt lat="48.21439" lon="-3.14432">
        <ele>125.11</ele>
        <time>2011-09-21T13:19:57Z</time>
      </trkpt>
      <trkpt lat="48.21438" lon="-3.14444">
        <ele>125.11</ele>
        <time>2011-09-21T13:20:05Z</time>
      </trkpt>
      <trkpt lat="48.21432" lon="-3.14463">
        <ele>125.11</ele>
        <time>2011-09-21T13:20:14Z</time>
      </trkpt>
      <trkpt lat="48.21431" lon="-3.14469">
        <ele>125.11</ele>
        <time>2011-09-21T13:20:18Z</time>
      </trkpt>
      <trkpt lat="48.21428" lon="-3.14489">
        <ele>124.63</ele>
        <time>2011-09-21T13:20:28Z</time>
      </trkpt>
      <trkpt lat="48.21423" lon="-3.14508">
        <ele>124.63</ele>
        <time>2011-09-21T13:20:39Z</time>
      </trkpt>
      <trkpt lat="48.21419" lon="-3.14521">
        <ele>125.11</ele>
        <time>2011-09-21T13:20:46Z</time>
      </trkpt>
      <trkpt lat="48.21414" lon="-3.14542">
        <ele>124.63</ele>
        <time>2011-09-21T13:20:56Z</time>
      </trkpt>
      <trkpt lat="48.2141" lon="-3.14558">
        <ele>125.11</ele>
        <time>2011-09-21T13:21:05Z</time>
      </trkpt>
      <trkpt lat="48.21411" lon="-3.1456">
        <ele>125.11</ele>
        <time>2011-09-21T13:21:07Z</time>
      </trkpt>
      <trkpt lat="48.21409" lon="-3.14566">
        <ele>124.63</ele>
        <time>2011-09-21T13:21:10Z</time>
      </trkpt>
      <trkpt lat="48.21408" lon="-3.14569">
        <ele>125.11</ele>
        <time>2011-09-21T13:21:12Z</time>
      </trkpt>
      <trkpt lat="48.21408" lon="-3.14577">
        <ele>124.63</ele>
        <time>2011-09-21T13:21:17Z</time>
      </trkpt>
      <trkpt lat="48.21404" lon="-3.14594">
        <ele>124.15</ele>
        <time>2011-09-21T13:21:27Z</time>
      </trkpt>
      <trkpt lat="48.21405" lon="-3.14599">
        <ele>124.15</ele>
        <time>2011-09-21T13:21:32Z</time>
      </trkpt>
      <trkpt lat="48.21404" lon="-3.14602">
        <ele>124.15</ele>
        <time>2011-09-21T13:21:34Z</time>
      </trkpt>
      <trkpt lat="48.21403" lon="-3.14612">
        <ele>124.63</ele>
        <time>2011-09-21T13:21:40Z</time>
      </trkpt>
      <trkpt lat="48.21399" lon="-3.14631">
        <ele>124.15</ele>
        <time>2011-09-21T13:21:50Z</time>
      </trkpt>
      <trkpt lat="48.21399" lon="-3.14643">
        <ele>124.15</ele>
        <time>2011-09-21T13:21:57Z</time>
      </trkpt>
      <trkpt lat="48.21397" lon="-3.1465">
        <ele>124.15</ele>
        <time>2011-09-21T13:22:01Z</time>
      </trkpt>
      <trkpt lat="48.21396" lon="-3.14659">
        <ele>124.15</ele>
        <time>2011-09-21T13:22:07Z</time>
      </trkpt>
      <trkpt lat="48.21391" lon="-3.14677">
        <ele>124.15</ele>
        <time>2011-09-21T13:22:17Z</time>
      </trkpt>
      <trkpt lat="48.21391" lon="-3.14685">
        <ele>124.15</ele>
        <time>2011-09-21T13:22:22Z</time>
      </trkpt>
      <trkpt lat="48.2139" lon="-3.14695">
        <ele>124.15</ele>
        <time>2011-09-21T13:22:26Z</time>
      </trkpt>
      <trkpt lat="48.21386" lon="-3.14714">
        <ele>124.15</ele>
        <time>2011-09-21T13:22:36Z</time>
      </trkpt>
      <trkpt lat="48.21384" lon="-3.14728">
        <ele>124.15</ele>
        <time>2011-09-21T13:22:43Z</time>
      </trkpt>
      <trkpt lat="48.21384" lon="-3.14734">
        <ele>123.67</ele>
        <time>2011-09-21T13:22:51Z</time>
      </trkpt>
      <trkpt lat="48.21384" lon="-3.14734">
        <ele>124.15</ele>
        <time>2011-09-21T13:22:54Z</time>
      </trkpt>
      <trkpt lat="48.21383" lon="-3.14738">
        <ele>123.67</ele>
        <time>2011-09-21T13:23:01Z</time>
      </trkpt>
      <trkpt lat="48.2138" lon="-3.14751">
        <ele>124.15</ele>
        <time>2011-09-21T13:23:09Z</time>
      </trkpt>
      <trkpt lat="48.2138" lon="-3.14759">
        <ele>123.67</ele>
        <time>2011-09-21T13:23:13Z</time>
      </trkpt>
      <trkpt lat="48.21378" lon="-3.14765">
        <ele>123.67</ele>
        <time>2011-09-21T13:23:17Z</time>
      </trkpt>
      <trkpt lat="48.21373" lon="-3.14784">
        <ele>123.67</ele>
        <time>2011-09-21T13:23:28Z</time>
      </trkpt>
      <trkpt lat="48.21369" lon="-3.14793">
        <ele>124.15</ele>
        <time>2011-09-21T13:23:33Z</time>
      </trkpt>
      <trkpt lat="48.21366" lon="-3.14805">
        <ele>124.15</ele>
        <time>2011-09-21T13:23:39Z</time>
      </trkpt>
      <trkpt lat="48.21361" lon="-3.14822">
        <ele>123.67</ele>
        <time>2011-09-21T13:23:50Z</time>
      </trkpt>
      <trkpt lat="48.21355" lon="-3.14841">
        <ele>124.15</ele>
        <time>2011-09-21T13:24:00Z</time>
      </trkpt>
      <trkpt lat="48.21349" lon="-3.14859">
        <ele>123.19</ele>
        <time>2011-09-21T13:24:09Z</time>
      </trkpt>
      <trkpt lat="48.21348" lon="-3.14864">
        <ele>124.15</ele>
        <time>2011-09-21T13:24:12Z</time>
      </trkpt>
      <trkpt lat="48.21341" lon="-3.14882">
        <ele>123.67</ele>
        <time>2011-09-21T13:24:21Z</time>
      </trkpt>
      <trkpt lat="48.21335" lon="-3.14895">
        <ele>124.15</ele>
        <time>2011-09-21T13:24:29Z</time>
      </trkpt>
      <trkpt lat="48.21333" lon="-3.14908">
        <ele>124.15</ele>
        <time>2011-09-21T13:24:37Z</time>
      </trkpt>
      <trkpt lat="48.21328" lon="-3.14922">
        <ele>124.63</ele>
        <time>2011-09-21T13:24:46Z</time>
      </trkpt>
      <trkpt lat="48.21324" lon="-3.1493">
        <ele>124.15</ele>
        <time>2011-09-21T13:24:51Z</time>
      </trkpt>
      <trkpt lat="48.21322" lon="-3.1494">
        <ele>124.15</ele>
        <time>2011-09-21T13:24:57Z</time>
      </trkpt>
      <trkpt lat="48.2132" lon="-3.14954">
        <ele>124.63</ele>
        <time>2011-09-21T13:25:06Z</time>
      </trkpt>
      <trkpt lat="48.21318" lon="-3.14978">
        <ele>124.15</ele>
        <time>2011-09-21T13:25:17Z</time>
      </trkpt>
      <trkpt lat="48.21318" lon="-3.14986">
        <ele>124.15</ele>
        <time>2011-09-21T13:25:21Z</time>
      </trkpt>
      <trkpt lat="48.21319" lon="-3.15001">
        <ele>124.63</ele>
        <time>2011-09-21T13:25:29Z</time>
      </trkpt>
      <trkpt lat="48.21318" lon="-3.15004">
        <ele>124.63</ele>
        <time>2011-09-21T13:25:31Z</time>
      </trkpt>
      <trkpt lat="48.21315" lon="-3.15016">
        <ele>124.15</ele>
        <time>2011-09-21T13:25:37Z</time>
      </trkpt>
      <trkpt lat="48.21316" lon="-3.15021">
        <ele>124.63</ele>
        <time>2011-09-21T13:25:41Z</time>
      </trkpt>
      <trkpt lat="48.21315" lon="-3.15029">
        <ele>124.15</ele>
        <time>2011-09-21T13:25:45Z</time>
      </trkpt>
      <trkpt lat="48.21314" lon="-3.1504">
        <ele>124.15</ele>
        <time>2011-09-21T13:25:52Z</time>
      </trkpt>
      <trkpt lat="48.2131" lon="-3.15055">
        <ele>124.63</ele>
        <time>2011-09-21T13:26:02Z</time>
      </trkpt>
      <trkpt lat="48.21307" lon="-3.15076">
        <ele>124.63</ele>
        <time>2011-09-21T13:26:12Z</time>
      </trkpt>
      <trkpt lat="48.21302" lon="-3.15093">
        <ele>124.63</ele>
        <time>2011-09-21T13:26:22Z</time>
      </trkpt>
      <trkpt lat="48.21294" lon="-3.15112">
        <ele>124.63</ele>
        <time>2011-09-21T13:26:33Z</time>
      </trkpt>
      <trkpt lat="48.21287" lon="-3.1513">
        <ele>124.63</ele>
        <time>2011-09-21T13:26:44Z</time>
      </trkpt>
      <trkpt lat="48.2128" lon="-3.15146">
        <ele>124.63</ele>
        <time>2011-09-21T13:26:55Z</time>
      </trkpt>
      <trkpt lat="48.21279" lon="-3.15149">
        <ele>125.11</ele>
        <time>2011-09-21T13:26:57Z</time>
      </trkpt>
      <trkpt lat="48.21275" lon="-3.15155">
        <ele>125.11</ele>
        <time>2011-09-21T13:27:02Z</time>
      </trkpt>
      <trkpt lat="48.21272" lon="-3.1516">
        <ele>124.63</ele>
        <time>2011-09-21T13:27:07Z</time>
      </trkpt>
      <trkpt lat="48.21265" lon="-3.15175">
        <ele>125.11</ele>
        <time>2011-09-21T13:27:19Z</time>
      </trkpt>
      <trkpt lat="48.21263" lon="-3.15179">
        <ele>125.59</ele>
        <time>2011-09-21T13:27:22Z</time>
      </trkpt>
      <trkpt lat="48.21258" lon="-3.15188">
        <ele>125.59</ele>
        <time>2011-09-21T13:27:28Z</time>
      </trkpt>
      <trkpt lat="48.21255" lon="-3.15195">
        <ele>126.07</ele>
        <time>2011-09-21T13:27:31Z</time>
      </trkpt>
      <trkpt lat="48.21246" lon="-3.15215">
        <ele>126.07</ele>
        <time>2011-09-21T13:27:42Z</time>
      </trkpt>
      <trkpt lat="48.21243" lon="-3.1522">
        <ele>126.55</ele>
        <time>2011-09-21T13:27:45Z</time>
      </trkpt>
      <trkpt lat="48.21242" lon="-3.15224">
        <ele>126.55</ele>
        <time>2011-09-21T13:27:48Z</time>
      </trkpt>
      <trkpt lat="48.21233" lon="-3.15237">
        <ele>127.03</ele>
        <time>2011-09-21T13:28:00Z</time>
      </trkpt>
      <trkpt lat="48.21229" lon="-3.15245">
        <ele>127.51</ele>
        <time>2011-09-21T13:28:12Z</time>
      </trkpt>
      <trkpt lat="48.21228" lon="-3.15248">
        <ele>127.51</ele>
        <time>2011-09-21T13:28:25Z</time>
      </trkpt>
      <trkpt lat="48.21225" lon="-3.15252">
        <ele>127.51</ele>
        <time>2011-09-21T13:28:28Z</time>
      </trkpt>
      <trkpt lat="48.21217" lon="-3.15266">
        <ele>127.03</ele>
        <time>2011-09-21T13:28:40Z</time>
      </trkpt>
      <trkpt lat="48.21215" lon="-3.15275">
        <ele>127.51</ele>
        <time>2011-09-21T13:28:47Z</time>
      </trkpt>
      <trkpt lat="48.21212" lon="-3.15283">
        <ele>127.03</ele>
        <time>2011-09-21T13:28:54Z</time>
      </trkpt>
      <trkpt lat="48.2121" lon="-3.15288">
        <ele>126.55</ele>
        <time>2011-09-21T13:28:58Z</time>
      </trkpt>
      <trkpt lat="48.21209" lon="-3.1529">
        <ele>127.03</ele>
        <time>2011-09-21T13:29:02Z</time>
      </trkpt>
      <trkpt lat="48.21205" lon="-3.15301">
        <ele>127.51</ele>
        <time>2011-09-21T13:29:09Z</time>
      </trkpt>
      <trkpt lat="48.21204" lon="-3.15307">
        <ele>126.55</ele>
        <time>2011-09-21T13:29:11Z</time>
      </trkpt>
      <trkpt lat="48.21201" lon="-3.15317">
        <ele>126.55</ele>
        <time>2011-09-21T13:29:15Z</time>
      </trkpt>
      <trkpt lat="48.21197" lon="-3.15332">
        <ele>126.55</ele>
        <time>2011-09-21T13:29:23Z</time>
      </trkpt>
      <trkpt lat="48.21193" lon="-3.15345">
        <ele>127.03</ele>
        <time>2011-09-21T13:29:31Z</time>
      </trkpt>
      <trkpt lat="48.21192" lon="-3.15348">
        <ele>127.03</ele>
        <time>2011-09-21T13:29:33Z</time>
      </trkpt>
      <trkpt lat="48.2119" lon="-3.15354">
        <ele>127.03</ele>
        <time>2011-09-21T13:29:36Z</time>
      </trkpt>
      <trkpt lat="48.21191" lon="-3.1537">
        <ele>127.51</ele>
        <time>2011-09-21T13:29:46Z</time>
      </trkpt>
      <trkpt lat="48.2119" lon="-3.15386">
        <ele>127.03</ele>
        <time>2011-09-21T13:29:55Z</time>
      </trkpt>
      <trkpt lat="48.21191" lon="-3.154">
        <ele>127.03</ele>
        <time>2011-09-21T13:30:05Z</time>
      </trkpt>
      <trkpt lat="48.2119" lon="-3.15402">
        <ele>127.03</ele>
        <time>2011-09-21T13:30:12Z</time>
      </trkpt>
      <trkpt lat="48.2119" lon="-3.15414">
        <ele>126.55</ele>
        <time>2011-09-21T13:30:21Z</time>
      </trkpt>
      <trkpt lat="48.21191" lon="-3.15428">
        <ele>126.55</ele>
        <time>2011-09-21T13:30:28Z</time>
      </trkpt>
      <trkpt lat="48.21191" lon="-3.15431">
        <ele>127.03</ele>
        <time>2011-09-21T13:30:30Z</time>
      </trkpt>
      <trkpt lat="48.21191" lon="-3.15443">
        <ele>127.03</ele>
        <time>2011-09-21T13:30:40Z</time>
      </trkpt>
      <trkpt lat="48.21191" lon="-3.15456">
        <ele>127.03</ele>
        <time>2011-09-21T13:30:51Z</time>
      </trkpt>
      <trkpt lat="48.21193" lon="-3.1548">
        <ele>127.51</ele>
        <time>2011-09-21T13:31:05Z</time>
      </trkpt>
      <trkpt lat="48.21198" lon="-3.1549">
        <ele>127.03</ele>
        <time>2011-09-21T13:31:14Z</time>
      </trkpt>
      <trkpt lat="48.21199" lon="-3.15504">
        <ele>127.03</ele>
        <time>2011-09-21T13:31:28Z</time>
      </trkpt>
      <trkpt lat="48.212" lon="-3.15514">
        <ele>127.51</ele>
        <time>2011-09-21T13:31:38Z</time>
      </trkpt>
      <trkpt lat="48.21209" lon="-3.15554">
        <ele>127.03</ele>
        <time>2011-09-21T13:31:52Z</time>
      </trkpt>
      <trkpt lat="48.21213" lon="-3.1559">
        <ele>127.03</ele>
        <time>2011-09-21T13:32:02Z</time>
      </trkpt>
      <trkpt lat="48.21214" lon="-3.15606">
        <ele>127.03</ele>
        <time>2011-09-21T13:32:13Z</time>
      </trkpt>
      <trkpt lat="48.21215" lon="-3.15619">
        <ele>127.51</ele>
        <time>2011-09-21T13:32:22Z</time>
      </trkpt>
      <trkpt lat="48.21215" lon="-3.15636">
        <ele>127.51</ele>
        <time>2011-09-21T13:32:33Z</time>
      </trkpt>
      <trkpt lat="48.21216" lon="-3.15652">
        <ele>127.03</ele>
        <time>2011-09-21T13:32:42Z</time>
      </trkpt>
      <trkpt lat="48.21217" lon="-3.15671">
        <ele>127.51</ele>
        <time>2011-09-21T13:32:52Z</time>
      </trkpt>
      <trkpt lat="48.21217" lon="-3.15688">
        <ele>127.03</ele>
        <time>2011-09-21T13:33:03Z</time>
      </trkpt>
      <trkpt lat="48.21217" lon="-3.15694">
        <ele>126.55</ele>
        <time>2011-09-21T13:33:08Z</time>
      </trkpt>
      <trkpt lat="48.21222" lon="-3.15712">
        <ele>127.03</ele>
        <time>2011-09-21T13:33:18Z</time>
      </trkpt>
      <trkpt lat="48.21225" lon="-3.15726">
        <ele>127.03</ele>
        <time>2011-09-21T13:33:28Z</time>
      </trkpt>
      <trkpt lat="48.2123" lon="-3.15741">
        <ele>126.55</ele>
        <time>2011-09-21T13:33:38Z</time>
      </trkpt>
      <trkpt lat="48.21234" lon="-3.15758">
        <ele>127.03</ele>
        <time>2011-09-21T13:33:48Z</time>
      </trkpt>
      <trkpt lat="48.21243" lon="-3.1578">
        <ele>127.03</ele>
        <time>2011-09-21T13:33:59Z</time>
      </trkpt>
      <trkpt lat="48.21244" lon="-3.15781">
        <ele>127.03</ele>
        <time>2011-09-21T13:34:00Z</time>
      </trkpt>
      <trkpt lat="48.21248" lon="-3.15787">
        <ele>127.03</ele>
        <time>2011-09-21T13:34:04Z</time>
      </trkpt>
      <trkpt lat="48.21258" lon="-3.15802">
        <ele>126.55</ele>
        <time>2011-09-21T13:34:14Z</time>
      </trkpt>
      <trkpt lat="48.21264" lon="-3.15809">
        <ele>126.55</ele>
        <time>2011-09-21T13:34:20Z</time>
      </trkpt>
      <trkpt lat="48.21276" lon="-3.15822">
        <ele>126.55</ele>
        <time>2011-09-21T13:34:29Z</time>
      </trkpt>
      <trkpt lat="48.21279" lon="-3.15828">
        <ele>127.03</ele>
        <time>2011-09-21T13:34:33Z</time>
      </trkpt>
      <trkpt lat="48.21289" lon="-3.15836">
        <ele>127.03</ele>
        <time>2011-09-21T13:34:43Z</time>
      </trkpt>
      <trkpt lat="48.21299" lon="-3.15842">
        <ele>126.55</ele>
        <time>2011-09-21T13:34:52Z</time>
      </trkpt>
      <trkpt lat="48.21303" lon="-3.15846">
        <ele>126.55</ele>
        <time>2011-09-21T13:34:57Z</time>
      </trkpt>
      <trkpt lat="48.21306" lon="-3.15847">
        <ele>126.55</ele>
        <time>2011-09-21T13:34:59Z</time>
      </trkpt>
      <trkpt lat="48.21316" lon="-3.15857">
        <ele>126.55</ele>
        <time>2011-09-21T13:35:10Z</time>
      </trkpt>
      <trkpt lat="48.21327" lon="-3.15865">
        <ele>127.03</ele>
        <time>2011-09-21T13:35:21Z</time>
      </trkpt>
      <trkpt lat="48.21336" lon="-3.15873">
        <ele>127.03</ele>
        <time>2011-09-21T13:35:33Z</time>
      </trkpt>
      <trkpt lat="48.21349" lon="-3.15884">
        <ele>126.55</ele>
        <time>2011-09-21T13:35:46Z</time>
      </trkpt>
      <trkpt lat="48.21351" lon="-3.15885">
        <ele>127.03</ele>
        <time>2011-09-21T13:35:48Z</time>
      </trkpt>
      <trkpt lat="48.21354" lon="-3.15888">
        <ele>127.03</ele>
        <time>2011-09-21T13:36:00Z</time>
      </trkpt>
      <trkpt lat="48.21354" lon="-3.15888">
        <ele>127.51</ele>
        <time>2011-09-21T13:36:11Z</time>
      </trkpt>
      <trkpt lat="48.21354" lon="-3.1589">
        <ele>126.55</ele>
        <time>2011-09-21T13:36:22Z</time>
      </trkpt>
      <trkpt lat="48.2136" lon="-3.15905">
        <ele>127.03</ele>
        <time>2011-09-21T13:36:34Z</time>
      </trkpt>
      <trkpt lat="48.21362" lon="-3.15907">
        <ele>127.03</ele>
        <time>2011-09-21T13:36:47Z</time>
      </trkpt>
      <trkpt lat="48.21362" lon="-3.15907">
        <ele>127.51</ele>
        <time>2011-09-21T13:36:49Z</time>
      </trkpt>
      <trkpt lat="48.21367" lon="-3.15915">
        <ele>127.51</ele>
        <time>2011-09-21T13:36:52Z</time>
      </trkpt>
      <trkpt lat="48.21386" lon="-3.15935">
        <ele>127.51</ele>
        <time>2011-09-21T13:37:02Z</time>
      </trkpt>
      <trkpt lat="48.21402" lon="-3.1595">
        <ele>127.51</ele>
        <time>2011-09-21T13:37:13Z</time>
      </trkpt>
      <trkpt lat="48.21417" lon="-3.15965">
        <ele>127.51</ele>
        <time>2011-09-21T13:37:24Z</time>
      </trkpt>
      <trkpt lat="48.21427" lon="-3.15977">
        <ele>127.51</ele>
        <time>2011-09-21T13:37:36Z</time>
      </trkpt>
      <trkpt lat="48.21455" lon="-3.16001">
        <ele>127.99</ele>
        <time>2011-09-21T13:37:50Z</time>
      </trkpt>
      <trkpt lat="48.21464" lon="-3.16015">
        <ele>127.51</ele>
        <time>2011-09-21T13:38:01Z</time>
      </trkpt>
      <trkpt lat="48.21478" lon="-3.16029">
        <ele>127.99</ele>
        <time>2011-09-21T13:38:12Z</time>
      </trkpt>
      <trkpt lat="48.21489" lon="-3.16039">
        <ele>127.99</ele>
        <time>2011-09-21T13:38:23Z</time>
      </trkpt>
      <trkpt lat="48.21492" lon="-3.16045">
        <ele>127.99</ele>
        <time>2011-09-21T13:38:33Z</time>
      </trkpt>
      <trkpt lat="48.21496" lon="-3.16051">
        <ele>127.99</ele>
        <time>2011-09-21T13:38:41Z</time>
      </trkpt>
      <trkpt lat="48.21509" lon="-3.16059">
        <ele>127.51</ele>
        <time>2011-09-21T13:38:53Z</time>
      </trkpt>
      <trkpt lat="48.21521" lon="-3.16065">
        <ele>127.99</ele>
        <time>2011-09-21T13:39:05Z</time>
      </trkpt>
      <trkpt lat="48.21529" lon="-3.16072">
        <ele>127.99</ele>
        <time>2011-09-21T13:39:16Z</time>
      </trkpt>
      <trkpt lat="48.21537" lon="-3.16078">
        <ele>128.47</ele>
        <time>2011-09-21T13:39:23Z</time>
      </trkpt>
      <trkpt lat="48.21545" lon="-3.16084">
        <ele>127.99</ele>
        <time>2011-09-21T13:39:35Z</time>
      </trkpt>
      <trkpt lat="48.21553" lon="-3.16089">
        <ele>127.99</ele>
        <time>2011-09-21T13:39:46Z</time>
      </trkpt>
      <trkpt lat="48.21569" lon="-3.16094">
        <ele>127.99</ele>
        <time>2011-09-21T13:39:57Z</time>
      </trkpt>
      <trkpt lat="48.21578" lon="-3.16095">
        <ele>128.47</ele>
        <time>2011-09-21T13:40:02Z</time>
      </trkpt>
      <trkpt lat="48.216" lon="-3.16099">
        <ele>128.47</ele>
        <time>2011-09-21T13:40:15Z</time>
      </trkpt>
      <trkpt lat="48.21619" lon="-3.16098">
        <ele>127.99</ele>
        <time>2011-09-21T13:40:29Z</time>
      </trkpt>
      <trkpt lat="48.21624" lon="-3.16096">
        <ele>127.99</ele>
        <time>2011-09-21T13:40:34Z</time>
      </trkpt>
      <trkpt lat="48.2164" lon="-3.16094">
        <ele>128.47</ele>
        <time>2011-09-21T13:40:47Z</time>
      </trkpt>
      <trkpt lat="48.21649" lon="-3.16091">
        <ele>128.47</ele>
        <time>2011-09-21T13:40:56Z</time>
      </trkpt>
      <trkpt lat="48.21662" lon="-3.16087">
        <ele>128.47</ele>
        <time>2011-09-21T13:41:09Z</time>
      </trkpt>
      <trkpt lat="48.21676" lon="-3.16084">
        <ele>128.47</ele>
        <time>2011-09-21T13:41:22Z</time>
      </trkpt>
      <trkpt lat="48.2168" lon="-3.16083">
        <ele>128.47</ele>
        <time>2011-09-21T13:41:25Z</time>
      </trkpt>
      <trkpt lat="48.21698" lon="-3.16074">
        <ele>128.47</ele>
        <time>2011-09-21T13:41:39Z</time>
      </trkpt>
      <trkpt lat="48.21711" lon="-3.1607">
        <ele>128.47</ele>
        <time>2011-09-21T13:41:52Z</time>
      </trkpt>
      <trkpt lat="48.21722" lon="-3.16064">
        <ele>128.47</ele>
        <time>2011-09-21T13:42:02Z</time>
      </trkpt>
      <trkpt lat="48.21729" lon="-3.1606">
        <ele>128.47</ele>
        <time>2011-09-21T13:42:12Z</time>
      </trkpt>
      <trkpt lat="48.21746" lon="-3.16054">
        <ele>128.47</ele>
        <time>2011-09-21T13:42:24Z</time>
      </trkpt>
      <trkpt lat="48.21764" lon="-3.16044">
        <ele>127.99</ele>
        <time>2011-09-21T13:42:36Z</time>
      </trkpt>
      <trkpt lat="48.21776" lon="-3.16038">
        <ele>127.99</ele>
        <time>2011-09-21T13:42:47Z</time>
      </trkpt>
      <trkpt lat="48.21787" lon="-3.16032">
        <ele>128.47</ele>
        <time>2011-09-21T13:43:00Z</time>
      </trkpt>
      <trkpt lat="48.21791" lon="-3.16028">
        <ele>128.47</ele>
        <time>2011-09-21T13:43:11Z</time>
      </trkpt>
      <trkpt lat="48.218" lon="-3.16025">
        <ele>127.99</ele>
        <time>2011-09-21T13:43:22Z</time>
      </trkpt>
      <trkpt lat="48.21813" lon="-3.16021">
        <ele>128.47</ele>
        <time>2011-09-21T13:43:33Z</time>
      </trkpt>
      <trkpt lat="48.2184" lon="-3.1602">
        <ele>128.95</ele>
        <time>2011-09-21T13:43:47Z</time>
      </trkpt>
      <trkpt lat="48.21854" lon="-3.16021">
        <ele>128.95</ele>
        <time>2011-09-21T13:43:56Z</time>
      </trkpt>
      <trkpt lat="48.21863" lon="-3.16021">
        <ele>128.47</ele>
        <time>2011-09-21T13:44:09Z</time>
      </trkpt>
      <trkpt lat="48.21879" lon="-3.16024">
        <ele>128.47</ele>
        <time>2011-09-21T13:44:19Z</time>
      </trkpt>
      <trkpt lat="48.21888" lon="-3.16032">
        <ele>128.47</ele>
        <time>2011-09-21T13:44:32Z</time>
      </trkpt>
      <trkpt lat="48.219" lon="-3.16042">
        <ele>127.99</ele>
        <time>2011-09-21T13:44:41Z</time>
      </trkpt>
      <trkpt lat="48.2192" lon="-3.16056">
        <ele>128.47</ele>
        <time>2011-09-21T13:44:54Z</time>
      </trkpt>
      <trkpt lat="48.2193" lon="-3.16067">
        <ele>128.47</ele>
        <time>2011-09-21T13:45:06Z</time>
      </trkpt>
      <trkpt lat="48.21943" lon="-3.16079">
        <ele>128.47</ele>
        <time>2011-09-21T13:45:16Z</time>
      </trkpt>
      <trkpt lat="48.2195" lon="-3.16094">
        <ele>127.99</ele>
        <time>2011-09-21T13:45:29Z</time>
      </trkpt>
      <trkpt lat="48.21958" lon="-3.16103">
        <ele>127.99</ele>
        <time>2011-09-21T13:45:38Z</time>
      </trkpt>
      <trkpt lat="48.21965" lon="-3.16111">
        <ele>127.99</ele>
        <time>2011-09-21T13:45:46Z</time>
      </trkpt>
      <trkpt lat="48.2197" lon="-3.16115">
        <ele>127.99</ele>
        <time>2011-09-21T13:45:54Z</time>
      </trkpt>
      <trkpt lat="48.21983" lon="-3.16132">
        <ele>127.51</ele>
        <time>2011-09-21T13:46:04Z</time>
      </trkpt>
      <trkpt lat="48.21985" lon="-3.16135">
        <ele>128.47</ele>
        <time>2011-09-21T13:46:06Z</time>
      </trkpt>
      <trkpt lat="48.21992" lon="-3.16145">
        <ele>127.51</ele>
        <time>2011-09-21T13:46:15Z</time>
      </trkpt>
      <trkpt lat="48.21993" lon="-3.16146">
        <ele>127.51</ele>
        <time>2011-09-21T13:46:16Z</time>
      </trkpt>
      <trkpt lat="48.22007" lon="-3.1616">
        <ele>127.03</ele>
        <time>2011-09-21T13:46:26Z</time>
      </trkpt>
      <trkpt lat="48.22017" lon="-3.16181">
        <ele>127.51</ele>
        <time>2011-09-21T13:46:38Z</time>
      </trkpt>
      <trkpt lat="48.22014" lon="-3.16203">
        <ele>127.03</ele>
        <time>2011-09-21T13:46:49Z</time>
      </trkpt>
      <trkpt lat="48.22014" lon="-3.16208">
        <ele>127.03</ele>
        <time>2011-09-21T13:46:52Z</time>
      </trkpt>
      <trkpt lat="48.22013" lon="-3.16211">
        <ele>127.51</ele>
        <time>2011-09-21T13:46:55Z</time>
      </trkpt>
      <trkpt lat="48.22015" lon="-3.16225">
        <ele>127.03</ele>
        <time>2011-09-21T13:47:05Z</time>
      </trkpt>
      <trkpt lat="48.22019" lon="-3.1624">
        <ele>127.03</ele>
        <time>2011-09-21T13:47:15Z</time>
      </trkpt>
      <trkpt lat="48.22019" lon="-3.16257">
        <ele>127.03</ele>
        <time>2011-09-21T13:47:26Z</time>
      </trkpt>
      <trkpt lat="48.22023" lon="-3.16276">
        <ele>127.03</ele>
        <time>2011-09-21T13:47:38Z</time>
      </trkpt>
      <trkpt lat="48.2202" lon="-3.16288">
        <ele>127.03</ele>
        <time>2011-09-21T13:47:47Z</time>
      </trkpt>
      <trkpt lat="48.22016" lon="-3.16306">
        <ele>127.03</ele>
        <time>2011-09-21T13:47:56Z</time>
      </trkpt>
      <trkpt lat="48.22014" lon="-3.16312">
        <ele>126.55</ele>
        <time>2011-09-21T13:47:59Z</time>
      </trkpt>
      <trkpt lat="48.22011" lon="-3.16319">
        <ele>126.55</ele>
        <time>2011-09-21T13:48:03Z</time>
      </trkpt>
      <trkpt lat="48.22005" lon="-3.1634">
        <ele>126.55</ele>
        <time>2011-09-21T13:48:13Z</time>
      </trkpt>
      <trkpt lat="48.22001" lon="-3.16357">
        <ele>127.03</ele>
        <time>2011-09-21T13:48:23Z</time>
      </trkpt>
      <trkpt lat="48.21991" lon="-3.16377">
        <ele>126.55</ele>
        <time>2011-09-21T13:48:36Z</time>
      </trkpt>
      <trkpt lat="48.2199" lon="-3.16383">
        <ele>126.07</ele>
        <time>2011-09-21T13:48:40Z</time>
      </trkpt>
      <trkpt lat="48.21982" lon="-3.16396">
        <ele>125.59</ele>
        <time>2011-09-21T13:48:49Z</time>
      </trkpt>
      <trkpt lat="48.21977" lon="-3.16402">
        <ele>125.59</ele>
        <time>2011-09-21T13:48:57Z</time>
      </trkpt>
      <trkpt lat="48.21975" lon="-3.16407">
        <ele>125.59</ele>
        <time>2011-09-21T13:49:03Z</time>
      </trkpt>
      <trkpt lat="48.21974" lon="-3.16411">
        <ele>125.59</ele>
        <time>2011-09-21T13:49:05Z</time>
      </trkpt>
      <trkpt lat="48.21974" lon="-3.16425">
        <ele>125.59</ele>
        <time>2011-09-21T13:49:12Z</time>
      </trkpt>
      <trkpt lat="48.21969" lon="-3.16434">
        <ele>126.07</ele>
        <time>2011-09-21T13:49:18Z</time>
      </trkpt>
      <trkpt lat="48.21962" lon="-3.16452">
        <ele>126.55</ele>
        <time>2011-09-21T13:49:25Z</time>
      </trkpt>
      <trkpt lat="48.2196" lon="-3.16458">
        <ele>126.07</ele>
        <time>2011-09-21T13:49:29Z</time>
      </trkpt>
      <trkpt lat="48.21953" lon="-3.16473">
        <ele>126.07</ele>
        <time>2011-09-21T13:49:40Z</time>
      </trkpt>
      <trkpt lat="48.21951" lon="-3.16478">
        <ele>126.07</ele>
        <time>2011-09-21T13:49:43Z</time>
      </trkpt>
      <trkpt lat="48.21947" lon="-3.16488">
        <ele>126.55</ele>
        <time>2011-09-21T13:49:50Z</time>
      </trkpt>
      <trkpt lat="48.21943" lon="-3.165">
        <ele>126.07</ele>
        <time>2011-09-21T13:50:00Z</time>
      </trkpt>
      <trkpt lat="48.2194" lon="-3.16505">
        <ele>126.07</ele>
        <time>2011-09-21T13:50:04Z</time>
      </trkpt>
      <trkpt lat="48.21939" lon="-3.16508">
        <ele>126.07</ele>
        <time>2011-09-21T13:50:06Z</time>
      </trkpt>
      <trkpt lat="48.21937" lon="-3.16521">
        <ele>126.07</ele>
        <time>2011-09-21T13:50:13Z</time>
      </trkpt>
      <trkpt lat="48.21937" lon="-3.16527">
        <ele>126.55</ele>
        <time>2011-09-21T13:50:16Z</time>
      </trkpt>
      <trkpt lat="48.21934" lon="-3.16541">
        <ele>126.07</ele>
        <time>2011-09-21T13:50:25Z</time>
      </trkpt>
      <trkpt lat="48.21931" lon="-3.16553">
        <ele>126.07</ele>
        <time>2011-09-21T13:50:36Z</time>
      </trkpt>
      <trkpt lat="48.21927" lon="-3.16565">
        <ele>126.55</ele>
        <time>2011-09-21T13:50:47Z</time>
      </trkpt>
      <trkpt lat="48.21925" lon="-3.16574">
        <ele>126.55</ele>
        <time>2011-09-21T13:50:54Z</time>
      </trkpt>
      <trkpt lat="48.21925" lon="-3.16574">
        <ele>126.07</ele>
        <time>2011-09-21T13:50:56Z</time>
      </trkpt>
      <trkpt lat="48.21921" lon="-3.16599">
        <ele>126.07</ele>
        <time>2011-09-21T13:51:05Z</time>
      </trkpt>
      <trkpt lat="48.21921" lon="-3.16601">
        <ele>126.55</ele>
        <time>2011-09-21T13:51:06Z</time>
      </trkpt>
      <trkpt lat="48.21922" lon="-3.1661">
        <ele>125.59</ele>
        <time>2011-09-21T13:51:10Z</time>
      </trkpt>
      <trkpt lat="48.21923" lon="-3.16621">
        <ele>126.07</ele>
        <time>2011-09-21T13:51:18Z</time>
      </trkpt>
      <trkpt lat="48.21918" lon="-3.16634">
        <ele>125.11</ele>
        <time>2011-09-21T13:51:26Z</time>
      </trkpt>
      <trkpt lat="48.21917" lon="-3.16636">
        <ele>125.59</ele>
        <time>2011-09-21T13:51:27Z</time>
      </trkpt>
      <trkpt lat="48.21919" lon="-3.16646">
        <ele>125.59</ele>
        <time>2011-09-21T13:51:32Z</time>
      </trkpt>
      <trkpt lat="48.21911" lon="-3.16661">
        <ele>125.11</ele>
        <time>2011-09-21T13:51:42Z</time>
      </trkpt>
      <trkpt lat="48.21911" lon="-3.16672">
        <ele>125.59</ele>
        <time>2011-09-21T13:51:49Z</time>
      </trkpt>
      <trkpt lat="48.21911" lon="-3.16676">
        <ele>125.59</ele>
        <time>2011-09-21T13:51:51Z</time>
      </trkpt>
      <trkpt lat="48.21908" lon="-3.16687">
        <ele>125.59</ele>
        <time>2011-09-21T13:51:55Z</time>
      </trkpt>
      <trkpt lat="48.21908" lon="-3.16692">
        <ele>125.11</ele>
        <time>2011-09-21T13:51:57Z</time>
      </trkpt>
      <trkpt lat="48.21896" lon="-3.16702">
        <ele>125.11</ele>
        <time>2011-09-21T13:52:04Z</time>
      </trkpt>
      <trkpt lat="48.21893" lon="-3.16718">
        <ele>124.63</ele>
        <time>2011-09-21T13:52:12Z</time>
      </trkpt>
      <trkpt lat="48.21892" lon="-3.1672">
        <ele>124.63</ele>
        <time>2011-09-21T13:52:13Z</time>
      </trkpt>
      <trkpt lat="48.21888" lon="-3.16744">
        <ele>124.63</ele>
        <time>2011-09-21T13:52:22Z</time>
      </trkpt>
      <trkpt lat="48.21889" lon="-3.16752">
        <ele>125.11</ele>
        <time>2011-09-21T13:52:28Z</time>
      </trkpt>
      <trkpt lat="48.21886" lon="-3.1676">
        <ele>125.11</ele>
        <time>2011-09-21T13:52:34Z</time>
      </trkpt>
      <trkpt lat="48.21888" lon="-3.16767">
        <ele>125.11</ele>
        <time>2011-09-21T13:52:37Z</time>
      </trkpt>
      <trkpt lat="48.21886" lon="-3.16779">
        <ele>125.11</ele>
        <time>2011-09-21T13:52:46Z</time>
      </trkpt>
      <trkpt lat="48.21886" lon="-3.16797">
        <ele>125.11</ele>
        <time>2011-09-21T13:52:56Z</time>
      </trkpt>
      <trkpt lat="48.21884" lon="-3.16821">
        <ele>125.11</ele>
        <time>2011-09-21T13:53:08Z</time>
      </trkpt>
      <trkpt lat="48.21885" lon="-3.16834">
        <ele>124.63</ele>
        <time>2011-09-21T13:53:15Z</time>
      </trkpt>
      <trkpt lat="48.21881" lon="-3.16844">
        <ele>125.59</ele>
        <time>2011-09-21T13:53:24Z</time>
      </trkpt>
      <trkpt lat="48.2188" lon="-3.16853">
        <ele>125.59</ele>
        <time>2011-09-21T13:53:28Z</time>
      </trkpt>
      <trkpt lat="48.21882" lon="-3.16865">
        <ele>125.11</ele>
        <time>2011-09-21T13:53:36Z</time>
      </trkpt>
      <trkpt lat="48.21881" lon="-3.16868">
        <ele>125.11</ele>
        <time>2011-09-21T13:53:38Z</time>
      </trkpt>
      <trkpt lat="48.2188" lon="-3.16886">
        <ele>124.63</ele>
        <time>2011-09-21T13:53:50Z</time>
      </trkpt>
      <trkpt lat="48.2188" lon="-3.16895">
        <ele>125.11</ele>
        <time>2011-09-21T13:53:56Z</time>
      </trkpt>
      <trkpt lat="48.21886" lon="-3.16911">
        <ele>125.59</ele>
        <time>2011-09-21T13:54:04Z</time>
      </trkpt>
      <trkpt lat="48.21888" lon="-3.16913">
        <ele>125.11</ele>
        <time>2011-09-21T13:54:05Z</time>
      </trkpt>
      <trkpt lat="48.21894" lon="-3.16928">
        <ele>125.59</ele>
        <time>2011-09-21T13:54:12Z</time>
      </trkpt>
      <trkpt lat="48.21896" lon="-3.16941">
        <ele>125.59</ele>
        <time>2011-09-21T13:54:20Z</time>
      </trkpt>
      <trkpt lat="48.21897" lon="-3.16943">
        <ele>125.59</ele>
        <time>2011-09-21T13:54:21Z</time>
      </trkpt>
      <trkpt lat="48.219" lon="-3.16952">
        <ele>125.59</ele>
        <time>2011-09-21T13:54:26Z</time>
      </trkpt>
      <trkpt lat="48.21902" lon="-3.16955">
        <ele>125.59</ele>
        <time>2011-09-21T13:54:29Z</time>
      </trkpt>
      <trkpt lat="48.21903" lon="-3.16965">
        <ele>125.59</ele>
        <time>2011-09-21T13:54:37Z</time>
      </trkpt>
      <trkpt lat="48.2191" lon="-3.16981">
        <ele>125.59</ele>
        <time>2011-09-21T13:54:50Z</time>
      </trkpt>
      <trkpt lat="48.21922" lon="-3.17002">
        <ele>125.11</ele>
        <time>2011-09-21T13:55:00Z</time>
      </trkpt>
      <trkpt lat="48.21927" lon="-3.17012">
        <ele>124.63</ele>
        <time>2011-09-21T13:55:09Z</time>
      </trkpt>
      <trkpt lat="48.21931" lon="-3.17021">
        <ele>125.11</ele>
        <time>2011-09-21T13:55:20Z</time>
      </trkpt>
      <trkpt lat="48.21935" lon="-3.17028">
        <ele>125.11</ele>
        <time>2011-09-21T13:55:27Z</time>
      </trkpt>
      <trkpt lat="48.2194" lon="-3.17032">
        <ele>124.63</ele>
        <time>2011-09-21T13:55:36Z</time>
      </trkpt>
      <trkpt lat="48.21957" lon="-3.17048">
        <ele>124.63</ele>
        <time>2011-09-21T13:55:47Z</time>
      </trkpt>
      <trkpt lat="48.21966" lon="-3.17059">
        <ele>125.11</ele>
        <time>2011-09-21T13:55:57Z</time>
      </trkpt>
      <trkpt lat="48.21972" lon="-3.17068">
        <ele>124.63</ele>
        <time>2011-09-21T13:56:06Z</time>
      </trkpt>
      <trkpt lat="48.21973" lon="-3.17074">
        <ele>124.63</ele>
        <time>2011-09-21T13:56:14Z</time>
      </trkpt>
      <trkpt lat="48.21979" lon="-3.17086">
        <ele>124.63</ele>
        <time>2011-09-21T13:56:27Z</time>
      </trkpt>
      <trkpt lat="48.21992" lon="-3.17095">
        <ele>124.63</ele>
        <time>2011-09-21T13:56:36Z</time>
      </trkpt>
      <trkpt lat="48.2201" lon="-3.17104">
        <ele>124.63</ele>
        <time>2011-09-21T13:56:47Z</time>
      </trkpt>
      <trkpt lat="48.22014" lon="-3.17106">
        <ele>124.63</ele>
        <time>2011-09-21T13:56:51Z</time>
      </trkpt>
      <trkpt lat="48.22028" lon="-3.17113">
        <ele>124.63</ele>
        <time>2011-09-21T13:57:00Z</time>
      </trkpt>
      <trkpt lat="48.22034" lon="-3.17118">
        <ele>124.63</ele>
        <time>2011-09-21T13:57:11Z</time>
      </trkpt>
      <trkpt lat="48.2204" lon="-3.17121">
        <ele>124.63</ele>
        <time>2011-09-21T13:57:17Z</time>
      </trkpt>
      <trkpt lat="48.22049" lon="-3.17129">
        <ele>124.63</ele>
        <time>2011-09-21T13:57:24Z</time>
      </trkpt>
      <trkpt lat="48.2206" lon="-3.17134">
        <ele>124.15</ele>
        <time>2011-09-21T13:57:34Z</time>
      </trkpt>
      <trkpt lat="48.22064" lon="-3.17137">
        <ele>124.63</ele>
        <time>2011-09-21T13:57:38Z</time>
      </trkpt>
      <trkpt lat="48.22073" lon="-3.17144">
        <ele>124.15</ele>
        <time>2011-09-21T13:57:49Z</time>
      </trkpt>
      <trkpt lat="48.22081" lon="-3.17148">
        <ele>124.15</ele>
        <time>2011-09-21T13:57:56Z</time>
      </trkpt>
      <trkpt lat="48.22099" lon="-3.17154">
        <ele>124.15</ele>
        <time>2011-09-21T13:58:08Z</time>
      </trkpt>
      <trkpt lat="48.22104" lon="-3.17155">
        <ele>123.67</ele>
        <time>2011-09-21T13:58:10Z</time>
      </trkpt>
      <trkpt lat="48.22125" lon="-3.17155">
        <ele>123.67</ele>
        <time>2011-09-21T13:58:21Z</time>
      </trkpt>
      <trkpt lat="48.22133" lon="-3.17153">
        <ele>124.15</ele>
        <time>2011-09-21T13:58:32Z</time>
      </trkpt>
      <trkpt lat="48.22135" lon="-3.17153">
        <ele>123.67</ele>
        <time>2011-09-21T13:58:33Z</time>
      </trkpt>
      <trkpt lat="48.22144" lon="-3.17154">
        <ele>123.67</ele>
        <time>2011-09-21T13:58:44Z</time>
      </trkpt>
      <trkpt lat="48.22155" lon="-3.17153">
        <ele>124.15</ele>
        <time>2011-09-21T13:58:56Z</time>
      </trkpt>
      <trkpt lat="48.22221" lon="-3.17144">
        <ele>124.15</ele>
        <time>2011-09-21T13:59:09Z</time>
      </trkpt>
      <trkpt lat="48.22235" lon="-3.17144">
        <ele>124.15</ele>
        <time>2011-09-21T13:59:20Z</time>
      </trkpt>
      <trkpt lat="48.22247" lon="-3.17144">
        <ele>124.15</ele>
        <time>2011-09-21T13:59:32Z</time>
      </trkpt>
      <trkpt lat="48.22248" lon="-3.17143">
        <ele>123.67</ele>
        <time>2011-09-21T13:59:33Z</time>
      </trkpt>
      <trkpt lat="48.22264" lon="-3.17145">
        <ele>124.15</ele>
        <time>2011-09-21T13:59:46Z</time>
      </trkpt>
      <trkpt lat="48.22265" lon="-3.17146">
        <ele>124.15</ele>
        <time>2011-09-21T13:59:47Z</time>
      </trkpt>
      <trkpt lat="48.2228" lon="-3.17147">
        <ele>124.15</ele>
        <time>2011-09-21T13:59:59Z</time>
      </trkpt>
      <trkpt lat="48.22289" lon="-3.17148">
        <ele>124.15</ele>
        <time>2011-09-21T14:00:10Z</time>
      </trkpt>
      <trkpt lat="48.22302" lon="-3.1715">
        <ele>124.15</ele>
        <time>2011-09-21T14:00:21Z</time>
      </trkpt>
      <trkpt lat="48.22311" lon="-3.1715">
        <ele>124.15</ele>
        <time>2011-09-21T14:00:32Z</time>
      </trkpt>
      <trkpt lat="48.22326" lon="-3.17152">
        <ele>124.63</ele>
        <time>2011-09-21T14:00:41Z</time>
      </trkpt>
      <trkpt lat="48.2233" lon="-3.17154">
        <ele>124.63</ele>
        <time>2011-09-21T14:00:45Z</time>
      </trkpt>
      <trkpt lat="48.22348" lon="-3.17159">
        <ele>124.15</ele>
        <time>2011-09-21T14:01:00Z</time>
      </trkpt>
      <trkpt lat="48.22357" lon="-3.17165">
        <ele>124.15</ele>
        <time>2011-09-21T14:01:09Z</time>
      </trkpt>
      <trkpt lat="48.22359" lon="-3.17166">
        <ele>124.15</ele>
        <time>2011-09-21T14:01:11Z</time>
      </trkpt>
      <trkpt lat="48.22363" lon="-3.17169">
        <ele>124.15</ele>
        <time>2011-09-21T14:01:17Z</time>
      </trkpt>
      <trkpt lat="48.22365" lon="-3.17172">
        <ele>123.67</ele>
        <time>2011-09-21T14:01:21Z</time>
      </trkpt>
      <trkpt lat="48.22366" lon="-3.17174">
        <ele>123.67</ele>
        <time>2011-09-21T14:01:23Z</time>
      </trkpt>
      <trkpt lat="48.22376" lon="-3.17178">
        <ele>123.67</ele>
        <time>2011-09-21T14:01:34Z</time>
      </trkpt>
      <trkpt lat="48.2238" lon="-3.17182">
        <ele>123.67</ele>
        <time>2011-09-21T14:01:44Z</time>
      </trkpt>
      <trkpt lat="48.22386" lon="-3.17184">
        <ele>123.67</ele>
        <time>2011-09-21T14:01:54Z</time>
      </trkpt>
      <trkpt lat="48.2239" lon="-3.17186">
        <ele>123.67</ele>
        <time>2011-09-21T14:01:56Z</time>
      </trkpt>
      <trkpt lat="48.224" lon="-3.17193">
        <ele>123.19</ele>
        <time>2011-09-21T14:02:07Z</time>
      </trkpt>
      <trkpt lat="48.22409" lon="-3.17205">
        <ele>123.19</ele>
        <time>2011-09-21T14:02:18Z</time>
      </trkpt>
      <trkpt lat="48.22414" lon="-3.17211">
        <ele>123.67</ele>
        <time>2011-09-21T14:02:28Z</time>
      </trkpt>
      <trkpt lat="48.22425" lon="-3.17234">
        <ele>123.19</ele>
        <time>2011-09-21T14:02:39Z</time>
      </trkpt>
      <trkpt lat="48.22441" lon="-3.17241">
        <ele>123.19</ele>
        <time>2011-09-21T14:02:50Z</time>
      </trkpt>
      <trkpt lat="48.22445" lon="-3.17253">
        <ele>123.19</ele>
        <time>2011-09-21T14:02:58Z</time>
      </trkpt>
      <trkpt lat="48.22445" lon="-3.17254">
        <ele>123.19</ele>
        <time>2011-09-21T14:03:07Z</time>
      </trkpt>
      <trkpt lat="48.22445" lon="-3.17254">
        <ele>123.19</ele>
        <time>2011-09-21T14:03:24Z</time>
      </trkpt>
      <trkpt lat="48.22447" lon="-3.17257">
        <ele>122.71</ele>
        <time>2011-09-21T14:03:36Z</time>
      </trkpt>
      <trkpt lat="48.22451" lon="-3.17259">
        <ele>122.71</ele>
        <time>2011-09-21T14:03:45Z</time>
      </trkpt>
      <trkpt lat="48.22451" lon="-3.17259">
        <ele>122.71</ele>
        <time>2011-09-21T14:03:57Z</time>
      </trkpt>
      <trkpt lat="48.22451" lon="-3.1726">
        <ele>122.71</ele>
        <time>2011-09-21T14:04:07Z</time>
      </trkpt>
      <trkpt lat="48.22456" lon="-3.17264">
        <ele>123.19</ele>
        <time>2011-09-21T14:04:16Z</time>
      </trkpt>
      <trkpt lat="48.22455" lon="-3.17267">
        <ele>122.71</ele>
        <time>2011-09-21T14:04:27Z</time>
      </trkpt>
      <trkpt lat="48.2246" lon="-3.17276">
        <ele>122.22</ele>
        <time>2011-09-21T14:04:40Z</time>
      </trkpt>
      <trkpt lat="48.22478" lon="-3.17286">
        <ele>122.22</ele>
        <time>2011-09-21T14:04:48Z</time>
      </trkpt>
      <trkpt lat="48.22479" lon="-3.17305">
        <ele>123.19</ele>
        <time>2011-09-21T14:04:59Z</time>
      </trkpt>
      <trkpt lat="48.22478" lon="-3.17309">
        <ele>123.19</ele>
        <time>2011-09-21T14:05:15Z</time>
      </trkpt>
      <trkpt lat="48.22482" lon="-3.17311">
        <ele>123.67</ele>
        <time>2011-09-21T14:05:30Z</time>
      </trkpt>
      <trkpt lat="48.22487" lon="-3.17304">
        <ele>123.67</ele>
        <time>2011-09-21T14:05:48Z</time>
      </trkpt>
      <trkpt lat="48.22491" lon="-3.17309">
        <ele>123.67</ele>
        <time>2011-09-21T14:06:01Z</time>
      </trkpt>
      <trkpt lat="48.22497" lon="-3.17318">
        <ele>123.67</ele>
        <time>2011-09-21T14:06:14Z</time>
      </trkpt>
      <trkpt lat="48.22496" lon="-3.17328">
        <ele>123.67</ele>
        <time>2011-09-21T14:06:18Z</time>
      </trkpt>
      <trkpt lat="48.22491" lon="-3.17368">
        <ele>123.67</ele>
        <time>2011-09-21T14:06:30Z</time>
      </trkpt>
      <trkpt lat="48.2249" lon="-3.17373">
        <ele>123.19</ele>
        <time>2011-09-21T14:06:32Z</time>
      </trkpt>
      <trkpt lat="48.22488" lon="-3.17382">
        <ele>123.67</ele>
        <time>2011-09-21T14:06:36Z</time>
      </trkpt>
      <trkpt lat="48.22487" lon="-3.1739">
        <ele>123.19</ele>
        <time>2011-09-21T14:06:40Z</time>
      </trkpt>
      <trkpt lat="48.22484" lon="-3.17413">
        <ele>124.15</ele>
        <time>2011-09-21T14:06:51Z</time>
      </trkpt>
      <trkpt lat="48.22483" lon="-3.17429">
        <ele>123.67</ele>
        <time>2011-09-21T14:07:01Z</time>
      </trkpt>
      <trkpt lat="48.22483" lon="-3.1743">
        <ele>123.67</ele>
        <time>2011-09-21T14:07:02Z</time>
      </trkpt>
      <trkpt lat="48.22483" lon="-3.17438">
        <ele>123.67</ele>
        <time>2011-09-21T14:07:06Z</time>
      </trkpt>
      <trkpt lat="48.22481" lon="-3.17455">
        <ele>124.15</ele>
        <time>2011-09-21T14:07:16Z</time>
      </trkpt>
      <trkpt lat="48.22478" lon="-3.1747">
        <ele>123.67</ele>
        <time>2011-09-21T14:07:26Z</time>
      </trkpt>
      <trkpt lat="48.22479" lon="-3.17483">
        <ele>124.15</ele>
        <time>2011-09-21T14:07:32Z</time>
      </trkpt>
      <trkpt lat="48.22478" lon="-3.17505">
        <ele>124.63</ele>
        <time>2011-09-21T14:07:45Z</time>
      </trkpt>
      <trkpt lat="48.22476" lon="-3.1753">
        <ele>124.15</ele>
        <time>2011-09-21T14:07:59Z</time>
      </trkpt>
      <trkpt lat="48.22475" lon="-3.17534">
        <ele>124.15</ele>
        <time>2011-09-21T14:08:01Z</time>
      </trkpt>
      <trkpt lat="48.22474" lon="-3.17553">
        <ele>124.15</ele>
        <time>2011-09-21T14:08:13Z</time>
      </trkpt>
      <trkpt lat="48.22472" lon="-3.17571">
        <ele>124.15</ele>
        <time>2011-09-21T14:08:23Z</time>
      </trkpt>
      <trkpt lat="48.22469" lon="-3.17595">
        <ele>124.15</ele>
        <time>2011-09-21T14:08:36Z</time>
      </trkpt>
      <trkpt lat="48.22467" lon="-3.17606">
        <ele>124.63</ele>
        <time>2011-09-21T14:08:44Z</time>
      </trkpt>
      <trkpt lat="48.22469" lon="-3.17631">
        <ele>124.63</ele>
        <time>2011-09-21T14:08:53Z</time>
      </trkpt>
      <trkpt lat="48.22465" lon="-3.17641">
        <ele>124.63</ele>
        <time>2011-09-21T14:09:01Z</time>
      </trkpt>
      <trkpt lat="48.22462" lon="-3.17649">
        <ele>125.11</ele>
        <time>2011-09-21T14:09:05Z</time>
      </trkpt>
      <trkpt lat="48.22459" lon="-3.17671">
        <ele>124.63</ele>
        <time>2011-09-21T14:09:16Z</time>
      </trkpt>
      <trkpt lat="48.22458" lon="-3.17687">
        <ele>125.11</ele>
        <time>2011-09-21T14:09:25Z</time>
      </trkpt>
      <trkpt lat="48.22455" lon="-3.17703">
        <ele>125.11</ele>
        <time>2011-09-21T14:09:35Z</time>
      </trkpt>
      <trkpt lat="48.22452" lon="-3.1772">
        <ele>124.63</ele>
        <time>2011-09-21T14:09:46Z</time>
      </trkpt>
      <trkpt lat="48.22452" lon="-3.1773">
        <ele>125.11</ele>
        <time>2011-09-21T14:09:51Z</time>
      </trkpt>
      <trkpt lat="48.22459" lon="-3.17743">
        <ele>125.11</ele>
        <time>2011-09-21T14:09:56Z</time>
      </trkpt>
      <trkpt lat="48.22457" lon="-3.17762">
        <ele>125.59</ele>
        <time>2011-09-21T14:10:07Z</time>
      </trkpt>
      <trkpt lat="48.22457" lon="-3.17763">
        <ele>125.59</ele>
        <time>2011-09-21T14:10:08Z</time>
      </trkpt>
      <trkpt lat="48.22451" lon="-3.17784">
        <ele>125.59</ele>
        <time>2011-09-21T14:10:19Z</time>
      </trkpt>
      <trkpt lat="48.2245" lon="-3.17788">
        <ele>125.59</ele>
        <time>2011-09-21T14:10:22Z</time>
      </trkpt>
      <trkpt lat="48.22447" lon="-3.178">
        <ele>126.07</ele>
        <time>2011-09-21T14:10:29Z</time>
      </trkpt>
      <trkpt lat="48.22447" lon="-3.17812">
        <ele>126.07</ele>
        <time>2011-09-21T14:10:35Z</time>
      </trkpt>
      <trkpt lat="48.22443" lon="-3.17822">
        <ele>126.55</ele>
        <time>2011-09-21T14:10:44Z</time>
      </trkpt>
      <trkpt lat="48.22442" lon="-3.17824">
        <ele>126.55</ele>
        <time>2011-09-21T14:10:56Z</time>
      </trkpt>
      <trkpt lat="48.22442" lon="-3.17824">
        <ele>126.55</ele>
        <time>2011-09-21T14:11:15Z</time>
      </trkpt>
      <trkpt lat="48.22442" lon="-3.17824">
        <ele>126.07</ele>
        <time>2011-09-21T14:11:30Z</time>
      </trkpt>
      <trkpt lat="48.22444" lon="-3.17827">
        <ele>126.55</ele>
        <time>2011-09-21T14:11:44Z</time>
      </trkpt>
      <trkpt lat="48.22448" lon="-3.17829">
        <ele>126.55</ele>
        <time>2011-09-21T14:11:55Z</time>
      </trkpt>
      <trkpt lat="48.22452" lon="-3.17829">
        <ele>126.07</ele>
        <time>2011-09-21T14:12:06Z</time>
      </trkpt>
      <trkpt lat="48.22455" lon="-3.17832">
        <ele>126.07</ele>
        <time>2011-09-21T14:12:12Z</time>
      </trkpt>
      <trkpt lat="48.22458" lon="-3.17853">
        <ele>126.07</ele>
        <time>2011-09-21T14:12:26Z</time>
      </trkpt>
      <trkpt lat="48.22459" lon="-3.17869">
        <ele>126.55</ele>
        <time>2011-09-21T14:12:36Z</time>
      </trkpt>
      <trkpt lat="48.22461" lon="-3.17877">
        <ele>126.07</ele>
        <time>2011-09-21T14:12:45Z</time>
      </trkpt>
      <trkpt lat="48.22461" lon="-3.17877">
        <ele>126.55</ele>
        <time>2011-09-21T14:13:04Z</time>
      </trkpt>
      <trkpt lat="48.22461" lon="-3.17881">
        <ele>126.55</ele>
        <time>2011-09-21T14:13:17Z</time>
      </trkpt>
      <trkpt lat="48.22461" lon="-3.17873">
        <ele>126.07</ele>
        <time>2011-09-21T14:13:33Z</time>
      </trkpt>
      <trkpt lat="48.22464" lon="-3.17859">
        <ele>126.55</ele>
        <time>2011-09-21T14:13:45Z</time>
      </trkpt>
      <trkpt lat="48.22466" lon="-3.17845">
        <ele>126.07</ele>
        <time>2011-09-21T14:14:00Z</time>
      </trkpt>
      <trkpt lat="48.2247" lon="-3.17843">
        <ele>126.07</ele>
        <time>2011-09-21T14:14:14Z</time>
      </trkpt>
      <trkpt lat="48.2247" lon="-3.17842">
        <ele>126.07</ele>
        <time>2011-09-21T14:14:19Z</time>
      </trkpt>
      <trkpt lat="48.22472" lon="-3.17841">
        <ele>126.07</ele>
        <time>2011-09-21T14:14:31Z</time>
      </trkpt>
      <trkpt lat="48.22475" lon="-3.17839">
        <ele>126.07</ele>
        <time>2011-09-21T14:14:45Z</time>
      </trkpt>
      <trkpt lat="48.22477" lon="-3.17841">
        <ele>125.59</ele>
        <time>2011-09-21T14:14:56Z</time>
      </trkpt>
      <trkpt lat="48.22483" lon="-3.17843">
        <ele>125.59</ele>
        <time>2011-09-21T14:15:03Z</time>
      </trkpt>
      <trkpt lat="48.22499" lon="-3.17846">
        <ele>125.11</ele>
        <time>2011-09-21T14:15:16Z</time>
      </trkpt>
      <trkpt lat="48.22513" lon="-3.17848">
        <ele>125.11</ele>
        <time>2011-09-21T14:15:27Z</time>
      </trkpt>
      <trkpt lat="48.22522" lon="-3.17852">
        <ele>125.11</ele>
        <time>2011-09-21T14:15:36Z</time>
      </trkpt>
      <trkpt lat="48.22541" lon="-3.17856">
        <ele>124.63</ele>
        <time>2011-09-21T14:15:46Z</time>
      </trkpt>
      <trkpt lat="48.22549" lon="-3.17856">
        <ele>124.15</ele>
        <time>2011-09-21T14:15:54Z</time>
      </trkpt>
      <trkpt lat="48.22552" lon="-3.17852">
        <ele>124.63</ele>
        <time>2011-09-21T14:16:00Z</time>
      </trkpt>
      <trkpt lat="48.2256" lon="-3.17843">
        <ele>125.11</ele>
        <time>2011-09-21T14:16:10Z</time>
      </trkpt>
      <trkpt lat="48.22562" lon="-3.17837">
        <ele>124.63</ele>
        <time>2011-09-21T14:16:15Z</time>
      </trkpt>
      <trkpt lat="48.22552" lon="-3.17819">
        <ele>124.63</ele>
        <time>2011-09-21T14:16:27Z</time>
      </trkpt>
      <trkpt lat="48.22555" lon="-3.17809">
        <ele>124.63</ele>
        <time>2011-09-21T14:16:33Z</time>
      </trkpt>
      <trkpt lat="48.22564" lon="-3.17792">
        <ele>124.63</ele>
        <time>2011-09-21T14:16:46Z</time>
      </trkpt>
      <trkpt lat="48.22571" lon="-3.1778">
        <ele>124.63</ele>
        <time>2011-09-21T14:16:54Z</time>
      </trkpt>
      <trkpt lat="48.22578" lon="-3.1777">
        <ele>124.63</ele>
        <time>2011-09-21T14:17:03Z</time>
      </trkpt>
      <trkpt lat="48.22589" lon="-3.17755">
        <ele>125.11</ele>
        <time>2011-09-21T14:17:15Z</time>
      </trkpt>
      <trkpt lat="48.22597" lon="-3.17742">
        <ele>125.59</ele>
        <time>2011-09-21T14:17:24Z</time>
      </trkpt>
      <trkpt lat="48.22609" lon="-3.1773">
        <ele>125.11</ele>
        <time>2011-09-21T14:17:36Z</time>
      </trkpt>
      <trkpt lat="48.2262" lon="-3.17716">
        <ele>125.59</ele>
        <time>2011-09-21T14:17:47Z</time>
      </trkpt>
      <trkpt lat="48.22629" lon="-3.177">
        <ele>126.07</ele>
        <time>2011-09-21T14:17:58Z</time>
      </trkpt>
      <trkpt lat="48.2263" lon="-3.17699">
        <ele>125.59</ele>
        <time>2011-09-21T14:17:59Z</time>
      </trkpt>
      <trkpt lat="48.22631" lon="-3.17695">
        <ele>126.07</ele>
        <time>2011-09-21T14:18:02Z</time>
      </trkpt>
      <trkpt lat="48.22638" lon="-3.17684">
        <ele>126.07</ele>
        <time>2011-09-21T14:18:11Z</time>
      </trkpt>
      <trkpt lat="48.22644" lon="-3.17666">
        <ele>126.07</ele>
        <time>2011-09-21T14:18:23Z</time>
      </trkpt>
      <trkpt lat="48.22643" lon="-3.17656">
        <ele>126.07</ele>
        <time>2011-09-21T14:18:29Z</time>
      </trkpt>
      <trkpt lat="48.22644" lon="-3.17647">
        <ele>126.07</ele>
        <time>2011-09-21T14:18:41Z</time>
      </trkpt>
      <trkpt lat="48.22645" lon="-3.17643">
        <ele>126.55</ele>
        <time>2011-09-21T14:18:55Z</time>
      </trkpt>
      <trkpt lat="48.22645" lon="-3.17643">
        <ele>126.55</ele>
        <time>2011-09-21T14:19:14Z</time>
      </trkpt>
      <trkpt lat="48.22645" lon="-3.17637">
        <ele>126.07</ele>
        <time>2011-09-21T14:19:25Z</time>
      </trkpt>
      <trkpt lat="48.22643" lon="-3.17628">
        <ele>126.07</ele>
        <time>2011-09-21T14:19:39Z</time>
      </trkpt>
      <trkpt lat="48.22644" lon="-3.17621">
        <ele>126.55</ele>
        <time>2011-09-21T14:19:49Z</time>
      </trkpt>
      <trkpt lat="48.22644" lon="-3.17621">
        <ele>126.55</ele>
        <time>2011-09-21T14:20:05Z</time>
      </trkpt>
      <trkpt lat="48.22644" lon="-3.1762">
        <ele>127.03</ele>
        <time>2011-09-21T14:20:22Z</time>
      </trkpt>
      <trkpt lat="48.22644" lon="-3.17619">
        <ele>126.55</ele>
        <time>2011-09-21T14:20:41Z</time>
      </trkpt>
      <trkpt lat="48.22646" lon="-3.17612">
        <ele>127.03</ele>
        <time>2011-09-21T14:20:52Z</time>
      </trkpt>
    </trkseg>
  </trk>
</gpx>